Date StartTime U_cm/s V_cm/s W_cm/s Ustd_cm/s Vstd_cm/s Wstd_cm/s Uvar_(cm/s)^2 Vvar_(cm/s)^2 Wvar_(cm/s)^2 KE_(m/s)^2 TurbulentKE_(m/s)^2 HorizWindSpeed_cm/s FrictionSpeec_cm/s DragCoef SpeedOfSound_m/s SonicTemperature_C Pressure_mb 
11/07/2014  00:00:00      -62.783      -27.275       -9.689        9.561        9.451        7.598       91.404       89.323       57.735        0.251        0.012       68.451        4.973        0.005      338.708       11.543      868.223
11/07/2014  00:01:00      -96.942      -38.793      -11.055       17.931        9.516        5.960      321.528       90.556       35.523        0.574        0.022      104.416        6.650        0.004      338.495       11.186      868.219
11/07/2014  00:02:00     -116.517      -27.737      -16.682       15.150       20.784        8.952      229.528      431.983       80.134        0.768        0.037      119.773        8.498        0.005      338.517       11.221      868.210
11/07/2014  00:03:00      -80.083        7.150       -9.059       20.738       14.152       14.318      430.083      200.289      204.996        0.369        0.042       80.401        8.256        0.011      338.537       11.257      868.188
11/07/2014  00:04:00      -77.298       -0.775      -20.979        9.961        9.512        9.884       99.228       90.473       97.691        0.335        0.014       77.302        5.979        0.006      338.822       11.734      868.168
11/07/2014  00:05:00      -79.815      -16.317      -12.166        9.605        8.978        5.853       92.261       80.611       34.259        0.350        0.010       81.465        4.131        0.003      339.179       12.333      868.163
11/07/2014  00:06:00      -28.648       -1.519       -7.055       33.354        9.844        7.658     1112.512       96.896       58.639        0.107        0.063       28.688        6.853        0.057      339.293       12.527      868.177
11/07/2014  00:07:00       25.261        0.679      -16.631       18.739       15.573       11.196      351.147      242.503      125.357        0.082        0.036       25.270       10.257        0.165      339.068       12.148      868.189
11/07/2014  00:08:00       27.659       -5.385        0.859       19.758       13.178       16.528      390.372      173.653      273.162        0.082        0.042       28.178       10.323        0.134      339.095       12.194      868.191
11/07/2014  00:09:00      -35.014      -19.904       -2.938       54.086       18.408       14.893     2925.329      338.866      221.800        0.256        0.174       40.276       15.978        0.157      339.010       12.052      868.208
11/07/2014  00:10:00      -96.721       -9.108       -7.751       44.545       28.886       20.553     1984.220      834.421      422.416        0.637        0.162       97.149       21.692        0.050      338.110       10.540      868.220
11/07/2014  00:11:00       -3.572       12.879        1.420        9.640       13.796        7.838       92.935      190.318       61.436        0.026        0.017       13.366        4.251        0.101      338.438       11.089      868.210
11/07/2014  00:12:00       40.757       34.470        3.559       21.745       11.205       10.395      472.829      125.542      108.053        0.178        0.035       53.379        8.170        0.023      338.694       11.521      868.188
11/07/2014  00:13:00       31.444       16.711        2.256        9.056        9.169        7.735       82.009       84.072       59.831        0.075        0.011       35.608        5.034        0.020      338.511       11.213      868.173
11/07/2014  00:14:00        1.310      -11.437        0.039       19.929       13.418        8.998      397.157      180.051       80.957        0.040        0.033       11.512        4.158        0.130      338.681       11.498      868.176
11/07/2014  00:15:00      -74.931      -23.371       -9.740       22.539       14.562        8.615      508.018      212.050       74.220        0.352        0.040       78.492        5.839        0.006      338.388       11.005      868.201
11/07/2014  00:16:00     -102.021      -25.058       -7.958       20.094       16.209       12.911      403.778      262.737      166.705        0.597        0.042      105.053        9.754        0.009      338.170       10.639      868.211
11/07/2014  00:17:00      -63.878      -41.992       -0.612       36.877       13.410       10.682     1359.885      179.838      114.106        0.375        0.083       76.445        5.796        0.006      338.311       10.877      868.232
11/07/2014  00:18:00      -76.662      -35.420       -1.515       12.059       13.730       10.485      145.417      188.523      109.930        0.379        0.022       84.449        7.439        0.008      338.419       11.058      868.244
11/07/2014  00:19:00      -75.128       -5.561       -5.642       15.942       11.184        7.198      254.135      125.082       51.815        0.307        0.022       75.334        5.818        0.006      338.343       10.929      868.247
11/07/2014  00:20:00      -91.745      -26.947       -8.409       14.125       15.520        7.139      199.508      240.878       50.970        0.485        0.025       95.620        6.593        0.005      338.248       10.770      868.248
11/07/2014  00:21:00      -53.728      -39.814        4.314       43.654       18.910       13.341     1905.709      357.582      177.984        0.347        0.122       66.872       17.828        0.071      338.219       10.723      868.262
11/07/2014  00:22:00      -30.198      -37.206       -3.070       15.284       13.403       11.817      233.604      179.635      139.639        0.143        0.028       47.919        3.826        0.006      338.627       11.407      868.241
11/07/2014  00:23:00      -22.350        8.016        4.610       14.085        5.854        6.445      198.374       34.272       41.540        0.043        0.014       23.744        5.312        0.050      338.909       11.881      868.219
11/07/2014  00:24:00      -55.941        3.804       -4.974       13.076       15.796        7.096      170.984      249.508       50.354        0.182        0.024       56.071        5.233        0.009      338.670       11.481      868.213
11/07/2014  00:25:00      -15.146      -29.411       -3.093       31.431       16.076       10.875      987.900      258.447      118.268        0.123        0.068       33.082        5.419        0.027      338.325       10.899      868.237
11/07/2014  00:26:00      -37.852      -57.614        0.050       47.718       49.155       24.652     2277.026     2416.232      607.707        0.503        0.265       68.936       31.243        0.205      338.310       10.876      868.282
11/07/2014  00:27:00      -88.320      -95.825       -7.048       38.669       29.721       22.423     1495.264      883.337      502.803        0.996        0.144      130.319       17.472        0.018      338.522       11.231      868.304
11/07/2014  00:28:00      -36.881      -19.124       -2.400       22.501       17.502       13.803      506.277      306.305      190.514        0.137        0.050       41.544        9.245        0.050      338.765       11.638      868.278
11/07/2014  00:29:00      -37.862      -11.399       -9.285       13.851        6.679        6.912      191.854       44.610       47.782        0.097        0.014       39.540        3.603        0.008      338.600       11.359      868.261
11/07/2014  00:30:00      -75.265      -24.838      -11.587       10.122       10.542       10.127      102.464      111.140      102.555        0.337        0.016       79.258        5.169        0.004      338.398       11.023      868.259
11/07/2014  00:31:00      -42.099      -30.446        5.186       38.890       18.010       13.862     1512.462      324.376      192.147        0.238        0.101       51.954       15.673        0.091      338.247       10.769      868.251
11/07/2014  00:32:00      -16.609      -45.507       -3.559       18.603       18.408       11.748      346.076      338.842      138.021        0.159        0.041       48.443       10.881        0.050      338.557       11.289      868.247
11/07/2014  00:33:00      -52.398      -48.967       -4.980       24.636       22.761       17.717      606.947      518.068      313.894        0.330        0.072       71.717       16.102        0.050      338.621       11.397      868.233
11/07/2014  00:34:00      -87.478      -24.292       -8.388       21.166       22.655       14.656      447.985      513.261      214.809        0.474        0.059       90.788       10.452        0.013      338.344       10.930      868.234
11/07/2014  00:35:00      -89.354      -31.379      -10.871       22.377       17.153       13.292      500.736      294.231      176.677        0.503        0.049       94.704       11.060        0.014      338.204       10.696      868.257
11/07/2014  00:36:00      -29.443      -47.641       -8.918       33.668       11.564        9.871     1133.528      133.735       97.445        0.229        0.068       56.005       11.004        0.039      338.281       10.825      868.263
11/07/2014  00:37:00       -0.335      -57.254        6.043       20.433       13.407       10.105      417.526      179.739      102.119        0.201        0.035       57.255        9.796        0.029      338.721       11.566      868.260
11/07/2014  00:38:00      -22.158       -9.589       -1.715       16.606       15.407       12.167      275.770      237.361      148.025        0.062        0.033       24.144        6.423        0.071      338.627       11.407      868.242
11/07/2014  00:39:00      -22.419        0.503       12.399       11.507        9.263        8.025      132.423       85.806       64.404        0.047        0.014       22.425        7.488        0.111      338.550       11.278      868.203
11/07/2014  00:40:00        4.980       20.239        4.004       11.073       11.231       13.523      122.610      126.141      182.872        0.044        0.022       20.843       10.462        0.252      338.425       11.068      868.167
11/07/2014  00:41:00      -11.445        8.346       -0.410       14.309       13.816        8.505      204.756      190.894       72.343        0.033        0.023       14.165        4.696        0.110      338.491       11.177      868.126
11/07/2014  00:42:00      -49.063       -4.053       -9.955        8.059       19.692        5.647       64.953      387.772       31.887        0.150        0.024       49.230        5.889        0.014      338.298       10.854      868.121
11/07/2014  00:43:00      -62.336      -25.371       -7.128       15.615       13.400        6.853      243.823      179.552       46.963        0.253        0.024       67.301        3.111        0.002      338.052       10.440      868.127
11/07/2014  00:44:00      -72.433      -27.443      -16.939        9.493       11.536        6.356       90.123      133.082       40.404        0.328        0.013       77.458        5.853        0.006      338.316       10.884      868.145
11/07/2014  00:45:00      -58.612      -14.474      -10.219        7.189        6.426        6.399       51.684       41.295       40.950        0.194        0.007       60.373        3.232        0.003      338.304       10.865      868.143
11/07/2014  00:46:00      -57.703      -11.528      -10.228        5.965        7.324        3.731       35.582       53.642       13.917        0.184        0.005       58.844        2.079        0.001      338.553       11.283      868.127
11/07/2014  00:47:00      -82.644      -27.570      -10.423       19.518       15.819        8.559      380.945      250.247       73.262        0.420        0.035       87.121        5.320        0.004      338.143       10.595      868.127
11/07/2014  00:48:00     -108.688      -21.072      -13.000       24.108       18.562       13.277      581.215      344.542      176.277        0.676        0.055      110.712        9.095        0.007      337.787        9.995      868.142
11/07/2014  00:49:00      -96.823      -15.425       -7.488       34.918       25.056       19.381     1219.253      627.817      375.638        0.595        0.111       98.044       16.124        0.027      337.828       10.065      868.149
11/07/2014  00:50:00      -75.355      -43.358      -14.584       36.955       19.647       21.418     1365.691      386.006      458.749        0.499        0.111       86.938       14.433        0.028      337.814       10.042      868.150
11/07/2014  00:51:00      -35.033      -10.732        4.531       51.535       25.708       16.378     2655.843      660.879      268.246        0.247        0.179       36.640       22.794        0.387      337.861       10.120      868.140
11/07/2014  00:52:00      -76.086      -28.471      -11.686       21.572       19.936       10.979      465.352      397.463      120.529        0.386        0.049       81.238        8.542        0.011      337.892       10.174      868.125
11/07/2014  00:53:00      -58.686      -25.195       -6.206       11.246       10.344        6.302      126.466      106.991       39.709        0.220        0.014       63.866        3.529        0.003      337.949       10.268      868.114
11/07/2014  00:54:00      -58.261       -9.180       -7.260       18.406       12.483        8.363      338.788      155.814       69.945        0.205        0.028       58.979        9.787        0.028      338.036       10.415      868.097
11/07/2014  00:55:00      -84.475       10.867      -13.866        6.506        8.100        7.401       42.322       65.612       54.769        0.380        0.008       85.171        1.609        0.000      338.008       10.366      868.084
11/07/2014  00:56:00      -75.241       -0.361       -6.382       17.405       12.507       12.225      302.939      156.415      149.451        0.316        0.030       75.241        8.968        0.014      338.104       10.529      868.087
11/07/2014  00:57:00      -66.040       -1.762      -14.695       14.835       16.528       13.827      220.072      273.174      191.197        0.263        0.034       66.064        6.259        0.009      338.126       10.566      868.096
11/07/2014  00:58:00      -51.058       -8.154        7.543       37.837       36.288       27.404     1431.647     1316.796      750.998        0.311        0.175       51.705       24.891        0.232      337.945       10.262      868.100
11/07/2014  00:59:00      -56.958       -5.808       -7.490       28.103       26.474       22.304      789.770      700.863      497.460        0.266        0.099       57.253       16.569        0.084      338.054       10.445      868.095
11/07/2014  01:00:00        4.318      -18.237        5.589       16.884       21.751       11.785      285.078      473.114      138.892        0.064        0.045       18.741       13.521        0.521      338.012       10.375      868.078
11/07/2014  01:01:00       18.921       19.370        6.543       11.322        7.308        7.215      128.179       53.406       52.049        0.050        0.012       27.077        6.900        0.065      338.112       10.541      868.056
11/07/2014  01:02:00        2.887       36.313       -2.026        5.583        8.893        5.108       31.171       79.080       26.094        0.073        0.007       36.428        2.664        0.005      338.506       11.203      868.040
11/07/2014  01:03:00      -18.287       63.438       -7.178        8.457        7.527        6.336       71.526       56.651       40.143        0.229        0.008       66.022        5.201        0.006      338.756       11.624      868.026
11/07/2014  01:04:00      -33.469       40.039       -5.973       20.281       20.328        8.211      411.307      413.211       67.429        0.183        0.045       52.185        7.482        0.021      338.438       11.090      868.019
11/07/2014  01:05:00      -39.787       12.293       -6.752       13.370       12.537        7.603      178.754      157.180       57.802        0.109        0.020       41.642        6.228        0.022      338.297       10.854      868.030
11/07/2014  01:06:00      -53.785        7.009       -5.535       11.184       13.804        7.723      125.074      190.552       59.642        0.167        0.019       54.240        3.655        0.005      338.361       10.960      868.029
11/07/2014  01:07:00      -39.337      -16.682       -7.109        7.242        5.680        3.261       52.446       32.262       10.637        0.099        0.005       42.728        2.527        0.003      337.941       10.255      867.995
11/07/2014  01:08:00       -1.136        9.978        4.046       11.612       10.508        5.100      134.831      110.415       26.009        0.019        0.014       10.042        3.448        0.118      338.425       11.068      867.962
11/07/2014  01:09:00      -12.138      -18.624        4.544       13.379       10.841       10.410      178.991      117.526      108.375        0.046        0.020       22.230        8.671        0.152      338.214       10.713      867.947
11/07/2014  01:10:00      -40.328      -21.394       -8.372       15.600        6.306        6.524      243.364       39.761       42.561        0.124        0.016       45.651        4.332        0.009      337.863       10.123      867.956
11/07/2014  01:11:00      -44.772      -31.661       -8.265        8.992        8.608        5.235       80.849       74.095       27.408        0.163        0.009       54.835        2.047        0.001      337.899       10.186      867.972
11/07/2014  01:12:00      -46.905      -31.555      -11.876       10.134        6.461        7.598      102.691       41.741       57.727        0.177        0.010       56.532        2.261        0.002      337.914       10.209      868.002
11/07/2014  01:13:00      -50.128      -35.520       -9.991       15.513        7.718        5.609      240.653       59.570       31.465        0.210        0.017       61.437        5.934        0.009      338.170       10.639      868.009
11/07/2014  01:14:00      -77.481      -10.000      -17.000        7.679        9.363        7.483       58.965       87.666       56.001        0.330        0.010       78.124        6.134        0.006      337.737        9.913      868.002
11/07/2014  01:15:00      -79.162        0.966      -16.453        9.300        6.913        6.339       86.491       47.790       40.186        0.336        0.009       79.168        4.397        0.003      337.735        9.910      867.956
11/07/2014  01:16:00      -78.387       -1.974      -11.575       12.022       13.843        9.947      144.521      191.625       98.933        0.336        0.022       78.411        3.343        0.002      337.847       10.096      867.908
11/07/2014  01:17:00      -75.666      -27.941      -16.356        8.660       13.291        8.158       74.993      176.661       66.550        0.355        0.016       80.660        4.757        0.003      337.852       10.106      867.894
11/07/2014  01:18:00      -96.351      -28.299      -19.570       25.373       14.649        9.775      643.798      214.581       95.543        0.571        0.048      100.420        4.368        0.002      337.557        9.611      867.895
11/07/2014  01:19:00     -114.823      -28.376      -16.442       22.459       21.566       13.341      504.409      465.077      177.980        0.770        0.057      118.278       12.349        0.011      337.602        9.687      867.903
11/07/2014  01:20:00      -75.155      -39.077      -13.846       20.728       21.924       15.862      429.645      480.681      251.617        0.426        0.058       84.707       11.367        0.018      337.544        9.588      867.915
11/07/2014  01:21:00      -95.813      -16.808      -20.359       24.241       16.013       13.266      587.603      256.421      175.992        0.545        0.051       97.276       11.929        0.015      337.627        9.729      867.905
11/07/2014  01:22:00      -99.760       -0.768      -16.496       21.287       16.765       12.704      453.156      281.061      161.403        0.556        0.045       99.763        9.327        0.009      337.613        9.707      867.883
11/07/2014  01:23:00      -77.590      -12.308       -9.407       20.646       20.324       15.280      426.257      413.072      233.487        0.367        0.054       78.560       12.138        0.024      337.629        9.732      867.847
11/07/2014  01:24:00      -60.812      -16.483       -7.801       17.163       18.287       11.793      294.563      334.407      139.086        0.240        0.038       63.006       11.373        0.033      337.649        9.766      867.843
11/07/2014  01:25:00      -43.934       -3.910       -9.841       29.534       19.648       12.242      872.246      386.038      149.873        0.172        0.070       44.108       11.781        0.071      337.712        9.870      867.853
11/07/2014  01:26:00      -80.644      -44.917       -9.841       30.053       18.013       13.162      903.158      324.453      173.226        0.501        0.070       92.309       14.136        0.023      337.643        9.757      867.880
11/07/2014  01:27:00      -98.931      -37.653      -19.375       18.438       23.609       16.816      339.959      557.372      282.787        0.638        0.059      105.854        7.488        0.005      337.548        9.596      867.915
11/07/2014  01:28:00     -108.854      -31.739      -16.190       18.301       12.575       11.194      334.936      158.125      125.316        0.687        0.031      113.387        9.496        0.007      337.476        9.477      867.921
11/07/2014  01:29:00      -81.509      -17.514      -13.020       21.094       30.173       13.948      444.975      910.413      194.550        0.433        0.077       83.369        7.671        0.008      337.528        9.564      867.890
11/07/2014  01:30:00      -48.487        6.182       -7.404       19.360       19.378       15.507      374.813      375.516      240.465        0.172        0.050       48.880       12.721        0.068      337.636        9.743      867.860
11/07/2014  01:31:00      -65.423       -7.951      -15.080       13.239       12.056       12.740      175.279      145.349      162.316        0.253        0.024       65.905        8.097        0.015      337.692        9.839      867.869
11/07/2014  01:32:00     -102.338       -6.358      -13.155       32.176       25.656       16.191     1035.285      658.217      262.137        0.632        0.098      102.535       13.896        0.018      337.596        9.677      867.889
11/07/2014  01:33:00     -126.625       -9.768      -11.572       44.214       29.336       20.911     1954.852      860.589      437.270        0.976        0.163      127.002       17.824        0.020      337.493        9.504      867.916
11/07/2014  01:34:00      -60.610       11.010       -5.044       36.038       30.588       22.324     1298.753      935.622      498.380        0.328        0.137       61.601       21.849        0.126      337.605        9.692      867.908
11/07/2014  01:35:00      -53.337       37.345      -12.340       29.920       36.487       21.662      895.196     1331.326      469.243        0.354        0.135       65.111       24.115        0.137      338.435       11.084      867.883
11/07/2014  01:36:00      -44.514       76.030       -8.848       28.481       20.683       13.424      811.184      427.786      180.193        0.463        0.071       88.103       15.144        0.030      338.936       11.926      867.869
11/07/2014  01:37:00       -6.903       51.863       -6.517       21.265       14.566       12.194      452.200      212.162      148.683        0.180        0.041       52.320        7.866        0.023      338.812       11.718      867.873
11/07/2014  01:38:00      -76.760      -14.976      -11.943       34.403       15.932       11.154     1183.543      253.831      124.401        0.391        0.078       78.207       12.561        0.026      338.188       10.672      867.893
11/07/2014  01:39:00     -163.246      -14.421      -17.431       39.951       38.224       25.179     1596.108     1461.056      633.967        1.543        0.185      163.882       22.143        0.018      337.507        9.526      867.906
11/07/2014  01:40:00     -114.411       25.079       -9.070       52.503       45.562       33.820     2756.554     2075.875     1143.764        0.989        0.299      117.127       28.928        0.061      337.522        9.552      867.906
11/07/2014  01:41:00      -95.939       39.176       -9.985       59.587       35.132       31.246     3550.667     1234.224      976.338        0.830        0.288      103.630       30.357        0.086      337.836       10.079      867.897
11/07/2014  01:42:00     -107.389        7.137      -17.325       46.885       32.536       22.553     2198.204     1058.576      508.646        0.782        0.188      107.626       20.695        0.037      337.781        9.987      867.903
11/07/2014  01:43:00      -87.096      -19.200       -6.222       31.999       17.843       17.096     1023.918      318.365      292.280        0.481        0.082       89.187       14.365        0.026      337.762        9.956      867.917
11/07/2014  01:44:00      -84.986      -27.152       -9.652       27.981       29.974       24.255      782.953      898.449      588.300        0.516        0.113       89.218       14.616        0.027      337.696        9.844      867.938
11/07/2014  01:45:00     -143.011      -45.481      -12.905       52.981       31.872       20.057     2807.022     1015.831      402.274        1.346        0.211      150.069       15.117        0.010      337.541        9.585      867.961
11/07/2014  01:46:00     -138.600      -10.055       -7.008       53.950       43.719       30.106     2910.626     1911.381      906.344        1.254        0.286      138.965       28.746        0.043      337.481        9.483      867.966
11/07/2014  01:47:00     -177.936        9.970      -23.058       55.674       40.714       27.243     3099.572     1657.626      742.181        1.889        0.275      178.215       16.517        0.009      337.608        9.696      867.941
11/07/2014  01:48:00     -118.138       20.019       -8.751       37.334       42.634       28.714     1393.794     1817.686      824.517        0.923        0.202      119.822       22.619        0.036      337.732        9.904      867.902
11/07/2014  01:49:00     -129.245        9.209      -15.068       39.469       31.497       24.498     1557.783      992.071      600.152        1.008        0.158      129.573       18.365        0.020      337.838       10.083      867.884
11/07/2014  01:50:00     -149.743       13.646      -26.917       63.054       37.511       26.322     3975.779     1407.038      692.842        1.470        0.304      150.364       30.732        0.042      337.804       10.025      867.888
11/07/2014  01:51:00     -217.439        7.977      -33.929       50.886       44.728       29.093     2589.335     2000.558      846.398        2.696        0.272      217.585       22.868        0.011      337.711        9.866      867.907
11/07/2014  01:52:00     -178.603       -4.600      -17.099       40.251       45.416       24.955     1620.183     2062.580      622.753        1.826        0.215      178.662       22.278        0.016      337.750        9.935      867.919
11/07/2014  01:53:00     -154.552        8.171      -15.905       39.792       43.097       23.874     1583.365     1857.368      569.975        1.411        0.201      154.768       19.569        0.016      337.743        9.922      867.910
11/07/2014  01:54:00      -91.495       38.586      -11.568       55.673       31.339       28.643     3099.433      982.146      820.408        0.745        0.245       99.298       29.284        0.087      338.153       10.610      867.877
11/07/2014  01:55:00      -40.487       69.023       -6.143       25.243       38.885       23.586      637.204     1512.049      556.296        0.457        0.135       80.021       21.362        0.071      338.454       11.115      867.827
11/07/2014  01:56:00      -73.950       59.553      -20.822       31.312       39.875       15.859      980.414     1590.003      251.499        0.613        0.141       94.948       12.291        0.017      338.395       11.017      867.800
11/07/2014  01:57:00     -124.009      -32.169      -17.494       30.929       23.440       13.916      956.600      549.439      193.669        0.921        0.085      128.113        6.039        0.002      337.775        9.977      867.808
11/07/2014  01:58:00     -201.709      -38.150      -18.014       49.722       40.427       30.941     2472.300     1634.379      957.360        2.376        0.253      205.285       28.944        0.020      337.754        9.940      867.850
11/07/2014  01:59:00     -189.842      -13.796      -24.639       35.810       33.918       22.840     1282.334     1150.407      521.671        1.990        0.148      190.342       19.683        0.011      337.906       10.196      867.890
11/07/2014  02:00:00     -177.269       48.383      -19.477       39.526       33.421       29.056     1562.267     1116.977      844.243        1.883        0.176      183.753       18.621        0.010      338.076       10.481      867.896
11/07/2014  02:01:00     -199.244       66.441      -10.463       25.762       22.099       15.944      663.676      488.385      254.203        2.281        0.070      210.030        9.435        0.002      338.347       10.936      867.872
11/07/2014  02:02:00     -125.522       43.131      -10.989       40.950       27.610       18.955     1676.889      762.292      359.281        1.027        0.140      132.725       14.341        0.012      338.423       11.064      867.829
11/07/2014  02:03:00      -77.842       16.150      -12.573       22.196       25.960       16.950      492.663      673.936      287.302        0.397        0.073       79.499        8.428        0.011      338.423       11.065      867.813
11/07/2014  02:04:00     -106.725      -19.401      -19.084       20.383       20.882       16.246      415.482      436.045      263.938        0.662        0.056      108.474       12.012        0.012      338.259       10.789      867.806
11/07/2014  02:05:00     -115.200      -20.392      -12.535       60.811       41.990       25.030     3698.001     1763.139      626.493        0.996        0.304      116.991       26.949        0.053      338.069       10.469      867.804
11/07/2014  02:06:00     -212.133       10.157      -25.727       46.646       42.638       28.749     2175.837     1818.030      826.489        2.529        0.241      212.376       21.678        0.010      338.152       10.606      867.815
11/07/2014  02:07:00     -217.645       28.887      -26.486       43.950       40.101       29.558     1931.561     1608.116      873.687        2.666        0.221      219.554       23.803        0.012      338.317       10.882      867.838
11/07/2014  02:08:00     -207.855       32.923      -17.650       29.762       31.078       16.691      885.755      965.845      278.589        2.336        0.107      210.446       12.962        0.004      338.272       10.810      867.858
11/07/2014  02:09:00     -155.673       36.281       -9.060       42.356       35.576       27.007     1794.005     1265.621      729.358        1.471        0.189      159.845       14.884        0.009      338.335       10.918      867.859
11/07/2014  02:10:00     -134.993       45.570      -13.885       51.453       32.614       17.378     2647.452     1063.692      302.005        1.225        0.201      142.477       17.461        0.015      338.425       11.068      867.852
11/07/2014  02:11:00      -97.968       25.890      -12.044       43.163       30.456       26.344     1863.065      927.596      693.986        0.695        0.174      101.332       24.775        0.060      338.431       11.078      867.836
11/07/2014  02:12:00     -120.701       29.547      -13.461       44.453       31.132       23.019     1976.087      969.211      529.852        0.955        0.174      124.265       10.452        0.007      338.452       11.113      867.828
11/07/2014  02:13:00     -197.376       71.191      -18.261       54.746       39.572       30.551     2997.105     1565.976      933.383        2.493        0.275      209.823       28.918        0.019      338.434       11.082      867.849
11/07/2014  02:14:00     -131.712      -21.205       -8.427       53.419       54.048       27.835     2853.640     2921.240      774.792        1.221        0.327      133.408       27.124        0.041      338.340       10.923      867.893
11/07/2014  02:15:00     -217.218        5.618      -26.774       43.509       43.291       26.395     1893.070     1874.107      696.673        2.620        0.223      217.290       20.174        0.009      338.368       10.970      867.942
11/07/2014  02:16:00     -162.701        8.267      -13.830       52.732       31.220       22.958     2780.702      974.659      527.091        1.551        0.214      162.911       21.043        0.017      338.282       10.828      867.979
11/07/2014  02:17:00     -101.171      -23.336      -10.889       29.883       26.569       22.731      892.969      705.918      516.694        0.651        0.106      103.828       21.836        0.044      338.202       10.693      867.976
11/07/2014  02:18:00      -63.182      -17.622       -2.942       35.272       27.649       13.668     1244.149      764.450      186.809        0.325        0.110       65.593       13.078        0.040      338.200       10.689      867.963
11/07/2014  02:19:00      -45.887      -27.077        3.425       31.205       29.709       16.196      973.761      882.600      262.311        0.248        0.106       53.280       17.005        0.102      338.271       10.810      867.948
11/07/2014  02:20:00      -50.887      -45.464        3.050       33.657       26.314       18.051     1132.767      692.417      325.826        0.341        0.108       68.238       21.127        0.096      338.370       10.976      867.929
11/07/2014  02:21:00      -43.664      -43.417        1.163       25.069       18.750       11.008      628.432      351.581      121.171        0.245        0.055       61.576        9.950        0.026      338.485       11.168      867.905
11/07/2014  02:22:00      -36.986      -34.550       -1.762       15.709       10.883       13.287      246.760      118.441      176.538        0.155        0.027       50.613       10.499        0.043      338.509       11.208      867.880
11/07/2014  02:23:00      -54.014      -25.227       -6.655       15.735       18.819       12.533      247.575      354.151      157.076        0.218        0.038       59.615       11.530        0.037      338.548       11.275      867.855
11/07/2014  02:24:00      -69.900      -38.149      -12.403       10.239       15.246        9.030      104.834      232.448       81.534        0.346        0.021       79.633        5.423        0.005      338.575       11.319      867.836
11/07/2014  02:25:00      -67.737      -52.309       -3.141       19.841       13.410       11.939      393.656      179.835      142.545        0.403        0.036       85.583        3.922        0.002      338.411       11.043      867.831
11/07/2014  02:26:00      -23.090      -32.448       11.251       40.899       25.621       25.227     1672.749      656.456      636.410        0.234        0.148       39.825       20.459        0.264      338.233       10.745      867.824
11/07/2014  02:27:00      -47.707      -62.319       -4.986       25.753       38.383       21.959      663.214     1473.217      482.182        0.440        0.131       78.483       13.836        0.031      338.508       11.207      867.813
11/07/2014  02:28:00      -61.398      -48.368      -13.754       30.348       22.688       14.685      920.994      514.740      215.640        0.397        0.083       78.162       10.933        0.020      338.364       10.966      867.795
11/07/2014  02:29:00      -34.761      -30.651        3.258       25.734       15.518       11.240      662.234      240.819      126.343        0.159        0.051       46.345       10.268        0.049      338.404       11.034      867.791
11/07/2014  02:30:00      -74.481      -42.661       -6.275       28.641       20.723       11.114      820.329      429.438      123.522        0.439        0.069       85.834       11.493        0.018      338.209       10.704      867.808
11/07/2014  02:31:00      -86.562      -72.823       -5.138       40.781       28.650       25.630     1663.056      820.824      656.895        0.798        0.157      113.120       23.654        0.044      338.044       10.429      867.832
11/07/2014  02:32:00      -35.673      -27.903        7.250       39.034       35.715       26.090     1523.688     1275.539      680.694        0.279        0.174       45.290       18.345        0.164      337.962       10.289      867.847
11/07/2014  02:33:00      -79.677      -63.262       -1.394       40.608       37.831       25.496     1649.028     1431.198      650.058        0.704        0.187      101.737       23.783        0.055      338.000       10.353      867.845
11/07/2014  02:34:00      -64.030      -65.341       -1.697       38.982       27.878       20.839     1519.624      777.210      434.274        0.555        0.137       91.484       16.919        0.034      338.052       10.441      867.843
11/07/2014  02:35:00      -96.081      -51.536       -3.540       22.100       14.465       11.632      488.411      209.227      135.296        0.637        0.042      109.030        9.550        0.008      338.146       10.598      867.832
11/07/2014  02:36:00      -78.263      -24.039       -6.287       10.778       12.840        8.425      116.161      164.870       70.976        0.355        0.018       81.872        5.471        0.004      338.197       10.684      867.807
11/07/2014  02:37:00      -79.727      -29.946      -11.202       12.565       10.244        6.892      157.879      104.947       47.501        0.384        0.016       85.165        4.334        0.003      338.123       10.560      867.780
11/07/2014  02:38:00      -64.372      -42.202        0.219       10.245       10.780        7.486      104.958      116.212       56.041        0.310        0.014       76.972        3.615        0.002      338.152       10.611      867.767
11/07/2014  02:39:00      -80.268      -43.266       -1.414       21.515       14.740       11.167      462.884      217.259      124.710        0.456        0.040       91.186       10.466        0.013      338.039       10.420      867.768
11/07/2014  02:40:00      -99.710      -33.463       -5.430       17.713       16.887       10.601      313.747      285.158      112.372        0.590        0.036      105.175        6.383        0.004      337.966       10.296      867.775
11/07/2014  02:41:00      -97.575      -28.330       -9.830       27.285       16.589       12.368      744.447      275.187      152.963        0.580        0.059      101.604       13.162        0.017      337.888       10.167      867.771
11/07/2014  02:42:00      -16.248      -16.071       -0.566       19.452       13.245        9.529      378.389      175.422       90.798        0.058        0.032       22.853        6.857        0.090      337.799       10.017      867.769
11/07/2014  02:43:00        8.517      -30.964        5.175        9.764       10.965       10.249       95.330      120.233      105.050        0.069        0.016       32.114        6.478        0.041      338.096       10.516      867.784
11/07/2014  02:44:00      -29.700      -31.543       -0.319       20.010        9.864        9.537      400.387       97.294       90.955        0.123        0.029       43.325        6.603        0.023      338.132       10.576      867.803
11/07/2014  02:45:00      -65.816      -38.920        0.248       34.459       18.201       12.652     1187.448      331.292      160.068        0.376        0.084       76.462        9.010        0.014      337.940       10.253      867.825
11/07/2014  02:46:00      -30.672      -36.936        2.440       26.078       18.463       15.330      680.057      340.884      235.011        0.178        0.063       48.011       12.566        0.069      337.921       10.221      867.838
11/07/2014  02:47:00       11.923      -30.761        6.597       11.533       14.925       13.234      133.008      222.741      175.144        0.083        0.027       32.991        9.149        0.077      337.996       10.347      867.832
11/07/2014  02:48:00       41.477       45.750        4.038       17.124       27.840       19.038      293.248      775.049      362.442        0.263        0.072       61.753       17.810        0.083      337.746        9.927      867.800
11/07/2014  02:49:00       50.976       44.956      -10.294       23.599       34.376       20.563      556.935     1181.701      422.839        0.344        0.108       67.967       17.173        0.064      337.495        9.505      867.775
11/07/2014  02:50:00       69.161       47.835        4.384       31.415       29.426       23.785      986.927      865.905      565.741        0.475        0.121       84.092       15.375        0.033      337.529        9.564      867.771
11/07/2014  02:51:00       57.678       36.585        8.098       29.550       21.539       19.613      873.179      463.923      384.670        0.323        0.086       68.303       16.426        0.058      337.451        9.434      867.785
11/07/2014  02:52:00       46.876       20.183        1.312       26.449       23.998       12.951      699.553      575.904      167.720        0.202        0.072       51.036       10.043        0.039      337.350        9.264      867.823
11/07/2014  02:53:00       21.980        6.864       -4.237        9.302       10.137        6.609       86.527      102.767       43.681        0.039        0.012       23.027        5.251        0.052      337.429        9.396      867.857
11/07/2014  02:54:00        5.700        0.782       -2.412        9.614        2.468        1.983       92.424        6.091        3.932        0.007        0.005        5.754        2.299        0.160      337.760        9.950      867.893
11/07/2014  02:55:00      -31.127      -14.338       -7.249       10.103        9.675        5.160      102.067       93.615       26.624        0.072        0.011       34.271        4.796        0.020      337.776        9.978      867.903
11/07/2014  02:56:00      -42.459       -1.283       -5.422        5.693        8.097        3.996       32.415       65.556       15.965        0.097        0.006       42.478        2.950        0.005      337.671        9.802      867.886
11/07/2014  02:57:00      -43.389        2.663       -6.295        8.963        5.230        3.948       80.327       27.352       15.584        0.103        0.006       43.471        2.379        0.003      337.546        9.595      867.848
11/07/2014  02:58:00       14.006       11.696        1.570       24.312       10.764        7.121      591.080      115.853       50.708        0.055        0.038       18.247       10.175        0.311      337.901       10.188      867.803
11/07/2014  02:59:00       67.362       37.277        9.244       13.434       20.724       13.197      180.476      429.503      174.148        0.340        0.039       76.988        8.529        0.012      337.692        9.837      867.752
11/07/2014  03:00:00      106.435       45.717       13.365       30.128       22.644       19.674      907.709      512.773      387.067        0.770        0.090      115.838       14.589        0.016      337.611        9.700      867.723
11/07/2014  03:01:00       50.097       16.208       27.095       39.050       24.265       26.842     1524.866      588.785      720.471        0.317        0.142       52.654       22.162        0.177      337.452        9.435      867.712
11/07/2014  03:02:00       11.490        0.784       18.796       15.377       26.887       13.884      236.450      722.899      192.777        0.082        0.058       11.516       16.957        2.168      337.493        9.504      867.739
11/07/2014  03:03:00      -42.618      -28.558      -13.371       19.845       11.280        7.720      393.824      127.238       59.606        0.170        0.029       51.301        5.171        0.010      337.660        9.783      867.771
11/07/2014  03:04:00      -80.225      -24.459      -12.692       11.276        7.683        6.640      127.146       59.026       44.088        0.371        0.012       83.870        3.789        0.002      337.522        9.553      867.779
11/07/2014  03:05:00      -82.424      -16.189      -10.792        9.382        7.674        6.374       88.027       58.895       40.623        0.368        0.009       83.998        3.290        0.002      337.451        9.434      867.760
11/07/2014  03:06:00      -41.273        4.306        0.134       13.797        7.297       11.258      190.347       53.239      126.750        0.105        0.019       41.497        9.638        0.054      337.610        9.700      867.726
11/07/2014  03:07:00      -18.056       24.091       -0.876       12.086       11.765        4.463      146.063      138.409       19.917        0.061        0.015       30.107        5.315        0.031      338.413       11.046      867.685
11/07/2014  03:08:00        1.650       44.009       -1.316       14.487       18.550       11.005      209.877      344.092      121.113        0.131        0.034       44.040       10.587        0.058      338.380       10.992      867.650
11/07/2014  03:09:00       12.228       14.156       -3.035       12.263       11.326        6.636      150.374      128.286       44.031        0.034        0.016       18.706        4.728        0.064      338.523       11.231      867.603
11/07/2014  03:10:00       19.899      -11.639       -1.306       12.082       10.618       10.611      145.972      112.745      112.600        0.045        0.019       23.053        9.297        0.163      338.165       10.630      867.571
11/07/2014  03:11:00       23.663      -44.128       -4.085       21.060       21.099       10.862      443.522      445.188      117.987        0.177        0.050       50.073        9.628        0.037      337.745        9.926      867.552
11/07/2014  03:12:00      -33.693      -36.799       -8.693       42.324       20.510        9.679     1791.290      420.680       93.676        0.243        0.115       49.894        8.408        0.028      337.941       10.256      867.560
11/07/2014  03:13:00     -121.119      -39.117      -13.567       25.826       20.809        8.265      666.990      433.007       68.316        0.878        0.058      127.279        6.603        0.003      337.522        9.552      867.593
11/07/2014  03:14:00     -147.508      -43.308      -14.875       11.907       21.758       12.715      141.765      473.426      161.683        1.232        0.039      153.734        6.796        0.002      337.385        9.323      867.638
11/07/2014  03:15:00     -109.615      -54.634       -2.760       43.650       29.992       27.302     1905.282      899.519      745.373        0.928        0.178      122.476       25.301        0.043      337.415        9.373      867.665
11/07/2014  03:16:00      -78.673      -63.160        2.228       37.229       26.477       20.582     1385.992      701.058      423.632        0.635        0.126      100.890       19.380        0.037      337.623        9.723      867.672
11/07/2014  03:17:00      -31.896      -29.674        5.424       24.548       16.223       15.425      602.616      263.190      237.924        0.152        0.055       43.565       15.396        0.125      337.583        9.657      867.651
11/07/2014  03:18:00      -75.261      -30.082       -5.406       22.499       15.755        8.708      506.201      248.219       75.827        0.371        0.042       81.050        9.110        0.013      337.609        9.698      867.637
11/07/2014  03:19:00     -104.735      -42.297      -10.732        9.470        9.920        8.866       89.675       98.405       78.603        0.657        0.013      112.953        2.754        0.001      337.539        9.579      867.622
11/07/2014  03:20:00      -81.920      -42.663        0.098       32.725       23.360       17.158     1070.899      545.679      294.392        0.522        0.096       92.364       14.513        0.025      337.490        9.498      867.613
11/07/2014  03:21:00      -39.912      -55.691        4.660       30.861       27.449       17.301      952.399      753.474      299.308        0.336        0.100       68.516       13.270        0.038      337.572        9.637      867.595
11/07/2014  03:22:00      -25.984      -44.611        5.585       36.916       32.623       22.829     1362.814     1064.250      521.186        0.282        0.147       51.626       13.593        0.069      337.713        9.872      867.560
11/07/2014  03:23:00      -29.137      -14.795      -14.050       15.461       26.577       15.002      239.049      706.321      225.072        0.122        0.059       32.678       15.654        0.229      337.761        9.954      867.549
11/07/2014  03:24:00      -61.178       -6.844       -3.974       18.252       11.085        8.316      333.122      122.875       69.155        0.217        0.026       61.559        5.697        0.009      337.856       10.113      867.562
11/07/2014  03:25:00      -71.124      -23.387       -7.860       22.721       13.393       12.866      516.249      179.367      165.535        0.326        0.043       74.871       13.743        0.034      337.607        9.697      867.589
11/07/2014  03:26:00     -121.539      -21.013      -12.589       20.942       18.653       12.613      438.574      347.941      159.098        0.816        0.047      123.342        8.210        0.004      337.514        9.539      867.623
11/07/2014  03:27:00     -118.419      -50.264      -16.561       29.503       26.363       19.423      870.427      695.033      377.261        0.938        0.097      128.645        8.226        0.004      337.386        9.326      867.653
11/07/2014  03:28:00      -98.903      -70.338      -12.867       35.141       24.626       22.577     1234.895      606.431      509.732        0.862        0.118      121.364       21.378        0.031      337.331        9.234      867.672
11/07/2014  03:29:00     -122.939      -64.442      -10.379       45.360       27.474       14.437     2057.506      754.801      208.416        1.120        0.151      138.805        6.977        0.003      337.361        9.283      867.678
11/07/2014  03:30:00      -98.780      -63.886       -0.513       41.585       37.286       28.332     1729.349     1390.244      802.719        0.888        0.196      117.639       18.845        0.026      337.394        9.338      867.680
11/07/2014  03:31:00     -133.841      -61.938       -7.936       27.284       27.972       17.770      744.396      782.459      315.776        1.183        0.092      147.478       10.610        0.005      337.305        9.189      867.686
11/07/2014  03:32:00      -98.632      -25.275       -4.395       33.839       18.269       14.060     1145.077      333.772      197.674        0.603        0.084      101.819       16.856        0.027      337.279        9.146      867.679
11/07/2014  03:33:00      -76.826      -26.767       -3.591       21.631       19.060       13.250      467.893      363.296      175.569        0.382        0.050       81.355       11.121        0.019      337.309        9.195      867.672
11/07/2014  03:34:00      -66.520      -29.321       -9.633       25.441       26.386       15.313      647.221      696.225      234.498        0.348        0.079       72.695       13.334        0.034      337.439        9.412      867.666
11/07/2014  03:35:00      -62.467      -46.874        1.167       34.692       27.555       18.624     1203.500      759.272      346.837        0.420        0.115       78.098       21.650        0.077      337.525        9.557      867.676
11/07/2014  03:36:00     -121.415      -50.311      -11.332       32.711       26.385       15.137     1070.009      696.184      229.129        0.970        0.100      131.426        6.782        0.003      337.249        9.096      867.700
11/07/2014  03:37:00      -82.477      -54.993      -11.455       44.663       20.948       19.732     1994.798      438.817      389.371        0.639        0.141       99.130       23.206        0.055      337.257        9.110      867.720
11/07/2014  03:38:00      -45.665      -38.791       -3.319       45.141       26.886       17.266     2037.753      722.849      298.102        0.333        0.153       59.917        8.470        0.020      337.306        9.192      867.734
11/07/2014  03:39:00     -102.549      -50.852        0.968       33.966       36.039       15.158     1153.710     1298.811      229.768        0.789        0.134      114.465        6.259        0.003      337.358        9.278      867.754
11/07/2014  03:40:00     -105.907        8.037      -12.532       11.208       17.536       10.353      125.630      307.496      107.188        0.599        0.027      106.212        8.135        0.006      337.174        8.971      867.769
11/07/2014  03:41:00      -80.485        7.564      -12.560       12.834       11.369        7.885      164.711      129.256       62.171        0.352        0.018       80.840        6.222        0.006      337.227        9.058      867.760
11/07/2014  03:42:00      -68.030       13.945      -10.064       10.312        6.973        5.917      106.346       48.620       35.014        0.256        0.009       69.444        2.879        0.002      337.676        9.813      867.745
11/07/2014  03:43:00      -50.442       31.758      -12.034       11.154       19.773        8.313      124.410      390.981       69.101        0.214        0.029       59.607        8.845        0.022      337.802       10.022      867.746
11/07/2014  03:44:00      -45.995       27.914      -10.290        7.495        8.074        5.820       56.174       65.194       33.870        0.158        0.008       53.803        4.890        0.008      337.982       10.324      867.745
11/07/2014  03:45:00      -33.866       35.361       -7.146        7.579        9.983        5.505       57.443       99.665       30.303        0.132        0.009       48.963        3.225        0.004      337.763        9.957      867.761
11/07/2014  03:46:00      -16.592       -4.024       -2.093       10.161       15.627        6.714      103.245      244.212       45.074        0.034        0.020       17.073        7.466        0.191      337.599        9.682      867.779
11/07/2014  03:47:00      -40.060      -30.726       -3.115       24.915       12.313       11.065      620.774      151.605      122.444        0.173        0.045       50.487        8.755        0.030      337.335        9.240      867.812
11/07/2014  03:48:00      -82.926      -44.207      -10.205       14.356       16.730        8.947      206.087      279.878       80.055        0.475        0.028       93.973        5.532        0.003      337.108        8.859      867.832
11/07/2014  03:49:00      -53.665      -37.301       -8.286       14.630       10.645        9.730      214.026      113.311       94.681        0.238        0.021       65.355        7.971        0.015      337.022        8.715      867.858
11/07/2014  03:50:00      -37.732      -36.757       -1.537       20.915       13.773        9.537      437.433      189.695       90.952        0.175        0.036       52.676        5.454        0.011      337.222        9.050      867.874
11/07/2014  03:51:00      -34.595       -3.850       -8.250        7.333        7.193        3.584       53.772       51.738       12.843        0.070        0.006       34.809        3.576        0.011      337.361        9.281      867.893
11/07/2014  03:52:00      -41.381      -13.416       -7.980        7.541        5.310        4.171       56.861       28.197       17.401        0.103        0.005       43.502        3.664        0.007      337.553        9.604      867.923
11/07/2014  03:53:00      -40.148       -6.670       -3.987       15.700       10.235        6.247      246.493      104.765       39.030        0.103        0.020       40.698        4.268        0.011      337.327        9.228      867.954
11/07/2014  03:54:00        2.956      -25.929       -1.772       10.566       11.217        7.814      111.631      125.819       61.066        0.049        0.015       26.097        6.176        0.056      337.416        9.376      867.965
11/07/2014  03:55:00        6.526      -49.236       -7.423       19.170       10.633        9.997      367.473      113.059       99.948        0.155        0.029       49.667        7.920        0.025      337.462        9.452      867.944
11/07/2014  03:56:00      -10.922      -21.547        2.691       21.401       17.790       11.849      458.007      316.473      140.401        0.075        0.046       24.157       14.196        0.345      337.233        9.069      867.935
11/07/2014  03:57:00      -25.036       -9.681        3.909       30.241       20.551       14.069      914.509      422.343      197.930        0.113        0.077       26.843       17.764        0.438      337.015        8.703      867.928
11/07/2014  03:58:00      -58.926       12.378      -11.951       13.616       19.875        7.520      185.396      395.021       56.554        0.220        0.032       60.212        7.391        0.015      336.961        8.613      867.929
11/07/2014  03:59:00       10.273      -24.904       -1.534       19.147       15.649        6.962      366.610      244.887       48.466        0.069        0.033       26.939       11.106        0.170      337.625        9.726      867.915
11/07/2014  04:00:00      -17.590      -24.500       -5.212       32.071        9.252        6.256     1028.568       85.605       39.137        0.104        0.058       30.161        8.566        0.081      337.546        9.593      867.915
11/07/2014  04:01:00      -45.373       -3.605       -5.618       11.124        8.692        5.547      123.739       75.551       30.764        0.117        0.012       45.516        3.032        0.004      337.013        8.698      867.935
11/07/2014  04:02:00      -34.935       -4.408       -3.038        8.089       10.667        5.979       65.427      113.787       35.743        0.073        0.011       35.212        4.403        0.016      336.999        8.676      867.970
11/07/2014  04:03:00      -51.812        0.400       -3.738       14.254       12.990        6.605      203.175      168.742       43.621        0.156        0.021       51.813        6.046        0.014      337.053        8.767      868.001
11/07/2014  04:04:00      -71.097       -5.381       -6.735       10.596       10.529        9.551      112.279      110.860       91.224        0.272        0.016       71.300        5.107        0.005      337.065        8.786      868.036
11/07/2014  04:05:00      -88.455      -26.390       -9.632       14.706       18.278        9.078      216.268      334.083       82.419        0.462        0.032       92.308        8.294        0.008      336.913        8.534      868.055
11/07/2014  04:06:00     -120.668      -42.336      -10.743       17.977       19.216       15.323      323.179      369.253      234.794        0.870        0.046      127.879       10.546        0.007      336.826        8.390      868.072
11/07/2014  04:07:00      -84.656      -39.845       -2.581       21.152       27.107       12.539      447.391      734.774      157.234        0.505        0.067       93.565        7.388        0.006      336.616        8.038      868.086
11/07/2014  04:08:00      -73.211      -22.711       -3.341       21.839       26.212       14.447      476.952      687.062      208.720        0.363        0.069       76.652        8.698        0.013      336.555        7.936      868.102
11/07/2014  04:09:00      -60.005      -34.577       -4.768       30.235       24.757       15.981      914.142      612.914      255.386        0.330        0.089       69.254        7.420        0.011      336.639        8.076      868.114
11/07/2014  04:10:00      -26.878      -31.539       -2.162       23.858       18.219       17.581      569.186      331.920      309.089        0.147        0.061       41.439       16.199        0.153      336.682        8.150      868.135
11/07/2014  04:11:00      -42.843      -33.840       -1.121       36.697       24.072       18.512     1346.661      579.469      342.708        0.262        0.113       54.596       21.576        0.156      336.676        8.140      868.146
11/07/2014  04:12:00      -47.656      -28.866       -0.762       19.212       14.275       14.290      369.101      203.770      204.214        0.194        0.039       55.717       11.738        0.044      336.764        8.285      868.138
11/07/2014  04:13:00      -59.882      -10.006       -4.453       10.264       10.002        7.286      105.340      100.040       53.089        0.198        0.013       60.712        4.746        0.006      337.092        8.832      868.133
11/07/2014  04:14:00      -10.849      -23.990       -6.563       11.377        6.670        6.671      129.436       44.489       44.501        0.048        0.011       26.329        2.859        0.012      336.924        8.550      868.138
11/07/2014  04:15:00      -17.158      -35.053       -7.323       10.122       12.294        8.059      102.448      151.153       64.953        0.095        0.016       39.028        6.793        0.030      337.474        9.473      868.139
11/07/2014  04:16:00      -14.645      -51.731       -7.143       12.134       14.154       10.260      147.233      200.349      105.273        0.170        0.023       53.764        7.650        0.020      337.280        9.146      868.158
11/07/2014  04:17:00      -37.103      -30.213       -7.626       15.783       10.603        7.006      249.115      112.422       49.078        0.138        0.021       47.848        4.871        0.010      336.971        8.630      868.180
11/07/2014  04:18:00      -44.242      -13.994       -9.232       12.357       10.132        8.217      152.690      102.661       67.514        0.128        0.016       46.403        3.447        0.006      336.740        8.247      868.206
11/07/2014  04:19:00      -72.218      -22.765      -12.505       14.380       14.877       10.568      206.797      221.313      111.685        0.321        0.027       75.721        8.686        0.013      336.724        8.220      868.222
11/07/2014  04:20:00      -54.887      -13.106       -6.063       17.196       15.932        6.474      295.719      253.833       41.908        0.191        0.030       56.430        6.111        0.012      336.641        8.081      868.238
11/07/2014  04:21:00      -57.909      -21.412        2.951       30.887       28.027       15.006      954.033      785.521      225.184        0.289        0.098       61.741       13.853        0.050      336.545        7.920      868.258
11/07/2014  04:22:00      -24.462      -20.453       -3.283       13.711       14.644        9.650      188.004      214.454       93.125        0.076        0.025       31.886        4.370        0.019      336.697        8.171      868.261
11/07/2014  04:23:00      -64.811      -26.374        0.112       12.216       11.745        8.974      149.231      137.955       80.525        0.263        0.018       69.971        6.295        0.008      336.815        8.371      868.247
11/07/2014  04:24:00      -82.206      -34.794        0.667       16.250       11.297        8.773      264.071      127.628       76.971        0.422        0.023       89.266        7.560        0.007      336.728        8.227      868.242
11/07/2014  04:25:00      -94.084      -29.164       -5.779       14.244       10.242        8.371      202.879      104.893       70.076        0.506        0.019       98.501        4.079        0.002      336.704        8.186      868.259
11/07/2014  04:26:00      -60.668      -45.030       -4.285       29.568       18.746       14.866      874.254      351.398      221.010        0.359        0.072       75.553        7.016        0.009      336.611        8.030      868.274
11/07/2014  04:27:00      -61.206      -60.338        5.569       34.618       33.164       17.916     1198.374     1099.840      320.971        0.502        0.131       85.946       17.506        0.041      336.478        7.807      868.293
11/07/2014  04:28:00      -55.418      -70.479        2.034       27.954       32.636       17.027      781.443     1065.125      289.919        0.509        0.107       89.657       13.081        0.021      336.572        7.964      868.301
11/07/2014  04:29:00      -69.762      -84.453       -6.880       34.990       29.257       19.937     1224.310      855.988      397.486        0.726        0.124      109.540       19.055        0.030      336.817        8.374      868.297
11/07/2014  04:30:00      -48.578      -64.165        7.137       38.256       42.052       25.559     1463.548     1768.334      653.265        0.521        0.194       80.480       22.151        0.076      336.711        8.197      868.299
11/07/2014  04:31:00      -12.161       -4.167       11.277       17.398       17.140       17.553      302.701      293.770      308.104        0.060        0.045       12.855       13.205        1.055      336.561        7.948      868.319
11/07/2014  04:32:00      -22.901      -20.043        3.871       20.760       14.388       11.188      430.962      207.003      125.168        0.085        0.038       30.433        9.259        0.093      336.552        7.932      868.367
11/07/2014  04:33:00      -21.746      -15.311        0.822       20.353       12.506        8.414      414.255      156.390       70.800        0.067        0.032       26.596        9.185        0.119      336.579        7.977      868.398
11/07/2014  04:34:00      -26.336      -17.159        6.181       21.336       17.451       12.482      455.213      304.526      155.800        0.097        0.046       31.432       11.925        0.144      336.628        8.059      868.415
11/07/2014  04:35:00        4.523       -6.906       10.862       12.387       17.735        9.494      153.440      314.516       90.133        0.037        0.028        8.256        9.665        1.370      336.630        8.062      868.413
11/07/2014  04:36:00       39.436       16.208       -1.962        8.821        8.378        8.753       77.818       70.192       76.612        0.102        0.011       42.637        3.693        0.008      336.677        8.140      868.418
11/07/2014  04:37:00       11.931       21.825        1.696       22.191        6.792        6.725      492.458       46.125       45.221        0.060        0.029       24.873        5.319        0.046      336.694        8.170      868.437
11/07/2014  04:38:00      -39.845       -1.826       -7.124       19.658       12.648        7.002      386.446      159.984       49.031        0.112        0.030       39.886        1.775        0.002      336.767        8.291      868.471
11/07/2014  04:39:00      -83.123       13.787      -10.938        7.513       18.155        7.210       56.448      329.609       51.977        0.383        0.022       84.258        6.139        0.005      336.509        7.859      868.490
11/07/2014  04:40:00      -83.167       17.553       -6.917       13.974        9.936        6.785      195.268       98.721       46.038        0.381        0.017       84.999        3.324        0.002      336.404        7.682      868.496
11/07/2014  04:41:00      -48.750       15.864       -7.688       15.297       11.420        9.000      234.005      130.427       81.006        0.157        0.022       51.267        6.999        0.019      336.401        7.679      868.504
11/07/2014  04:42:00      -56.637        5.369       -7.709        6.535       14.772        6.072       42.700      218.221       36.872        0.180        0.015       56.891        4.126        0.005      336.604        8.017      868.506
11/07/2014  04:43:00      -87.907      -48.815       -5.784       30.159       12.422        7.574      909.560      154.302       57.359        0.563        0.056      100.551        4.501        0.002      336.297        7.504      868.535
11/07/2014  04:44:00     -150.225      -44.165      -14.123       27.519       31.305       22.537      757.316      979.975      507.907        1.348        0.112      156.583       15.637        0.010      335.909        6.856      868.574
11/07/2014  04:45:00     -116.732        4.517       -6.026       36.037       25.801       22.687     1298.633      665.684      514.712        0.808        0.124      116.820       17.981        0.024      335.887        6.820      868.586
11/07/2014  04:46:00      -62.521       -1.637       -4.720       36.901       25.768       14.948     1361.685      663.975      223.428        0.309        0.112       62.543       17.054        0.074      336.085        7.149      868.561
11/07/2014  04:47:00      -63.398       39.407      -10.936       21.429       18.125        9.217      459.216      328.519       84.960        0.328        0.044       74.647        8.598        0.013      336.831        8.397      868.543
11/07/2014  04:48:00      -95.770      -17.538      -14.783       16.418       20.751       10.892      269.550      430.617      118.628        0.526        0.041       97.363       10.119        0.011      336.417        7.706      868.569
11/07/2014  04:49:00      -94.722      -40.802       -3.098       32.690       24.221       20.227     1068.639      586.664      409.146        0.636        0.103      103.136       16.069        0.024      336.062        7.111      868.601
11/07/2014  04:50:00      -30.569        3.560       -1.308       40.198       24.182       21.193     1615.892      584.786      449.141        0.180        0.132       30.776       25.706        0.698      336.338        7.571      868.604
11/07/2014  04:51:00      -34.425       -0.860       -7.053       15.561       13.023        6.557      242.153      169.590       42.994        0.085        0.023       34.436        6.619        0.037      336.643        8.081      868.608
11/07/2014  04:52:00     -105.913      -37.215      -17.036       31.264       16.733       11.344      977.423      280.009      128.690        0.714        0.069      112.261        7.039        0.004      336.458        7.771      868.629
11/07/2014  04:53:00     -128.693      -62.415      -16.192       34.102       26.724       21.216     1162.941      714.189      450.115        1.152        0.116      143.030        9.693        0.005      336.271        7.459      868.651
11/07/2014  04:54:00     -119.421      -70.308      -20.268       33.094       28.448       20.604     1095.205      809.273      424.525        1.097        0.116      138.580       13.398        0.009      336.166        7.284      868.655
11/07/2014  04:55:00     -100.070      -23.344      -12.018       29.408       41.440       23.536      864.817     1717.250      553.924        0.692        0.157      102.756       18.227        0.031      336.245        7.417      868.655
11/07/2014  04:56:00     -127.573       15.950      -15.674       33.692       33.662       24.301     1135.147     1133.133      590.535        0.982        0.143      128.566       18.732        0.021      336.508        7.857      868.644
11/07/2014  04:57:00     -104.740       -3.722      -18.607       33.474       35.645       21.445     1120.542     1270.561      459.875        0.709        0.143      104.806       15.630        0.022      336.598        8.008      868.614
11/07/2014  04:58:00     -114.294       -8.064      -10.658       48.198       33.667       22.949     2323.047     1133.470      526.638        0.861        0.199      114.578       22.461        0.038      336.425        7.718      868.599
11/07/2014  04:59:00     -102.348      -13.133       -9.416       33.814       31.573       22.031     1143.368      996.842      485.367        0.668        0.131      103.187       19.512        0.036      336.386        7.654      868.606
11/07/2014  05:00:00      -88.199      -22.580      -12.291       22.234       23.893       15.327      494.363      570.882      234.905        0.487        0.065       91.044       10.728        0.014      336.450        7.760      868.614
11/07/2014  05:01:00      -58.083       -9.909       -5.266       27.079       22.475       15.046      733.248      505.106      226.368        0.248        0.073       58.922       14.516        0.061      336.500        7.844      868.619
11/07/2014  05:02:00      -37.065       -5.566       -7.139       18.856       14.769       14.621      355.546      218.116      213.774        0.112        0.039       37.481       10.559        0.079      336.490        7.827      868.648
11/07/2014  05:03:00        2.290       -4.922        4.718       27.110        9.300        8.429      734.946       86.484       71.044        0.047        0.045        5.429       11.328        4.354      336.504        7.850      868.684
11/07/2014  05:04:00       27.779       28.054       -0.649       17.855       19.122       11.424      318.813      365.668      130.512        0.119        0.041       39.481       11.562        0.086      336.790        8.327      868.700
11/07/2014  05:05:00        6.027       39.783       -6.404       17.199       15.707       11.459      295.812      246.701      131.317        0.117        0.034       40.237        8.207        0.042      336.623        8.052      868.704
11/07/2014  05:06:00      -18.179       16.887      -13.576       16.142       18.290        7.399      260.567      334.536       54.741        0.072        0.032       24.812        4.700        0.036      336.854        8.436      868.703
11/07/2014  05:07:00      -30.781      -19.150      -12.561        9.293        9.523       12.466       86.352       90.688      155.392        0.090        0.017       36.252        9.033        0.062      336.909        8.527      868.706
11/07/2014  05:08:00      -26.213      -22.826        0.365        8.017        5.614        3.016       64.265       31.512        9.098        0.066        0.005       34.758        2.521        0.005      336.791        8.330      868.712
11/07/2014  05:09:00       20.373        0.045        1.823       30.158       14.400        7.768      909.493      207.358       60.341        0.080        0.059       20.373        3.897        0.037      336.770        8.295      868.714
11/07/2014  05:10:00       41.164       29.780        7.946       11.529       13.785        9.207      132.929      190.014       84.760        0.153        0.020       50.807        7.775        0.023      336.802        8.349      868.747
11/07/2014  05:11:00       -3.502      -28.653        2.276       11.962       19.785       10.511      143.085      391.456      110.479        0.074        0.032       28.866        9.126        0.100      336.740        8.246      868.783
11/07/2014  05:12:00      -19.344      -28.621       -4.338       17.883       14.924       10.811      319.802      222.722      116.887        0.094        0.033       34.545        3.368        0.010      336.963        8.615      868.815
11/07/2014  05:13:00       -5.958       -1.212        2.558       17.773       14.993        8.717      315.893      224.793       75.994        0.033        0.031        6.080        9.169        2.274      336.754        8.269      868.813
11/07/2014  05:14:00       25.118       34.081       -3.172       25.484        8.304       12.944      649.420       68.948      167.554        0.134        0.044       42.337       12.382        0.086      336.622        8.049      868.815
11/07/2014  05:15:00      -54.713      -13.638      -12.054       31.574       17.290        8.005      996.901      298.934       64.087        0.234        0.068       56.387        8.449        0.022      336.639        8.076      868.793
11/07/2014  05:16:00     -102.961      -43.884      -11.958        7.815       13.381        7.605       61.068      179.052       57.838        0.648        0.015      111.923        5.896        0.003      336.426        7.720      868.771
11/07/2014  05:17:00      -83.536      -27.025      -10.169       10.821       13.581        8.540      117.085      184.456       72.938        0.409        0.019       87.799        4.332        0.002      336.300        7.508      868.768
11/07/2014  05:18:00      -94.771      -22.079      -18.163        8.010        8.397        6.161       64.161       70.501       37.953        0.499        0.009       97.309        3.912        0.002      336.535        7.902      868.769
11/07/2014  05:19:00     -105.966      -21.990      -16.852        9.169        7.527        7.491       84.067       56.654       56.116        0.610        0.010      108.224        3.453        0.001      336.573        7.967      868.755
11/07/2014  05:20:00     -135.920      -35.915      -14.492       15.567       22.541       12.214      242.334      508.083      149.190        1.044        0.045      140.585        7.886        0.003      336.555        7.937      868.739
11/07/2014  05:21:00     -166.847      -67.708       -9.562       12.814       15.791        8.951      164.189      249.367       80.122        1.650        0.025      180.062        5.326        0.001      336.517        7.872      868.708
11/07/2014  05:22:00     -142.905      -48.665       -3.667       39.245       21.225       11.660     1540.172      450.494      135.948        1.246        0.106      150.964        9.137        0.004      336.285        7.483      868.685
11/07/2014  05:23:00      -87.156      -39.337        0.336       27.241       24.160       17.966      742.093      583.698      322.781        0.540        0.082       95.622       10.600        0.012      336.235        7.401      868.690
11/07/2014  05:24:00      -82.428      -36.833        0.704       41.029       28.850       17.431     1683.339      832.325      303.826        0.548        0.141       90.283       16.261        0.032      336.390        7.659      868.712
11/07/2014  05:25:00      -45.405      -41.906        9.516       57.023       36.083       20.697     3251.606     1301.953      428.351        0.444        0.249       61.788       27.761        0.202      336.481        7.812      868.716
11/07/2014  05:26:00      -93.770     -100.531        0.398       46.204       30.905       24.490     2134.834      955.143      599.770        1.129        0.184      137.474       22.526        0.027      336.566        7.955      868.716
11/07/2014  05:27:00     -121.686     -112.032       -7.902       40.893       38.094       27.693     1672.216     1451.181      766.910        1.565        0.195      165.404       25.309        0.023      336.582        7.981      868.711
11/07/2014  05:28:00     -156.339     -110.328       -6.494       51.464       39.835       28.834     2648.546     1586.824      831.371        2.086        0.253      191.349       24.422        0.016      336.465        7.784      868.715
11/07/2014  05:29:00     -152.419     -105.780       -3.277       35.112       33.539       21.315     1232.852     1124.875      454.315        1.862        0.141      185.529       16.847        0.008      336.374        7.631      868.739
11/07/2014  05:30:00     -180.291      -49.796       -5.531       43.223       38.770       23.402     1868.201     1503.107      547.644        1.947        0.196      187.041       22.273        0.014      336.492        7.829      868.748
11/07/2014  05:31:00     -191.506      -54.423       -7.737       49.892       54.593       31.040     2489.224     2980.397      963.503        2.306        0.322      199.089       21.711        0.012      336.457        7.768      868.751
11/07/2014  05:32:00     -151.853      -19.251       -2.625       71.337       48.647       40.410     5088.914     2366.510     1632.933        1.626        0.454      153.068       40.956        0.072      336.325        7.550      868.750
11/07/2014  05:33:00     -233.480      -12.553      -16.107       63.910       45.311       36.818     4084.529     2053.082     1355.570        3.121        0.375      233.817       37.567        0.026      336.349        7.585      868.747
11/07/2014  05:34:00     -167.815      -67.464        3.336       89.880       54.266       37.839     8078.384     2944.769     1431.791        2.259        0.623      180.868       37.184        0.042      336.405        7.682      868.718
11/07/2014  05:35:00     -177.347      -79.664       -1.115       59.307       44.027       24.919     3517.333     1938.341      620.962        2.194        0.304      194.418       24.761        0.016      336.420        7.709      868.692
11/07/2014  05:36:00     -129.267      -31.911       -4.923       62.158       47.064       27.135     3863.610     2214.986      736.323        1.228        0.341      133.147       29.711        0.050      336.331        7.561      868.684
11/07/2014  05:37:00     -101.138      -23.517       -0.412       43.558       35.041       25.836     1897.283     1227.883      667.499        0.729        0.190      103.836       22.322        0.046      336.135        7.234      868.694
11/07/2014  05:38:00      -64.869      -27.906        0.344       42.905       26.839       18.267     1840.871      720.330      333.701        0.394        0.145       70.617       14.301        0.041      336.088        7.154      868.697
11/07/2014  05:39:00      -32.193       -7.961       -9.864       36.607       18.759       16.123     1340.072      351.899      259.966        0.157        0.098       33.163       11.070        0.111      336.480        7.811      868.707
11/07/2014  05:40:00       -7.388      -20.604       -0.727       10.482       22.017       19.828      109.869      484.751      393.157        0.073        0.049       21.889        4.276        0.038      336.643        8.085      868.750
11/07/2014  05:41:00       23.559      -56.843       -5.039       42.522       42.768       35.454     1808.129     1829.108     1257.010        0.435        0.245       61.531       31.341        0.259      336.574        7.967      868.774
11/07/2014  05:42:00       22.866       -4.133       16.968       32.476       28.595       33.650     1054.676      817.660     1132.345        0.192        0.150       23.237       14.726        0.402      336.429        7.725      868.782
11/07/2014  05:43:00       20.582      -24.477        4.359       26.827       24.804       24.315      719.699      615.236      591.221        0.148        0.096       31.981       16.398        0.263      336.572        7.964      868.797
11/07/2014  05:44:00       22.857      -27.896        2.447       34.734       40.107       31.157     1206.423     1608.608      970.763        0.255        0.189       36.065       25.124        0.485      336.454        7.767      868.812
11/07/2014  05:45:00       -6.989      -40.474       -4.820       41.040       28.109       27.467     1684.257      790.112      754.421        0.247        0.161       41.073       17.029        0.172      336.424        7.716      868.815
11/07/2014  05:46:00      -53.068      -14.580        9.147       29.098       22.876       18.200      846.699      523.297      331.223        0.241        0.085       55.034       19.499        0.126      336.376        7.637      868.810
11/07/2014  05:47:00      -72.093      -25.196        4.000       26.655       20.236       15.435      710.493      409.480      238.248        0.360        0.068       76.369       10.153        0.018      336.438        7.740      868.800
11/07/2014  05:48:00      -82.155      -19.347       -7.615       27.062       16.236       11.584      732.350      263.595      134.200        0.416        0.057       84.402       12.048        0.020      336.541        7.912      868.799
11/07/2014  05:49:00      -69.021      -45.386      -12.538       20.007       18.744        9.566      400.274      351.350       91.517        0.391        0.042       82.606        6.915        0.007      336.569        7.959      868.806
11/07/2014  05:50:00      -55.692      -66.270       -6.582       22.154       16.902       13.301      490.789      285.681      176.916        0.424        0.048       86.564        9.540        0.012      336.636        8.071      868.798
11/07/2014  05:51:00       -9.753      -36.898        7.258       28.790       22.092       20.328      828.838      488.070      413.215        0.162        0.087       38.165       11.801        0.096      336.834        8.403      868.802
11/07/2014  05:52:00       13.820        4.855       24.158       31.688       28.200       26.053     1004.104      795.245      678.763        0.164        0.124       14.648       18.669        1.624      336.515        7.869      868.822
11/07/2014  05:53:00       19.965      -25.984       14.421       25.117       36.280       27.150      630.843     1316.232      737.099        0.198        0.134       32.768       22.721        0.481      336.467        7.789      868.838
11/07/2014  05:54:00        5.454      -36.348        7.692       18.776       23.771       22.317      352.529      565.083      498.060        0.141        0.071       36.755       14.093        0.147      336.612        8.031      868.855
11/07/2014  05:55:00       -3.998       11.834       14.950        8.463       16.022        6.905       71.618      256.714       47.681        0.038        0.019       12.491        4.966        0.158      336.353        7.598      868.861
11/07/2014  05:56:00       -5.493      -25.334        5.392       21.157       37.194       13.507      447.614     1383.360      182.433        0.136        0.101       25.923       13.133        0.257      336.453        7.765      868.851
11/07/2014  05:57:00      -19.566      -16.524       -8.866       13.236       19.941        9.406      175.195      397.640       88.481        0.070        0.033       25.610        4.788        0.035      336.579        7.976      868.854
11/07/2014  05:58:00      -27.081      -12.190       -5.107        7.867       12.506        5.124       61.894      156.412       26.258        0.058        0.012       29.698        3.312        0.012      336.484        7.817      868.850
11/07/2014  05:59:00      -38.267        0.322        2.733       11.944        6.570        7.831      142.669       43.164       61.323        0.086        0.012       38.268        8.258        0.047      336.482        7.813      868.844
11/07/2014  06:00:00       17.009       24.255       16.415       14.565       11.684        8.733      212.145      136.510       76.273        0.079        0.021       29.625        7.784        0.069      336.359        7.607      868.829
11/07/2014  06:01:00       46.370       24.432        3.962       14.966       12.534       14.936      223.982      157.113      223.071        0.168        0.030       52.412        4.301        0.007      336.239        7.407      868.827
11/07/2014  06:02:00       27.002       14.600        1.017       16.402       11.336       10.600      269.041      128.500      112.352        0.073        0.025       30.696        8.577        0.078      336.296        7.503      868.821
11/07/2014  06:03:00      -30.641        4.797       -7.350       28.058       14.588        9.699      787.263      212.804       94.077        0.105        0.055       31.014        6.441        0.043      336.439        7.740      868.819
11/07/2014  06:04:00      -52.494       -1.324       -9.111       14.900       12.535        8.364      221.998      157.128       69.955        0.164        0.022       52.510        4.648        0.008      336.375        7.634      868.812
11/07/2014  06:05:00      -63.233      -15.078       -6.564       11.945       13.016        9.145      142.693      169.414       83.640        0.233        0.020       65.006        4.556        0.005      335.991        6.994      868.810
11/07/2014  06:06:00      -49.384       -9.623        0.666       18.623       14.350       11.705      346.801      205.936      137.013        0.161        0.034       50.312        8.676        0.030      335.907        6.854      868.794
11/07/2014  06:07:00     -108.407       -5.743      -11.217       21.965       18.498       14.330      482.444      342.166      205.352        0.647        0.051      108.559       10.554        0.009      335.895        6.833      868.782
11/07/2014  06:08:00     -133.264       -4.757      -13.959       26.133       16.978       16.215      682.918      288.248      262.941        0.961        0.062      133.349       14.784        0.012      335.801        6.677      868.769
11/07/2014  06:09:00     -114.120      -18.164       -2.197       43.909       21.250       19.834     1927.960      451.579      393.395        0.806        0.139      115.556       22.158        0.037      335.821        6.710      868.774
11/07/2014  06:10:00      -84.933      -31.133        2.928       32.272       21.933       23.140     1041.455      481.049      535.465        0.512        0.103       90.459       19.538        0.047      335.817        6.704      868.779
11/07/2014  06:11:00      -61.721      -33.430        2.891       44.162       31.365       20.527     1950.302      983.752      421.346        0.414        0.168       70.193       18.370        0.068      335.930        6.893      868.776
11/07/2014  06:12:00      -64.038      -71.575        4.890       42.168       40.686       24.940     1778.153     1655.326      621.980        0.665        0.203       96.040       24.878        0.067      335.930        6.891      868.769
11/07/2014  06:13:00     -126.656      -92.233       -5.534       35.377       29.720       23.184     1251.523      883.281      537.478        1.363        0.134      156.680       20.399        0.017      335.895        6.832      868.761
11/07/2014  06:14:00     -130.335      -71.558       -7.027       36.036       29.717       21.439     1298.624      883.127      459.620        1.240        0.132      148.686       10.772        0.005      335.966        6.951      868.757
11/07/2014  06:15:00     -129.654      -68.198       -0.486       33.060       25.595       20.203     1092.979      655.124      408.164        1.181        0.108      146.497       16.787        0.013      336.010        7.025      868.753
11/07/2014  06:16:00     -129.450      -56.227       -1.312       35.801       30.147       21.608     1281.726      908.854      466.890        1.129        0.133      141.134       21.093        0.022      336.104        7.182      868.741
11/07/2014  06:17:00     -132.118      -26.924       -5.172       41.424       24.106       21.092     1715.933      581.086      444.869        1.047        0.137      134.834       23.055        0.029      335.916        6.868      868.737
11/07/2014  06:18:00     -134.974      -39.988       -5.683       33.124       35.765       22.732     1097.188     1279.122      516.741        1.137        0.145      140.773       13.007        0.009      335.754        6.599      868.733
11/07/2014  06:19:00     -123.771      -31.530       -1.284       64.692       54.850       34.237     4185.050     3008.480     1172.153        1.234        0.418      127.724       33.687        0.070      335.660        6.443      868.733
11/07/2014  06:20:00     -102.245      -24.316        1.587       49.729       44.116       26.314     2472.929     1946.182      692.441        0.808        0.256      105.097       24.145        0.053      335.576        6.303      868.726
11/07/2014  06:21:00     -123.021      -31.051       -6.441       32.998       31.593       21.444     1088.852      998.142      459.863        0.934        0.127      126.879       19.580        0.024      335.579        6.308      868.720
11/07/2014  06:22:00      -86.424      -11.560       -5.128       38.957       27.686       19.891     1517.660      766.542      395.648        0.515        0.134       87.194       19.237        0.049      335.507        6.187      868.714
11/07/2014  06:23:00     -108.915      -28.661      -12.383       28.954       27.764       14.697      838.334      770.862      215.991        0.733        0.091      112.623       17.024        0.023      335.659        6.442      868.714
11/07/2014  06:24:00     -117.003      -27.105      -19.881       14.108       16.592       10.611      199.035      275.287      112.595        0.770        0.029      120.101        5.873        0.002      335.716        6.537      868.724
11/07/2014  06:25:00     -122.563      -25.756      -21.252        9.901       15.284       10.689       98.023      233.603      114.252        0.829        0.022      125.240        7.044        0.003      335.769        6.623      868.732
11/07/2014  06:26:00     -100.989      -41.400      -11.132       15.957       17.529       12.555      254.640      307.283      157.632        0.638        0.036      109.145        3.626        0.001      335.788        6.656      868.741
11/07/2014  06:27:00      -77.473      -34.315        4.393       29.285       18.834       11.064      857.622      354.731      122.414        0.427        0.067       84.733       11.326        0.018      335.767        6.621      868.733
11/07/2014  06:28:00      -78.600      -46.052       -0.104       40.276       23.317       16.798     1622.137      543.687      282.174        0.537        0.122       91.098       15.689        0.030      335.809        6.690      868.735
11/07/2014  06:29:00      -99.651      -39.219       -8.854       21.936       22.584       12.577      481.169      510.059      158.181        0.635        0.057      107.091       10.093        0.009      335.774        6.632      868.729
11/07/2014  06:30:00      -83.671      -39.085       -2.306       19.568       20.505       11.392      382.894      420.460      129.777        0.473        0.047       92.350        9.154        0.010      335.794        6.666      868.720
11/07/2014  06:31:00      -20.296      -29.811        0.383       23.407       12.704        7.196      547.894      161.389       51.781        0.103        0.038       36.064        4.501        0.016      335.913        6.863      868.723
11/07/2014  06:32:00       -8.610      -43.904       -4.834       12.408       11.036        8.489      153.964      121.795       72.059        0.119        0.017       44.740        7.526        0.028      336.197        7.338      868.730
11/07/2014  06:33:00      -35.061      -14.546        1.560       15.049       14.090       10.908      226.459      198.515      118.979        0.099        0.027       37.958        7.803        0.042      336.029        7.056      868.735
11/07/2014  06:34:00      -53.992      -12.667       -4.507        8.214        8.571        6.115       67.473       73.455       37.389        0.164        0.009       55.458        1.933        0.001      335.825        6.716      868.735
11/07/2014  06:35:00      -80.505      -25.994       -6.167       16.674       16.316       11.306      278.027      266.226      127.830        0.393        0.034       84.598        8.100        0.009      335.733        6.565      868.727
11/07/2014  06:36:00      -81.284      -15.834       -8.733       25.925       16.944       10.226      672.100      287.101      104.579        0.400        0.053       82.812        9.880        0.014      335.620        6.375      868.725
11/07/2014  06:37:00      -79.938      -35.163       -4.981       16.628       17.896       10.513      276.483      320.272      110.514        0.418        0.035       87.330        9.208        0.011      335.719        6.541      868.738
11/07/2014  06:38:00      -74.761      -33.119       -6.008       16.677       14.715        8.467      278.136      216.540       71.698        0.364        0.028       81.768        5.748        0.005      335.754        6.598      868.746
11/07/2014  06:39:00      -80.592      -37.150       -4.615       16.274       13.842       11.824      264.830      191.605      139.798        0.425        0.030       88.742        9.086        0.010      335.811        6.694      868.755
11/07/2014  06:40:00      -76.842      -45.193       -1.465       15.804       17.020       11.159      249.777      289.677      124.516        0.431        0.033       89.146        8.049        0.008      335.706        6.520      868.770
11/07/2014  06:41:00      -67.653      -47.371       -1.364       23.806       15.661       16.191      566.712      245.253      262.143        0.395        0.054       82.589        9.932        0.014      335.566        6.285      868.779
11/07/2014  06:42:00      -77.044      -38.711       -3.998       15.990       15.798       10.817      255.670      249.564      116.997        0.404        0.031       86.223        7.438        0.007      335.547        6.254      868.784
11/07/2014  06:43:00      -75.436      -64.409       -5.780       22.255       27.354       17.792      495.287      748.223      316.566        0.572        0.078       99.192       11.181        0.013      335.559        6.275      868.790
11/07/2014  06:44:00      -73.563      -58.263       -1.381       27.592       30.693       18.453      761.314      942.085      340.514        0.543        0.102       93.840       16.263        0.030      335.594        6.333      868.788
11/07/2014  06:45:00      -99.386      -59.718       -1.088       26.843       22.679       16.768      720.551      514.339      281.157        0.748        0.076      115.947       16.418        0.020      335.635        6.400      868.783
11/07/2014  06:46:00      -86.228      -50.241       -7.619       18.872       14.759        9.798      356.159      217.825       96.007        0.534        0.033       99.797        8.172        0.007      335.643        6.414      868.787
11/07/2014  06:47:00      -80.485      -46.726       -7.145       29.863       18.105       14.242      891.823      327.793      202.832        0.507        0.071       93.066       13.636        0.021      335.578        6.306      868.794
11/07/2014  06:48:00      -52.485      -37.571       -4.375       27.045       16.258       11.790      731.451      264.335      139.004        0.266        0.057       64.547        5.374        0.007      335.586        6.319      868.793
11/07/2014  06:49:00      -55.444      -37.194       -2.180       12.940       10.437        8.737      167.438      108.933       76.331        0.241        0.018       66.764        7.188        0.012      335.639        6.407      868.795
11/07/2014  06:50:00      -47.209      -35.795       -6.600       10.963        8.330        7.451      120.198       69.385       55.525        0.190        0.012       59.245        4.319        0.005      335.774        6.633      868.819
11/07/2014  06:51:00      -42.052      -21.500       -0.681        8.447       10.759        6.500       71.344      115.760       42.245        0.123        0.011       47.229        3.767        0.006      335.731        6.562      868.851
11/07/2014  06:52:00       -2.961      -13.058        2.542       17.023        8.465        9.384      289.777       71.648       88.067        0.032        0.022       13.389        6.448        0.232      335.818        6.706      868.875
11/07/2014  06:53:00      -30.944       -7.986       -0.310       20.213       10.115       12.756      408.545      102.305      162.716        0.085        0.034       31.958       13.593        0.181      335.655        6.434      868.897
11/07/2014  06:54:00      -72.806      -40.623      -10.009       24.918       31.662       12.084      620.907     1002.497      146.021        0.441        0.088       83.372        7.621        0.008      335.587        6.321      868.928
11/07/2014  06:55:00     -114.487      -46.941       -5.390       43.922       23.845       17.262     1929.172      568.589      297.971        0.907        0.140      123.737       16.428        0.018      335.605        6.351      868.941
11/07/2014  06:56:00      -83.378      -64.536       -2.374       35.302       20.886       14.186     1246.255      436.232      201.257        0.650        0.094      105.436       13.971        0.018      335.509        6.190      868.957
11/07/2014  06:57:00      -74.859      -43.923       -6.339       29.266       19.323       15.834      856.491      373.386      250.711        0.453        0.074       86.794       13.928        0.026      335.459        6.106      868.966
11/07/2014  06:58:00      -55.450      -17.213       -7.534       18.089       10.749       10.435      327.203      115.547      108.886        0.199        0.028       58.060        9.501        0.027      335.552        6.263      868.967
11/07/2014  06:59:00      -60.555      -12.756       -8.862        7.470        7.662        6.281       55.794       58.706       39.451        0.203        0.008       61.884        3.789        0.004      335.665        6.450      868.957
11/07/2014  07:00:00      -54.152      -35.665       -5.693       11.539        9.787        9.100      133.156       95.780       82.815        0.227        0.016       64.842        6.299        0.009      335.680        6.475      868.944
11/07/2014  07:01:00      -44.224       -9.633       -5.320        8.249       11.712        8.642       68.042      137.160       74.690        0.118        0.014       45.261        6.747        0.022      335.691        6.494      868.922
11/07/2014  07:02:00      -33.381      -15.491       -1.456       10.273       11.023        5.574      105.525      121.500       31.066        0.081        0.013       36.801        4.825        0.017      335.813        6.698      868.898
11/07/2014  07:03:00      -28.952      -16.533        1.745       13.334        7.843        7.790      177.795       61.519       60.683        0.071        0.015       33.340        5.787        0.030      335.914        6.864      868.890
11/07/2014  07:04:00      -20.863       -1.736        2.068       12.211        9.616        6.086      149.110       92.473       37.043        0.036        0.014       20.936        6.245        0.089      335.956        6.932      868.887
11/07/2014  07:05:00      -37.315      -13.428        1.472       10.069        9.373       10.441      101.382       87.847      109.017        0.094        0.015       39.657        6.556        0.027      335.959        6.939      868.882
11/07/2014  07:06:00      -36.115       -2.852       -4.771       13.994       12.817        8.210      195.840      164.279       67.405        0.088        0.021       36.228        8.164        0.051      335.832        6.730      868.888
11/07/2014  07:07:00      -59.247      -17.368       -4.723       20.672       17.308       11.968      427.342      299.552      143.229        0.235        0.044       61.740        9.316        0.023      335.753        6.599      868.907
11/07/2014  07:08:00      -45.931      -12.538       -7.548        9.499       11.337        7.648       90.226      128.517       58.486        0.130        0.014       47.611        4.521        0.009      335.795        6.667      868.932
11/07/2014  07:09:00      -34.868      -39.651       -7.741       10.620       13.351        9.401      112.794      178.252       88.385        0.161        0.019       52.802        7.748        0.022      335.835        6.733      868.963
11/07/2014  07:10:00      -30.636       -2.230        0.747       12.484       17.213        9.791      155.853      296.280       95.868        0.075        0.027       30.717        9.321        0.092      335.894        6.833      868.981
11/07/2014  07:11:00      -68.303       15.453      -11.916       12.495        8.012        5.682      156.117       64.199       32.286        0.265        0.013       70.029        2.719        0.002      335.846        6.750      868.999
11/07/2014  07:12:00      -67.321       -1.375      -10.699        8.522       11.602        7.392       72.632      134.605       54.641        0.246        0.013       67.335        3.358        0.002      335.883        6.813      869.016
11/07/2014  07:13:00      -56.733      -19.833       -6.891        7.129        4.553        5.679       50.820       20.729       32.254        0.188        0.005       60.100        3.807        0.004      335.926        6.883      869.033
11/07/2014  07:14:00      -38.617      -21.308       -5.650        9.623        6.365        5.576       92.605       40.518       31.090        0.107        0.008       44.106        4.247        0.009      335.991        6.993      869.063
11/07/2014  07:15:00      -48.924      -19.735       -7.557       17.751        7.203        4.269      315.089       51.889       18.225        0.161        0.019       52.754        4.562        0.007      335.955        6.931      869.079
11/07/2014  07:16:00      -83.180      -26.384       -6.411       12.658       10.973        6.865      160.213      120.402       47.132        0.399        0.016       87.265        3.478        0.002      335.942        6.912      869.083
11/07/2014  07:17:00      -81.859      -22.434       -8.693        9.178       10.956        7.409       84.231      120.035       54.891        0.377        0.013       84.877        4.211        0.002      335.916        6.868      869.077
11/07/2014  07:18:00      -59.398      -13.140       -5.774       15.488       11.444        8.399      239.888      130.966       70.548        0.209        0.022       60.834        7.019        0.013      336.000        7.008      869.072
11/07/2014  07:19:00      -51.645      -15.783       -4.046        9.531       10.078        6.922       90.848      101.573       47.918        0.159        0.012       54.003        4.889        0.008      336.073        7.130      869.072
11/07/2014  07:20:00      -39.223       -0.558       -3.698       11.031        5.442        4.692      121.679       29.613       22.013        0.086        0.009       39.227        3.989        0.010      336.130        7.224      869.071
11/07/2014  07:21:00      -22.388       -3.041        1.307       14.786        3.761        6.384      218.624       14.144       40.749        0.039        0.014       22.594        8.120        0.129      336.365        7.618      869.073
11/07/2014  07:22:00      -22.174      -10.133       -2.308       14.286        7.916        9.326      204.091       62.668       86.981        0.048        0.018       24.379       10.030        0.169      336.401        7.679      869.070
11/07/2014  07:23:00      -43.629      -10.395      -10.266       11.405        6.268        5.247      130.081       39.284       27.532        0.116        0.010       44.850        3.689        0.007      336.366        7.619      869.073
11/07/2014  07:24:00      -65.990       -7.372      -12.667       11.126        9.244        7.668      123.779       85.452       58.799        0.242        0.013       66.401        6.818        0.011      336.233        7.395      869.085
11/07/2014  07:25:00     -103.186      -20.855      -11.889       13.829       11.587       11.910      191.238      134.256      141.851        0.585        0.023      105.272        7.685        0.005      336.164        7.283      869.108
11/07/2014  07:26:00      -94.929       -7.417       -9.464       22.350       16.289       12.853      499.536      265.333      165.208        0.504        0.047       95.219       12.672        0.018      336.145        7.249      869.134
11/07/2014  07:27:00      -94.170       -1.938       -7.732       22.196       16.930       15.006      492.666      286.637      225.174        0.497        0.050       94.189       12.365        0.017      336.135        7.232      869.148
11/07/2014  07:28:00      -82.735      -12.527       -8.337       22.608       12.957       12.971      511.107      167.887      168.246        0.396        0.042       83.678       11.417        0.019      336.242        7.411      869.150
11/07/2014  07:29:00      -71.081      -33.978       -2.152       18.720       22.376       12.330      350.451      500.670      152.034        0.361        0.050       78.785       10.923        0.019      336.355        7.602      869.143
11/07/2014  07:30:00      -69.287      -19.346      -10.268       16.210       15.230        8.517      262.759      231.957       72.545        0.292        0.028       71.937        7.957        0.012      336.418        7.706      869.147
11/07/2014  07:31:00      -69.147      -10.703      -12.305       13.813        6.983        7.580      190.801       48.764       57.452        0.267        0.015       69.970        5.804        0.007      336.506        7.855      869.154
11/07/2014  07:32:00      -68.043       -1.556       -5.621       11.916        8.687        7.469      141.995       75.465       55.786        0.247        0.014       68.060        4.965        0.005      336.561        7.946      869.159
11/07/2014  07:33:00      -70.912       -5.599       -5.567       14.469        9.703        8.432      209.353       94.147       71.103        0.273        0.019       71.133        7.410        0.011      336.644        8.087      869.157
11/07/2014  07:34:00      -83.614       -1.678       -8.944       13.836        5.482        7.401      191.439       30.058       54.778        0.368        0.014       83.631        4.633        0.003      336.745        8.255      869.165
11/07/2014  07:35:00      -65.275      -13.824       -6.014       15.578       11.787        8.208      242.662      138.940       67.376        0.247        0.022       66.723        6.389        0.009      336.775        8.304      869.174
11/07/2014  07:36:00      -63.251      -40.782       -3.598       11.751       12.430        7.434      138.083      154.503       55.270        0.301        0.017       75.259        5.446        0.005      336.756        8.272      869.185
11/07/2014  07:37:00      -68.886      -46.714        5.121       36.180       32.180       15.888     1308.959     1035.544      252.415        0.477        0.130       83.231       15.636        0.035      336.659        8.109      869.184
11/07/2014  07:38:00      -61.565      -60.685       -0.091       33.963       26.872       21.544     1153.499      722.096      464.127        0.491        0.117       86.447       18.764        0.047      336.742        8.250      869.182
11/07/2014  07:39:00      -64.839      -70.951       -5.215       22.222       34.740       22.662      493.795     1206.838      513.584        0.574        0.111       96.115       17.612        0.034      336.769        8.294      869.177
11/07/2014  07:40:00      -75.382      -52.525       -3.715       27.252       33.035       16.300      742.670     1091.326      265.679        0.528        0.105       91.877       16.236        0.031      336.794        8.336      869.181
11/07/2014  07:41:00      -91.163      -78.644       -8.008       28.094       20.399       18.139      789.288      416.105      329.016        0.805        0.077      120.397       19.695        0.027      336.836        8.405      869.192
11/07/2014  07:42:00      -80.723      -59.594       -7.772       21.003       16.330       14.527      441.123      266.662      211.043        0.552        0.046      100.338       11.754        0.014      336.868        8.458      869.194
11/07/2014  07:43:00      -66.466      -42.485       -2.677       30.953       21.103       19.791      958.100      445.337      391.664        0.401        0.090       78.885       16.679        0.045      336.883        8.483      869.200
11/07/2014  07:44:00      -69.430      -46.709       -8.101       30.925       25.097       15.978      956.361      629.840      255.293        0.445        0.092       83.680       13.397        0.026      336.918        8.540      869.211
11/07/2014  07:45:00      -63.281      -55.719        2.972       26.422       23.991       15.770      698.105      575.582      248.707        0.432        0.076       84.315       13.205        0.025      336.929        8.560      869.227
11/07/2014  07:46:00      -67.765      -67.822       -1.992       26.673       29.350       16.765      711.472      861.424      281.076        0.552        0.093       95.875       15.983        0.028      336.987        8.655      869.243
11/07/2014  07:47:00      -37.935      -26.761        2.576       26.995       27.843       13.581      728.741      775.250      184.456        0.192        0.084       46.424       14.097        0.092      337.055        8.770      869.251
11/07/2014  07:48:00      -57.956      -48.549       -2.717       13.280       17.929        9.629      176.361      321.438       92.711        0.316        0.030       75.604        7.089        0.009      337.112        8.866      869.255
11/07/2014  07:49:00      -24.458      -25.295       -3.952       15.103        7.460        8.847      228.103       55.649       78.265        0.081        0.018       35.186        4.002        0.013      337.199        9.013      869.265
11/07/2014  07:50:00      -14.751      -29.011       -3.185       14.884       19.817        8.180      221.547      392.695       66.910        0.088        0.034       32.546        5.011        0.024      337.295        9.174      869.268
11/07/2014  07:51:00      -37.606      -68.068       -5.730       15.110       12.134       11.137      228.308      147.230      124.025        0.329        0.025       77.766        8.210        0.011      337.277        9.143      869.275
11/07/2014  07:52:00      -34.808      -61.536       -3.958       17.099       29.137       16.393      292.370      848.970      268.717        0.321        0.071       70.698        8.637        0.015      337.406        9.357      869.287
11/07/2014  07:53:00      -62.543      -27.782       -6.559       12.299       12.460       10.759      151.255      155.255      115.763        0.257        0.021       68.436        6.646        0.009      337.349        9.263      869.292
11/07/2014  07:54:00      -50.727      -33.829       -0.990       22.606       17.319       12.876      511.024      299.934      165.798        0.235        0.049       60.973       10.006        0.027      337.274        9.138      869.304
11/07/2014  07:55:00      -51.349      -33.916       -3.777       14.418       16.127       10.347      207.879      260.079      107.064        0.219        0.029       61.539        7.341        0.014      337.317        9.210      869.318
11/07/2014  07:56:00      -52.156      -26.548       -2.571       14.611       14.038        9.851      213.491      197.065       97.034        0.197        0.025       58.523        4.715        0.006      337.364        9.286      869.336
11/07/2014  07:57:00      -46.232       -8.553       -3.845        9.430       10.394        7.404       88.918      108.036       54.820        0.124        0.013       47.017        5.929        0.016      337.411        9.366      869.346
11/07/2014  07:58:00      -45.714       -7.780       -1.768        9.144       10.231        9.119       83.606      104.668       83.157        0.121        0.014       46.372        6.700        0.021      337.546        9.591      869.356
11/07/2014  07:59:00      -41.525       -1.973       -3.697       12.206        5.385        5.636      148.993       28.996       31.762        0.098        0.010       41.571        3.041        0.005      337.557        9.611      869.362
11/07/2014  08:00:00      -36.750      -18.247       -3.745       10.374       10.973        6.236      107.617      120.400       38.891        0.098        0.013       41.031        4.524        0.012      337.575        9.641      869.368
11/07/2014  08:01:00      -24.250      -18.714       -2.892       11.423       11.094        7.842      130.487      123.081       61.502        0.063        0.016       30.631        5.708        0.035      337.691        9.834      869.378
11/07/2014  08:02:00      -40.040      -35.216       -3.398       28.311       16.047       12.011      801.518      257.510      144.266        0.203        0.060       53.323       10.337        0.038      337.719        9.884      869.390
11/07/2014  08:03:00      -22.410      -31.271       -2.182       12.918       19.612       12.100      166.883      384.629      146.416        0.109        0.035       38.472        9.173        0.057      337.773        9.974      869.398
11/07/2014  08:04:00      -10.838       -6.843       -3.047        9.956        5.440        7.355       99.116       29.589       54.091        0.018        0.009       12.817        4.663        0.132      338.147       10.601      869.410
11/07/2014  08:05:00       -6.715       12.184       17.637       14.091       12.440       20.953      198.567      154.750      439.049        0.065        0.040       13.912       12.625        0.824      338.373       10.981      869.423
11/07/2014  08:06:00       11.703       36.256       41.295       21.926       36.566       18.679      480.736     1337.048      348.918        0.266        0.108       38.098       16.299        0.183      338.260       10.791      869.433
11/07/2014  08:07:00       34.295       58.163       52.788       20.133       27.767       19.879      405.336      770.987      395.178        0.446        0.079       67.521        5.963        0.008      338.116       10.550      869.441
11/07/2014  08:08:00       14.151       24.388       46.567       23.646       27.353       18.923      559.132      748.192      358.098        0.231        0.083       28.196       11.330        0.161      338.457       11.122      869.449
11/07/2014  08:09:00       18.063       49.132       58.085       31.331       29.344       15.989      981.608      861.073      255.641        0.411        0.105       52.347       15.048        0.083      338.442       11.096      869.460
11/07/2014  08:10:00       70.179       72.938       68.659       42.640       36.297       26.296     1818.149     1317.491      691.490        0.939        0.191      101.218        8.341        0.007      338.112       10.541      869.471
11/07/2014  08:11:00       46.509       73.564       73.634       44.991       37.496       31.627     2024.180     1405.932     1000.249        0.871        0.222       87.033       17.819        0.042      338.230       10.740      869.489
11/07/2014  08:12:00      104.062       72.214       -0.259       45.578       42.704       32.719     2077.398     1823.650     1070.507        1.051        0.249      126.664       13.495        0.011      338.182       10.660      869.512
11/07/2014  08:13:00      136.024       73.393       -4.527       30.219       25.210       22.559      913.160      635.568      508.889        1.298        0.103      154.561       10.131        0.004      337.883       10.157      869.528
11/07/2014  08:14:00      121.732       76.601       11.443       36.053       27.711       32.735     1299.824      767.874     1071.578        1.198        0.157      143.828       23.446        0.027      337.910       10.203      869.532
11/07/2014  08:15:00       88.799       44.287       19.746       41.790       23.743       28.318     1746.423      563.716      801.928        0.667        0.156       99.230       19.709        0.039      338.057       10.450      869.538
11/07/2014  08:16:00       79.734       53.373        6.429       28.532       29.118       32.416      814.100      847.839     1050.805        0.598        0.136       95.949       17.970        0.035      337.946       10.264      869.542
11/07/2014  08:17:00      103.148       64.588       17.511       28.894       16.559       23.565      834.840      274.217      555.314        0.839        0.083      121.701        9.123        0.006      337.833       10.075      869.549
11/07/2014  08:18:00       77.375       29.832       11.934       23.066       27.911       29.722      532.052      779.006      883.416        0.461        0.110       82.926       22.406        0.073      337.854       10.109      869.556
11/07/2014  08:19:00       71.738       45.788        2.235       26.261       19.423       21.593      689.633      377.242      466.248        0.439        0.077       85.105        9.678        0.013      337.965       10.296      869.557
11/07/2014  08:20:00       71.669       64.387       11.873       38.121       23.839       25.653     1453.206      568.295      658.092        0.605        0.134       96.344       21.777        0.051      338.196       10.684      869.556
11/07/2014  08:21:00       23.981       24.989       38.837       44.185       40.692       18.682     1952.311     1655.836      349.000        0.333        0.198       34.635       11.362        0.108      338.291       10.844      869.562
11/07/2014  08:22:00       41.391       27.063       32.583       43.512       35.791       24.569     1893.269     1280.964      603.618        0.364        0.189       49.453       16.228        0.108      338.146       10.599      869.571
11/07/2014  08:23:00       22.641       16.517       42.637       28.679       34.638       20.587      822.487     1199.818      423.819        0.252        0.122       28.025       15.120        0.291      338.344       10.932      869.572
11/07/2014  08:24:00       78.307       62.544       31.329       34.160       27.722       25.534     1166.878      768.524      651.999        0.681        0.129      100.218       16.125        0.026      337.896       10.178      869.574
11/07/2014  08:25:00       62.215       56.733       61.389       33.255       25.921       23.212     1105.890      671.916      538.811        0.659        0.116       84.198        8.574        0.010      338.003       10.360      869.576
11/07/2014  08:26:00       36.282       47.061       70.959       33.595       26.495       17.728     1128.623      701.990      314.286        0.536        0.107       59.424       15.637        0.069      338.125       10.564      869.584
11/07/2014  08:27:00       47.963       56.125       45.218       30.459       22.317       20.572      927.745      498.035      423.216        0.467        0.092       73.827        7.475        0.010      338.062       10.460      869.587
11/07/2014  08:28:00       -3.834       16.410       42.520       17.839       39.379       22.102      318.216     1550.682      488.481        0.222        0.118       16.852       17.295        1.053      338.457       11.123      869.590
11/07/2014  08:29:00      -11.041      -12.384       42.465       22.625       43.942       22.309      511.872     1930.887      497.710        0.251        0.147       16.591       12.236        0.544      338.572       11.315      869.592
11/07/2014  08:30:00       25.520       51.868       59.273       27.245       29.497       26.081      742.264      870.067      680.221        0.457        0.115       57.806        6.763        0.014      338.349       10.941      869.588
11/07/2014  08:31:00       24.478      -13.063       44.359       33.203       40.895       29.395     1102.434     1672.392      864.075        0.319        0.182       27.746       17.799        0.412      338.465       11.134      869.585
11/07/2014  08:32:00       46.678       57.590       63.877       50.805       42.003       22.486     2581.162     1764.234      505.608        0.721        0.243       74.132       12.844        0.030      338.327       10.903      869.598
11/07/2014  08:33:00       21.147       36.412       51.990       37.316       40.278       28.928     1392.499     1622.309      836.812        0.416        0.193       42.107       22.409        0.283      338.426       11.070      869.616
11/07/2014  08:34:00       48.889       73.652       50.577       52.828       37.587       45.730     2790.784     1412.752     2091.225        0.833        0.315       88.402       42.617        0.232      338.304       10.865      869.635
11/07/2014  08:35:00       81.333       78.619       34.579       31.528       26.040       39.978      994.005      678.066     1598.203        0.863        0.164      113.120       19.969        0.031      338.151       10.607      869.652
11/07/2014  08:36:00       60.726       28.940       62.455       33.697       25.747       27.978     1135.465      662.922      782.795        0.550        0.129       67.269       22.010        0.107      338.282       10.827      869.666
11/07/2014  08:37:00       47.424        8.199       23.737       32.429       45.247       30.630     1051.668     2047.263      938.171        0.346        0.202       48.128       20.542        0.182      338.343       10.930      869.667
11/07/2014  08:38:00       25.038      -20.822       25.577       47.139       51.235       33.463     2222.120     2625.036     1119.785        0.384        0.298       32.564       26.627        0.669      338.598       11.360      869.669
11/07/2014  08:39:00       25.509       -5.481       30.076       32.404       38.466       30.527     1049.999     1479.623      931.896        0.252        0.173       26.091       20.898        0.642      338.692       11.516      869.691
11/07/2014  08:40:00       28.808       17.355       56.726       32.145       35.864       23.597     1033.295     1286.192      556.813        0.361        0.144       33.631       12.072        0.129      338.715       11.555      869.706
11/07/2014  08:41:00       63.033       64.246       57.907       34.623       33.634       24.602     1198.778     1131.236      605.275        0.719        0.147       90.004       17.765        0.039      338.512       11.214      869.725
11/07/2014  08:42:00       77.544       84.825       58.714       62.555       34.708       30.750     3913.097     1204.674      945.535        1.136        0.303      114.927       12.621        0.012      338.303       10.866      869.752
11/07/2014  08:43:00       17.391       24.235       38.982       24.615       27.782       24.864      605.877      771.827      618.241        0.220        0.100       29.829        5.940        0.040      338.718       11.558      869.761
11/07/2014  08:44:00       32.503       -8.367       30.730       36.732       43.898       33.935     1349.248     1927.036     1151.576        0.325        0.221       33.563       26.309        0.614      338.625       11.403      869.776
11/07/2014  08:45:00       13.357       -2.078       39.808       29.364       58.251       39.060      862.268     3393.184     1525.690        0.377        0.289       13.518       40.438        8.949      338.716       11.557      869.778
11/07/2014  08:46:00       35.335       45.289       62.746       47.495       60.615       31.004     2255.817     3674.141      961.268        0.706        0.345       57.443       35.973        0.392      338.656       11.455      869.785
11/07/2014  08:47:00       54.385       45.293       51.180       41.594       45.597       35.846     1730.048     2079.101     1284.957        0.636        0.255       70.776       27.996        0.156      338.601       11.364      869.792
11/07/2014  08:48:00       14.508        9.581       25.654       31.372       28.213       29.426      984.193      795.979      865.915        0.180        0.132       17.386        9.961        0.328      338.818       11.727      869.798
11/07/2014  08:49:00        6.073       -0.990       37.481       19.062       29.046       19.486      363.374      843.671      379.696        0.151        0.079        6.153        8.668        1.984      339.101       12.204      869.809
11/07/2014  08:50:00       36.948       18.227       37.627       38.999       47.484       27.202     1520.891     2254.773      739.976        0.381        0.226       41.199       10.791        0.069      338.735       11.590      869.809
11/07/2014  08:51:00       72.480       33.897       39.197       53.955       50.293       44.271     2911.116     2529.416     1959.879        0.767        0.370       80.015       44.927        0.315      338.677       11.492      869.818
11/07/2014  08:52:00        9.214       39.277       60.570       33.774       47.248       35.986     1140.670     2232.337     1294.996        0.498        0.233       40.343       35.200        0.761      338.848       11.779      869.798
11/07/2014  08:53:00       77.129      -50.704        5.697       58.593       47.739       26.108     3433.082     2279.041      681.625        0.747        0.320       92.303       23.237        0.063      338.635       11.420      869.803
11/07/2014  08:54:00        3.057      -16.832       27.990       19.690       28.382       18.899      387.698      805.540      357.164        0.131        0.078       17.107       13.173        0.593      339.163       12.310      869.792
11/07/2014  08:55:00       13.771      -13.649       30.664       29.867       45.499       27.880      892.040     2070.141      777.290        0.253        0.187       19.389       16.308        0.707      339.391       12.692      869.787
11/07/2014  08:56:00        5.931        7.062       40.292       25.011       34.976       22.165      625.566     1223.349      491.308        0.202        0.117        9.223       18.823        4.165      339.421       12.742      869.781
11/07/2014  08:57:00       15.361      -42.608       23.877       18.686       45.132       23.542      349.163     2036.891      554.228        0.278        0.147       45.292        9.644        0.045      339.232       12.425      869.780
11/07/2014  08:58:00       14.773      -10.568       29.813       39.328       43.797       29.792     1546.669     1918.196      887.534        0.278        0.218       18.164       36.087        3.947      339.368       12.654      869.778
11/07/2014  08:59:00       24.564       37.032       49.305       40.163       30.512       22.795     1613.080      930.959      519.631        0.373        0.153       44.438       13.976        0.099      339.260       12.473      869.775
11/07/2014  09:00:00       11.059       29.461       51.169       29.949       27.163       21.879      896.968      737.814      478.712        0.286        0.106       31.468       17.425        0.307      339.486       12.853      869.776
11/07/2014  09:01:00       36.472      -32.190       14.079       46.027       46.656       28.549     2118.518     2176.809      815.049        0.384        0.256       48.646       27.593        0.322      339.201       12.372      869.765
11/07/2014  09:02:00       31.865       64.606       67.880       40.329       31.108       26.047     1626.405      967.720      678.431        0.653        0.164       72.037       18.519        0.066      339.189       12.352      869.755
11/07/2014  09:03:00       59.771       48.491       23.005       47.987       30.335       32.223     2302.727      920.240     1038.330        0.536        0.213       76.967       25.087        0.106      339.206       12.381      869.749
11/07/2014  09:04:00       19.826        3.763       21.660       32.997       36.480       23.720     1088.793     1330.823      562.629        0.193        0.149       20.180       19.054        0.892      339.534       12.934      869.752
11/07/2014  09:05:00      -13.386      -29.164       21.283       25.093       42.862       29.945      629.652     1837.190      896.693        0.242        0.168       32.090       18.306        0.325      339.475       12.833      869.754
11/07/2014  09:06:00       26.578       49.977       50.689       42.764       52.296       28.291     1828.769     2734.916      800.382        0.557        0.268       56.605       25.492        0.203      339.517       12.904      869.759
11/07/2014  09:07:00       -8.509        6.813       50.096       27.713       50.773       33.838      768.010     2577.863     1145.038        0.356        0.225       10.900       26.484        5.903      339.502       12.879      869.753
11/07/2014  09:08:00       31.037       54.762       71.523       29.152       33.099       15.516      849.854     1095.566      240.758        0.563        0.109       62.946       11.708        0.035      339.441       12.776      869.748
11/07/2014  09:09:00       20.929       11.014       34.707       36.380       33.938       30.897     1323.501     1151.786      954.610        0.260        0.171       23.650       27.914        1.393      339.490       12.860      869.737
11/07/2014  09:10:00       29.681        9.664       55.338       36.861       51.216       29.580     1358.762     2623.116      874.950        0.445        0.243       31.215       30.475        0.953      339.600       13.046      869.734
11/07/2014  09:11:00        8.183        1.973       41.677       27.325       46.370       19.607      746.645     2150.154      384.436        0.254        0.164        8.418       19.127        5.163      339.603       13.050      869.733
11/07/2014  09:12:00       42.014       54.395       59.749       37.917       38.668       25.325     1437.673     1495.214      641.355        0.593        0.179       68.732       16.228        0.056      339.589       13.025      869.735
11/07/2014  09:13:00       18.226       63.595       85.946       50.234       41.458       37.089     2523.464     1718.778     1375.603        0.869        0.281       66.155       36.688        0.308      339.722       13.250      869.741
11/07/2014  09:14:00       52.445       56.919       44.485       58.771       41.744       39.414     3453.976     1742.583     1553.436        0.736        0.337       77.397       36.787        0.226      339.476       12.836      869.756
11/07/2014  09:15:00       71.854       68.258       44.865       33.415       34.814       30.506     1116.557     1211.994      930.591        0.755        0.163       99.106       12.504        0.016      339.533       12.932      869.756
11/07/2014  09:16:00       11.523       -7.452       32.654       36.136       63.084       36.139     1305.776     3979.608     1306.018        0.392        0.330       13.723       23.166        2.850      339.960       13.652      869.761
11/07/2014  09:17:00       39.654      -47.772       40.837       34.252       85.940       43.162     1173.176     7385.755     1862.968        0.797        0.521       62.086       49.883        0.646      339.881       13.519      869.755
11/07/2014  09:18:00       23.342        2.461       31.919       37.646       46.395       31.747     1417.222     2152.538     1007.875        0.307        0.229       23.472       25.196        1.152      339.796       13.375      869.767
11/07/2014  09:19:00       13.733       28.906       41.678       24.819       40.271       33.124      615.965     1621.739     1097.186        0.305        0.167       32.002       29.835        0.869      339.959       13.650      869.754
11/07/2014  09:20:00       41.991       50.297       63.102       33.735       37.974       27.496     1138.043     1442.059      756.016        0.580        0.167       65.521       17.580        0.072      339.806       13.392      869.753
11/07/2014  09:21:00       57.019       82.349       55.247       56.432       42.973       42.775     3184.552     1846.699     1829.694        0.997        0.343      100.163       34.555        0.119      339.622       13.082      869.746
11/07/2014  09:22:00       28.741       40.600       39.349       30.155       27.527       35.468      909.304      757.745     1257.978        0.347        0.146       49.743       18.812        0.143      339.888       13.531      869.741
11/07/2014  09:23:00       15.992       24.670       49.800       20.730       17.458       13.358      429.739      304.770      178.431        0.213        0.046       29.400        6.343        0.047      340.163       13.994      869.739
11/07/2014  09:24:00       13.576       39.470       49.229       26.280       26.276       19.852      690.659      690.404      394.093        0.297        0.089       41.739        6.906        0.027      339.940       13.618      869.725
11/07/2014  09:25:00       39.949       56.602       80.237       48.791       41.584       24.340     2380.524     1729.263      592.418        0.797        0.235       69.280       24.550        0.126      339.999       13.718      869.737
11/07/2014  09:26:00       42.206       64.777       78.366       36.923       43.838       24.533     1363.335     1921.806      601.855        0.800        0.194       77.313       17.975        0.054      339.850       13.467      869.738
11/07/2014  09:27:00       54.624       52.018       84.967       32.013       32.183       19.748     1024.802     1035.716      389.971        0.768        0.123       75.429       17.967        0.057      339.780       13.348      869.752
11/07/2014  09:28:00       25.099       24.416       45.601       28.227       31.542       23.188      796.753      994.895      537.674        0.282        0.116       35.016       18.627        0.283      339.989       13.701      869.747
11/07/2014  09:29:00       27.918       47.916       55.471       47.383       50.358       33.426     2245.134     2535.961     1117.280        0.602        0.295       55.457       33.533        0.366      339.930       13.601      869.747
11/07/2014  09:30:00       44.139       18.685       43.392       42.384       34.969       33.839     1796.406     1222.843     1145.057        0.417        0.208       47.931       22.082        0.212      340.178       14.021      869.742
11/07/2014  09:31:00       32.615       43.314       38.794       28.179       37.525       29.713      794.047     1408.155      882.855        0.376        0.154       54.220       18.605        0.118      339.977       13.681      869.744
11/07/2014  09:32:00       70.899       45.247       15.265       27.639       23.914       29.196      763.919      571.882      852.393        0.475        0.109       84.107       13.155        0.024      339.849       13.464      869.725
11/07/2014  09:33:00      -13.150       -1.897       17.703       18.673       16.078       16.054      348.672      258.500      257.718        0.068        0.043       13.287       10.271        0.598      340.409       14.410      869.728
11/07/2014  09:34:00      -34.724       -8.055       12.031       15.663       17.452       18.209      245.327      304.567      331.564        0.115        0.044       35.646       14.839        0.173      340.048       13.800      869.715
11/07/2014  09:35:00      -14.874       -0.770       14.821       45.494       16.082       21.436     2069.734      258.626      459.510        0.161        0.139       14.894       15.523        1.086      340.138       13.952      869.704
11/07/2014  09:36:00       64.564       63.191       36.022       34.091       28.795       25.519     1162.184      829.176      651.240        0.605        0.132       90.342       21.835        0.058      340.046       13.798      869.692
11/07/2014  09:37:00       72.752       69.023       28.981       21.513       13.460       18.091      462.830      181.177      327.274        0.593        0.049      100.285       12.143        0.015      339.847       13.461      869.667
11/07/2014  09:38:00       56.876       61.888        4.491       18.762       11.997       16.468      352.017      143.920      271.190        0.393        0.038       84.053       10.060        0.014      339.818       13.413      869.657
11/07/2014  09:39:00       79.608       54.216        7.582       18.345       16.666       18.935      336.551      277.753      358.524        0.515        0.049       96.317       11.902        0.015      339.850       13.466      869.642
11/07/2014  09:40:00       47.874       39.349       -0.014       39.581       24.894       22.427     1566.621      619.692      502.968        0.326        0.134       61.970       24.644        0.158      339.956       13.645      869.643
11/07/2014  09:41:00      -14.506       33.546       -5.425       45.902       18.645       21.907     2107.005      347.629      479.907        0.215        0.147       36.548       22.876        0.392      340.229       14.105      869.630
11/07/2014  09:42:00       70.468      -32.942       -3.886       34.946       39.261       25.467     1221.252     1541.412      648.551        0.474        0.171       77.788       17.832        0.053      340.175       14.016      869.635
11/07/2014  09:43:00        8.568      -13.733       32.321       22.522       38.982       29.953      507.231     1519.566      897.165        0.211        0.146       16.186       29.976        3.430      340.616       14.758      869.631
11/07/2014  09:44:00        7.998        2.254       39.170       39.126       61.544       23.445     1530.844     3787.660      549.658        0.373        0.293        8.309       31.818       14.662      340.450       14.480      869.630
11/07/2014  09:45:00      -59.432      -38.776       -0.465       44.289       24.483       19.533     1961.518      599.416      381.539        0.399        0.147       70.963       15.304        0.047      340.223       14.096      869.624
11/07/2014  09:46:00      -14.941       -5.555       18.937       38.503       30.183       27.131     1482.477      911.032      736.093        0.187        0.156       15.940       30.082        3.562      340.600       14.734      869.620
11/07/2014  09:47:00        8.650        6.177       13.320       29.711       23.054       37.580      882.733      531.489     1412.246        0.156        0.141       10.629       25.772        5.879      340.597       14.728      869.598
11/07/2014  09:48:00        0.341       33.274      -17.535       20.686       14.877       17.130      427.892      221.324      293.421        0.118        0.047       33.276       12.884        0.150      340.283       14.197      869.595
11/07/2014  09:49:00       -8.736       32.365       -2.379       27.255       20.485       27.802      742.816      419.623      772.941        0.153        0.097       33.524       12.403        0.137      340.582       14.702      869.583
11/07/2014  09:50:00      -79.875      -32.535       -4.247       37.897       35.532       19.662     1436.151     1262.543      386.581        0.527        0.154       86.247       11.042        0.016      340.279       14.190      869.581
11/07/2014  09:51:00      -60.936      -42.388        7.986       52.523       38.000       21.757     2758.668     1443.977      473.365        0.512        0.234       74.229       22.730        0.094      340.427       14.441      869.577
11/07/2014  09:52:00      -30.952      -56.152        5.935       35.718       37.872       21.250     1275.792     1434.276      451.552        0.365        0.158       64.118       26.872        0.176      340.445       14.472      869.574
11/07/2014  09:53:00      -18.643      -60.648       -4.847       17.133       20.574       13.478      293.548      423.309      181.655        0.247        0.045       63.449       10.569        0.028      340.202       14.058      869.564
11/07/2014  09:54:00      -57.715      -35.722      -12.143       14.771       15.609       11.886      218.174      243.649      141.267        0.268        0.030       67.876        5.778        0.007      340.269       14.173      869.567
11/07/2014  09:55:00      -32.976      -43.009       -4.101       13.880       20.407       13.107      192.645      416.460      171.783        0.187        0.039       54.196        8.121        0.022      340.324       14.264      869.570
11/07/2014  09:56:00        7.001      -20.094       18.336       80.851       34.694       29.586     6536.893     1203.706      875.315        0.470        0.431       21.279       29.455        1.916      340.605       14.741      869.581
11/07/2014  09:57:00        3.248      -23.704       14.548       48.576       33.928       24.272     2359.662     1151.104      589.153        0.244        0.205       23.925       25.870        1.169      340.755       14.994      869.578
11/07/2014  09:58:00       -9.981      -12.810       16.516       28.352       46.423       23.585      803.849     2155.135      556.273        0.203        0.176       16.239       25.763        2.517      340.820       15.105      869.582
11/07/2014  09:59:00       45.765      -94.919       -5.772       48.027       72.951       35.071     2306.630     5321.845     1229.961        1.000        0.443      105.376       41.312        0.154      340.991       15.394      869.579
11/07/2014  10:00:00        5.989       55.761       83.697       38.895       37.517       32.626     1512.783     1407.495     1064.425        0.707        0.199       56.082       18.840        0.113      341.123       15.616      869.586
11/07/2014  10:01:00       -2.589       25.512       37.195       50.373       38.483       19.675     2537.433     1480.931      387.121        0.322        0.220       25.643       10.806        0.178      340.966       15.353      869.585
11/07/2014  10:02:00       15.982       13.359       35.654       50.599       43.670       33.071     2560.259     1907.094     1093.688        0.363        0.278       20.830       30.657        2.166      341.129       15.629      869.601
11/07/2014  10:03:00       35.872       12.566       34.782       37.001       29.971       30.679     1369.091      898.283      941.189        0.293        0.160       38.010       26.371        0.481      340.940       15.308      869.603
11/07/2014  10:04:00       57.796       18.197       22.887       28.748       30.278       37.136      826.440      916.779     1379.117        0.366        0.156       60.593       24.091        0.158      340.649       14.815      869.603
11/07/2014  10:05:00       26.333       -7.192       46.230       31.607       58.467       43.332      999.019     3418.431     1877.626        0.459        0.315       27.297       42.025        2.370      341.044       15.484      869.585
11/07/2014  10:06:00       31.487       -5.269       36.501       50.179       51.423       41.505     2517.958     2644.276     1722.698        0.462        0.344       31.925       33.021        1.070      341.138       15.644      869.587
11/07/2014  10:07:00       25.517      -10.445       25.761       61.104       56.289       29.946     3733.680     3168.453      896.777        0.461        0.390       27.572       23.536        0.729      341.057       15.506      869.583
11/07/2014  10:08:00       15.909       -1.428       47.328       45.565       56.194       40.491     2076.161     3157.779     1639.503        0.468        0.344       15.973       23.224        2.114      341.405       16.094      869.589
11/07/2014  10:09:00       67.600       25.760       50.407       51.019       52.740       46.395     2602.983     2781.487     2152.540        0.765        0.377       72.342       49.899        0.476      340.867       15.184      869.601
11/07/2014  10:10:00       21.030       33.353       54.570       41.673       60.606       32.137     1736.654     3673.050     1032.756        0.549        0.322       39.430       26.472        0.451      340.992       15.395      869.608
11/07/2014  10:11:00       65.336      -45.562        7.150       42.735       51.672       33.635     1826.308     2669.947     1131.333        0.601        0.281       79.654       32.427        0.166      341.049       15.493      869.608
11/07/2014  10:12:00       10.297       50.313       72.864       40.179       50.681       31.722     1614.346     2568.539     1006.274        0.657        0.259       51.356       29.457        0.329      341.197       15.743      869.602
11/07/2014  10:13:00       51.918       36.614       51.938       43.506       42.962       36.680     1892.747     1845.751     1345.394        0.591        0.254       63.530       15.320        0.058      341.177       15.707      869.594
11/07/2014  10:14:00       59.998       19.379       44.996       44.343       29.966       35.249     1966.344      897.972     1242.503        0.505        0.205       63.050       20.267        0.103      340.886       15.216      869.602
11/07/2014  10:15:00       26.468       54.653       71.524       48.353       58.517       41.389     2338.039     3424.192     1713.019        0.814        0.374       60.725       41.919        0.477      340.996       15.402      869.583
11/07/2014  10:16:00      144.870       91.121       30.122       53.630       35.476       45.530     2876.176     1258.540     2072.954        1.820        0.310      171.144       28.454        0.028      340.752       14.989      869.579
11/07/2014  10:17:00       86.632       75.115        9.726       48.316       29.021       34.708     2334.461      842.239     1204.627        0.881        0.219      114.662       19.769        0.030      340.825       15.113      869.564
11/07/2014  10:18:00       58.132       61.964       38.275       61.851       45.048       41.844     3825.553     2029.341     1750.926        0.814        0.380       84.964       36.114        0.181      341.153       15.669      869.543
11/07/2014  10:19:00       75.485       73.874       45.277       38.097       32.773       31.246     1451.379     1074.058      976.302        0.835        0.175      105.618       18.428        0.030      341.199       15.746      869.534
11/07/2014  10:20:00       -9.710       14.551       26.606       52.185       53.113       37.015     2723.305     2821.023     1370.124        0.396        0.346       17.493       32.477        3.447      341.432       16.140      869.519
11/07/2014  10:21:00       44.530      -89.368       10.493       47.898       51.626       32.561     2294.176     2665.247     1060.220        0.805        0.301       99.847       35.071        0.123      341.289       15.897      869.522
11/07/2014  10:22:00       37.121      -31.689       20.594       37.016       39.190       31.909     1370.206     1535.893     1018.178        0.336        0.196       48.807       29.554        0.367      341.222       15.785      869.519
11/07/2014  10:23:00       14.281      -62.309       17.546       44.302       66.312       37.436     1962.642     4397.344     1401.464        0.608        0.388       63.925       25.101        0.154      341.352       16.003      869.513
11/07/2014  10:24:00       47.710      -18.678       24.210       46.121       56.228       45.260     2127.111     3161.622     2048.450        0.527        0.367       51.236       46.010        0.806      341.452       16.175      869.522
11/07/2014  10:25:00        2.723        4.489       27.367       18.409       52.494       35.481      338.890     2755.590     1258.916        0.256        0.218        5.251       35.679       46.170      341.411       16.106      869.521
11/07/2014  10:26:00       -0.495      -25.535       18.633       23.271       40.316       23.084      541.545     1625.381      532.857        0.185        0.135       25.539       12.548        0.241      341.657       16.522      869.519
11/07/2014  10:27:00      -14.134      -52.788        4.617       34.498       25.493       24.339     1190.115      649.900      592.379        0.272        0.122       54.648       12.804        0.055      341.397       16.082      869.505
11/07/2014  10:28:00      -20.839      -24.612      -10.994       29.194       15.826       12.310      852.290      250.466      151.528        0.121        0.063       32.250        8.075        0.063      341.177       15.709      869.501
11/07/2014  10:29:00      -11.740      -19.476       25.217       12.678       25.615       19.154      160.744      656.152      366.857        0.117        0.059       22.740        9.627        0.179      341.715       16.620      869.494
11/07/2014  10:30:00      -35.780      -19.909        5.093       31.622       19.387       15.649      999.961      375.839      244.889        0.166        0.081       40.946       11.571        0.080      341.355       16.009      869.478
11/07/2014  10:31:00       -8.872       -7.997       10.284       24.489       15.723       16.418      599.691      247.220      269.545        0.068        0.056       11.944       10.617        0.790      341.674       16.552      869.461
11/07/2014  10:32:00       -2.489       -7.942        7.598       21.394       34.052       19.038      457.710     1159.570      362.450        0.105        0.099        8.323        8.113        0.950      341.560       16.356      869.452
11/07/2014  10:33:00       53.881      -56.820        8.687       61.088       84.325       57.685     3731.734     7110.702     3327.509        1.019        0.708       78.305       56.425        0.519      341.533       16.313      869.421
11/07/2014  10:34:00       22.126      -38.047       36.276       42.917       61.865       46.465     1841.846     3827.288     2158.977        0.554        0.391       44.013       41.076        0.871      341.612       16.447      869.419
11/07/2014  10:35:00       33.277      -10.484       45.873       42.476       54.438       38.999     1804.175     2963.473     1520.953        0.480        0.314       34.890       39.088        1.255      341.750       16.680      869.412
11/07/2014  10:36:00       10.272        2.094       34.236       36.622       41.850       29.410     1341.167     1751.463      864.960        0.262        0.198       10.483       27.208        6.736      341.794       16.756      869.408
11/07/2014  10:37:00       33.489      -11.287       20.209       48.145       49.047       43.760     2317.983     2405.633     1914.947        0.415        0.332       35.340       42.096        1.419      341.705       16.605      869.407
11/07/2014  10:38:00        7.782      -66.054       -4.551       35.133       42.147       41.457     1234.337     1776.352     1718.714        0.459        0.236       66.511       28.089        0.178      341.600       16.426      869.389
11/07/2014  10:39:00       11.311       -4.696       35.721       26.174       31.901       24.060      685.056     1017.705      578.893        0.185        0.114       12.247       12.278        1.005      341.815       16.790      869.384
11/07/2014  10:40:00        3.050      -29.032       12.982       24.624       55.741       35.994      606.327     3107.027     1295.603        0.301        0.250       29.192       32.779        1.261      341.789       16.747      869.363
11/07/2014  10:41:00       27.095      -51.244       -9.535       39.589       35.038       37.430     1567.291     1227.695     1401.010        0.382        0.210       57.966       31.586        0.297      341.512       16.275      869.359
11/07/2014  10:42:00        6.930      -43.166       13.345       45.538       40.555       33.777     2073.678     1644.704     1140.863        0.347        0.243       43.718       13.312        0.093      341.645       16.502      869.350
11/07/2014  10:43:00       35.465       -5.848       41.061       34.154       35.173       32.780     1166.526     1237.115     1074.547        0.323        0.174       35.944       19.888        0.306      341.846       16.842      869.332
11/07/2014  10:44:00       41.156       40.017       58.413       40.931       33.468       27.017     1675.331     1120.138      729.912        0.512        0.176       57.403       23.989        0.175      341.597       16.420      869.320
11/07/2014  10:45:00       28.787       45.535       53.807       33.941       43.237       23.912     1152.018     1869.421      571.784        0.469        0.180       53.872        8.909        0.027      341.648       16.506      869.303
11/07/2014  10:46:00       19.283      -10.443       50.939       43.150       59.583       35.385     1861.891     3550.092     1252.069        0.487        0.333       21.929       19.791        0.814      341.922       16.972      869.277
11/07/2014  10:47:00       42.132      -14.080       29.748       38.283       59.290       30.662     1465.602     3515.317      940.138        0.439        0.296       44.423       36.856        0.688      341.704       16.603      869.275
11/07/2014  10:48:00       75.839       86.990       57.960       61.735       34.531       50.912     3811.160     1192.409     2592.044        1.214        0.380      115.408       35.534        0.095      341.451       16.173      869.254
11/07/2014  10:49:00       38.728       41.750       22.606       51.891       59.101       47.202     2692.699     3492.907     2228.035        0.608        0.421       56.947       32.571        0.327      341.828       16.812      869.243
11/07/2014  10:50:00       15.591       40.516       71.639       33.527       47.336       37.412     1124.086     2240.718     1399.648        0.589        0.238       43.413       34.025        0.614      342.102       17.277      869.247
11/07/2014  10:51:00       53.743       66.083       63.222       52.414       53.161       41.513     2747.247     2826.137     1723.334        0.927        0.365       85.178       31.101        0.133      341.770       16.714      869.246
11/07/2014  10:52:00      111.159       81.462       49.484       55.210       32.141       34.861     3048.127     1033.045     1215.293        1.337        0.265      137.812       10.301        0.006      341.402       16.091      869.263
11/07/2014  10:53:00      113.422       67.458       22.648       33.853       37.851       35.535     1146.015     1432.686     1262.724        1.088        0.192      131.966       26.699        0.041      341.573       16.379      869.260
11/07/2014  10:54:00      102.782       40.801        6.801       63.114       41.158       34.165     3983.315     1693.983     1167.218        0.956        0.342      110.584       27.691        0.063      341.869       16.881      869.254
11/07/2014  10:55:00       43.867       43.282       35.324       51.150       43.806       42.731     2616.299     1918.951     1825.917        0.570        0.318       61.625       24.879        0.163      342.052       17.191      869.255
11/07/2014  10:56:00       91.202       97.576       68.585       78.395       56.578       59.552     6145.712     3201.052     3546.498        1.772        0.645      133.562       43.899        0.108      341.679       16.558      869.248
11/07/2014  10:57:00       12.275       39.555       46.948       40.334       37.174       31.810     1626.811     1381.892     1011.865        0.397        0.201       41.416       20.860        0.254      341.952       17.021      869.238
11/07/2014  10:58:00       32.854       32.551       52.454       39.801       54.060       36.165     1584.127     2922.523     1307.929        0.535        0.291       46.249       27.905        0.364      341.649       16.508      869.231
11/07/2014  10:59:00       35.499       64.932       76.893       43.873       37.079       27.308     1924.872     1374.858      745.706        0.772        0.202       74.002       14.572        0.039      341.659       16.525      869.218
11/07/2014  11:00:00       52.151      -25.129       13.417       29.591       40.833       27.187      875.647     1667.356      739.149        0.341        0.164       57.890       33.473        0.334      341.429       16.136      869.205
11/07/2014  11:01:00       32.600       42.347       55.063       40.558       45.565       35.246     1644.967     2076.189     1242.293        0.542        0.248       53.442       29.048        0.295      341.838       16.829      869.181
11/07/2014  11:02:00      146.183       81.359       13.154       63.758       49.453       47.399     4065.142     2445.633     2246.655        1.846        0.438      167.299       34.793        0.043      341.554       16.347      869.168
11/07/2014  11:03:00       64.600       65.742       34.033       72.054       69.526       43.008     5191.770     4833.842     1849.719        1.076        0.594       92.169       34.636        0.141      341.994       17.094      869.152
11/07/2014  11:04:00       78.604       66.977       16.589       49.327       39.393       30.265     2433.147     1551.848      915.974        0.792        0.245      103.269       10.990        0.011      341.898       16.930      869.142
11/07/2014  11:05:00       28.728       55.836       43.237       38.984       27.046       30.126     1519.733      731.480      907.603        0.448        0.158       62.793       27.665        0.194      341.958       17.033      869.122
11/07/2014  11:06:00       39.092       39.720       51.457       37.224       49.350       36.109     1385.631     2435.457     1303.892        0.544        0.256       55.730       23.058        0.171      341.842       16.836      869.115
11/07/2014  11:07:00       38.814       55.103       44.450       52.004       48.766       36.791     2704.438     2378.147     1353.596        0.648        0.322       67.401       16.598        0.061      342.055       17.196      869.105
11/07/2014  11:08:00      106.288       84.908       53.460       34.028       29.007       27.546     1157.918      841.397      758.797        1.206        0.138      136.039       12.181        0.008      341.763       16.702      869.095
11/07/2014  11:09:00       62.109       46.942       65.206       49.714       58.437       36.673     2471.445     3414.887     1344.872        0.877        0.362       77.853       28.863        0.137      342.174       17.400      869.095
11/07/2014  11:10:00       79.834       70.324       12.048       34.857       23.948       23.235     1215.042      573.485      539.842        0.690        0.116      106.390       15.453        0.021      341.588       16.406      869.086
11/07/2014  11:11:00       19.599       21.645        9.320       20.050       22.229       19.385      401.996      494.145      375.787        0.111        0.064       29.200       15.330        0.276      341.949       17.019      869.068
11/07/2014  11:12:00      -15.929       -6.045        3.495       21.351       13.019       18.749      455.844      169.494      351.540        0.064        0.049       17.038       10.657        0.391      342.108       17.287      869.063
11/07/2014  11:13:00       -9.177       19.420       13.334       15.947       18.101       16.046      254.305      327.647      257.475        0.074        0.042       21.479        8.446        0.155      342.390       17.767      869.053
11/07/2014  11:14:00       -8.665        8.701        0.813       13.606       17.018       15.422      185.116      289.613      237.848        0.043        0.036       12.280       12.036        0.961      342.439       17.851      869.031
11/07/2014  11:15:00       -0.042       -0.411       33.692       21.845       48.441       28.665      477.216     2346.561      821.694        0.239        0.182        0.413       27.694     4496.425      342.444       17.856      869.019
11/07/2014  11:16:00       18.746       48.198       68.151       34.808       68.056       36.148     1211.564     4631.651     1306.686        0.723        0.357       51.715       42.392        0.672      342.375       17.742      868.995
11/07/2014  11:17:00       20.833      -45.745       22.341       46.767       71.784       40.456     2187.198     5152.906     1636.688        0.600        0.449       50.265       41.966        0.697      342.378       17.746      868.971
11/07/2014  11:18:00       12.784        2.681       55.321       38.704       59.462       38.793     1498.027     3535.676     1504.910        0.488        0.327       13.062       37.172        8.099      342.760       18.395      868.958
11/07/2014  11:19:00       20.582      -20.781       30.820       50.227       76.170       57.338     2522.793     5801.895     3287.604        0.671        0.581       29.249       58.071        3.942      342.168       17.389      868.938
11/07/2014  11:20:00       86.086      102.104       33.516       57.557       46.974       49.153     3312.776     2206.574     2416.021        1.345        0.397      133.551       41.561        0.097      342.163       17.380      868.922
11/07/2014  11:21:00       68.667       78.041       -8.103       21.434       28.239       32.469      459.398      797.446     1054.246        0.659        0.116      103.950       24.416        0.055      341.882       16.905      868.919
11/07/2014  11:22:00       38.164       45.276       17.211       29.702       27.914       19.799      882.180      779.185      392.017        0.293        0.103       59.215       12.689        0.046      341.968       17.049      868.898
11/07/2014  11:23:00        5.290       19.003       -5.841       14.367       19.413       11.161      206.397      376.857      124.562        0.057        0.035       19.725        9.830        0.248      342.073       17.228      868.898
11/07/2014  11:24:00        8.344      -41.442      -22.950       13.449       28.241       13.801      180.870      797.534      190.459        0.174        0.058       42.273        5.477        0.017      341.994       17.093      868.879
11/07/2014  11:25:00      -13.282      -19.265        1.535       18.299       26.296       16.069      334.848      691.479      258.211        0.092        0.064       23.400       13.498        0.333      342.402       17.787      868.854
11/07/2014  11:26:00       14.846       30.965        9.148       28.328       37.312       27.230      802.459     1392.171      741.477        0.210        0.147       34.340       14.026        0.167      342.526       17.998      868.848
11/07/2014  11:27:00       -7.322       46.779       81.314       32.204       49.739       41.536     1037.103     2474.006     1725.261        0.704        0.262       47.348       37.421        0.625      342.842       18.535      868.829
11/07/2014  11:28:00       23.765       -4.187       21.016       23.394       31.582       36.910      547.282      997.445     1362.313        0.196        0.145       24.131       28.149        1.361      342.423       17.822      868.832
11/07/2014  11:29:00       38.817       48.225       64.381       55.108       52.388       42.428     3036.894     2744.487     1800.139        0.778        0.379       61.907       31.145        0.253      342.763       18.401      868.816
11/07/2014  11:30:00       32.881        8.602        3.906       51.384       39.447       30.716     2640.298     1556.041      943.451        0.315        0.257       33.988       13.417        0.156      342.806       18.473      868.796
11/07/2014  11:31:00       84.658       36.093       71.968       64.871       78.142       55.065     4208.235     6106.100     3032.194        1.350        0.667       92.031       60.326        0.430      342.654       18.215      868.790
11/07/2014  11:32:00      143.263       88.652       31.436       41.301       47.203       54.579     1705.752     2228.157     2978.819        1.814        0.346      168.474       39.850        0.056      342.328       17.659      868.775
11/07/2014  11:33:00       33.793       27.045        2.847       31.232       23.507       23.539      975.415      552.566      554.086        0.198        0.104       43.283       17.161        0.157      342.323       17.653      868.756
11/07/2014  11:34:00       26.135       35.278       44.680       36.423       45.657       33.540     1326.618     2084.549     1124.945        0.423        0.227       43.904       30.026        0.468      342.565       18.064      868.736
11/07/2014  11:35:00       -5.841       64.038       92.033       31.293       44.330       24.992      979.262     1965.177      624.623        0.809        0.178       64.304       23.865        0.138      342.641       18.193      868.704
11/07/2014  11:36:00       47.829       -9.968       66.449       77.499       73.695       39.306     6006.052     5431.023     1545.000        0.989        0.649       48.857       48.563        0.988      342.614       18.147      868.694
11/07/2014  11:37:00       41.580       44.041       47.568       48.652       43.493       36.156     2367.000     1891.609     1307.246        0.575        0.278       60.568       33.572        0.307      342.336       17.675      868.688
11/07/2014  11:38:00        5.255      -19.956       21.992       33.484       53.948       29.215     1121.152     2910.375      853.500        0.290        0.244       20.636       22.665        1.206      342.318       17.644      868.687
11/07/2014  11:39:00       -0.444      -18.057       -4.923       24.650       26.498       20.603      607.619      702.166      424.482        0.104        0.087       18.063       13.564        0.564      342.283       17.584      868.692
11/07/2014  11:40:00        6.304      -33.796      -20.801       26.264       19.479        9.492      689.816      379.434       90.092        0.139        0.058       34.379       11.831        0.118      342.157       17.369      868.673
11/07/2014  11:41:00        7.877      -14.809       -3.554       55.242       39.365       25.674     3051.659     1549.635      659.171        0.278        0.263       16.774       12.535        0.558      342.201       17.444      868.670
11/07/2014  11:42:00       71.924      -10.794       -0.438       55.373       39.902       23.742     3066.188     1592.142      563.689        0.525        0.261       72.729       26.914        0.137      342.416       17.811      868.659
11/07/2014  11:43:00       57.111      -57.634        7.397       48.245       47.346       33.421     2327.567     2241.612     1116.983        0.616        0.284       81.138       31.939        0.155      342.551       18.040      868.631
11/07/2014  11:44:00       36.585       59.105       58.699       42.249       52.472       31.375     1785.008     2753.261      984.384        0.690        0.276       69.512       28.149        0.164      342.559       18.053      868.630
11/07/2014  11:45:00       18.005       25.117       51.478       31.949       50.510       27.458     1020.723     2551.270      753.959        0.396        0.216       30.904       29.299        0.899      342.564       18.063      868.608
11/07/2014  11:46:00       38.207       78.595       13.981       51.908       48.895       38.620     2694.430     2390.714     1491.474        0.720        0.329       87.389       33.191        0.144      342.598       18.120      868.588
11/07/2014  11:47:00      110.874       10.335       19.810       59.692       49.105       48.120     3563.105     2411.282     2315.570        1.054        0.414      111.354       31.669        0.081      342.597       18.118      868.585
11/07/2014  11:48:00      126.997       64.375       11.492       53.055       32.850       34.954     2814.848     1079.142     1221.780        1.276        0.256      142.381       26.646        0.035      342.395       17.774      868.567
11/07/2014  11:49:00       69.724       71.659       54.826       87.496       47.516       43.044     7655.484     2257.815     1852.780        1.238        0.588       99.982       45.293        0.205      342.667       18.238      868.551
11/07/2014  11:50:00       91.045       64.589       -1.880       40.121       44.316       27.110     1609.690     1963.876      734.945        0.839        0.215      111.629       23.379        0.044      342.577       18.084      868.529
11/07/2014  11:51:00      101.075       42.546       -6.240       37.788       31.316       20.131     1427.934      980.684      405.265        0.744        0.141      109.665       10.731        0.010      342.447       17.864      868.495
11/07/2014  11:52:00       54.387       18.183      -24.838       26.721       27.239       17.436      713.994      741.973      304.001        0.283        0.088       57.345       13.324        0.054      342.356       17.709      868.483
11/07/2014  11:53:00       61.953       21.208        4.005       36.207       31.337       27.448     1310.939      981.987      753.405        0.367        0.152       65.483       13.808        0.044      342.444       17.857      868.467
11/07/2014  11:54:00       34.850      -28.457       24.036       26.206       27.161       18.987      686.759      737.731      360.523        0.219        0.089       44.993       15.715        0.122      342.698       18.289      868.454
11/07/2014  11:55:00      -42.157       -9.505      -13.360       22.192       25.698       21.533      492.471      660.379      463.669        0.183        0.081       43.215        6.423        0.022      342.527       17.999      868.456
11/07/2014  11:56:00      -34.960      -16.968        0.121       29.587       35.402       20.443      875.401     1253.336      417.923        0.203        0.127       38.860       12.858        0.109      342.686       18.269      868.443
11/07/2014  11:57:00       10.107       14.827       40.321       27.966       63.443       45.157      782.103     4024.997     2039.152        0.440        0.342       17.944       49.346        7.563      342.852       18.551      868.427
11/07/2014  11:58:00       30.970       46.735       77.949       48.048       40.553       35.074     2308.608     1644.539     1230.172        0.720        0.259       56.065       29.291        0.273      342.738       18.358      868.424
11/07/2014  11:59:00       95.678      -38.376       20.998       72.194       72.470       52.874     5212.016     5251.856     2795.639        1.216        0.663      103.087       53.120        0.266      342.554       18.045      868.394
11/07/2014  12:00:00       48.667      -82.806        6.125       37.381       67.802       46.370     1397.361     4597.083     2150.194        0.870        0.407       96.049       40.458        0.177      342.767       18.408      868.385
11/07/2014  12:01:00       33.343        8.551       50.152       62.572       52.421       38.115     3915.253     2747.974     1452.733        0.591        0.406       34.422       38.201        1.232      342.912       18.653      868.357
11/07/2014  12:02:00       82.205     -128.892       -5.988       44.610       53.956       31.934     1990.020     2911.266     1019.802        1.466        0.296      152.875       27.078        0.031      342.540       18.021      868.345
11/07/2014  12:03:00       58.035      -41.358       -6.811       26.629       43.380       35.494      709.101     1881.828     1259.794        0.449        0.193       71.264       21.363        0.090      342.567       18.067      868.337
11/07/2014  12:04:00       17.800      -79.822      -11.112       32.311       50.300       23.468     1043.974     2530.131      550.734        0.547        0.206       81.783       18.861        0.053      342.712       18.314      868.304
11/07/2014  12:05:00       28.437     -134.148      -18.219       57.654       34.481       24.425     3324.021     1188.970      596.586        1.212        0.255      137.129       17.188        0.016      342.735       18.352      868.296
11/07/2014  12:06:00       82.100     -117.264      -16.410       38.485       76.227       30.951     1481.075     5810.507      957.971        1.450        0.412      143.148       38.067        0.071      342.678       18.255      868.269
11/07/2014  12:07:00       41.119      -71.499        6.330       48.888       69.648       52.398     2390.019     4850.850     2745.583        0.841        0.499       82.480       57.130        0.480      343.124       19.016      868.243
11/07/2014  12:08:00       17.127      -87.414       18.717       43.850       41.910       42.403     1922.834     1756.416     1798.017        0.688        0.274       89.076       31.117        0.122      343.042       18.874      868.223
11/07/2014  12:09:00       40.474       28.921       73.375       66.187       81.809       50.828     4380.766     6692.745     2583.458        1.075        0.683       49.745       49.988        1.010      343.051       18.889      868.192
11/07/2014  12:10:00       21.963       55.955       59.441       40.752       44.014       32.968     1660.690     1937.189     1086.878        0.591        0.234       60.111       16.495        0.075      343.101       18.976      868.176
11/07/2014  12:11:00       31.375       78.854       94.437       71.015       62.186       44.220     5043.110     3867.069     1955.391        1.349        0.543       84.867       41.940        0.244      342.757       18.390      868.158
11/07/2014  12:12:00       25.218       24.064       49.247       61.185       61.280       62.107     3743.544     3755.249     3857.234        0.750        0.568       34.857       55.872        2.569      343.008       18.817      868.154
11/07/2014  12:13:00       13.277       38.281       40.741       33.495       37.155       27.920     1121.919     1380.514      779.524        0.329        0.164       40.518       12.490        0.095      343.129       19.024      868.152
11/07/2014  12:14:00       -5.494      -19.507       33.770       36.273       43.741       42.107     1315.727     1913.295     1772.963        0.328        0.250       20.266       28.276        1.947      343.382       19.455      868.132
11/07/2014  12:15:00       64.059       76.011       75.155       53.966       46.566       43.179     2912.281     2168.432     1864.407        1.124        0.347       99.404       29.393        0.087      342.836       18.525      868.130
11/07/2014  12:16:00       66.893        7.791       51.450       51.287       63.645       48.803     2630.316     4050.670     2381.708        0.812        0.453       67.345       37.332        0.307      342.763       18.400      868.131
11/07/2014  12:17:00       91.718      -55.386       11.279       52.416       59.062       40.392     2747.480     3488.270     1631.523        0.974        0.393      107.144       40.963        0.146      342.860       18.564      868.116
11/07/2014  12:18:00      119.986      -86.460       12.797       74.707       76.440       39.955     5581.115     5843.039     1596.398        1.753        0.651      147.892       33.211        0.050      342.965       18.743      868.097
11/07/2014  12:19:00       24.749      -14.041       32.633       42.407       56.631       40.721     1798.330     3207.098     1658.238        0.427        0.333       28.455       40.305        2.006      343.295       19.306      868.087
11/07/2014  12:20:00       65.898      -54.965       18.482       55.573       85.971       48.491     3088.310     7390.984     2351.407        1.027        0.642       85.812       56.977        0.441      343.218       19.175      868.073
11/07/2014  12:21:00       90.558       57.529       65.126       70.652       56.173       50.519     4991.726     3155.411     2552.157        1.322        0.535      107.286       44.752        0.174      342.911       18.651      868.069
11/07/2014  12:22:00       50.688       39.714       71.108       72.573       64.780       48.761     5266.826     4196.473     2377.614        1.052        0.592       64.393       48.629        0.570      342.964       18.742      868.053
11/07/2014  12:23:00       95.087       60.994       64.447       62.912       52.067       43.927     3957.862     2710.958     1929.600        1.276        0.430      112.969       36.367        0.104      343.036       18.864      868.024
11/07/2014  12:24:00       45.344       16.348        3.795       30.124       29.633       25.107      907.483      878.098      630.364        0.238        0.121       48.201       11.991        0.062      343.016       18.831      868.016
11/07/2014  12:25:00       25.899       34.920       33.535       49.170       40.450       31.855     2417.676     1636.201     1014.754        0.404        0.253       43.476       18.976        0.191      343.423       19.523      867.991
11/07/2014  12:26:00      136.784      117.595       17.770       61.817       61.208       49.371     3821.390     3746.458     2437.455        2.143        0.500      180.384       33.885        0.035      343.015       18.827      867.975
11/07/2014  12:27:00       63.063      106.457       -6.213       62.214       62.088       35.741     3870.619     3854.909     1277.428        1.217        0.450      123.734       32.661        0.070      343.092       18.959      867.963
11/07/2014  12:28:00       62.307       80.048       14.672       48.522       58.425       40.992     2354.362     3413.521     1680.356        0.898        0.372      101.439       35.801        0.125      343.144       19.048      867.948
11/07/2014  12:29:00       -6.849      -17.690       28.633       35.333       42.115       34.233     1248.409     1773.631     1171.907        0.269        0.210       18.970       18.466        0.948      343.557       19.752      867.941
11/07/2014  12:30:00       26.809       59.538       55.722       56.834       45.466       45.637     3230.068     2067.127     2082.726        0.737        0.369       65.296       33.905        0.270      343.250       19.231      867.936
11/07/2014  12:31:00       26.781       -8.873       13.885       33.991       61.902       27.663     1155.373     3831.901      765.235        0.337        0.288       28.213       21.479        0.580      343.223       19.184      867.912
11/07/2014  12:32:00        6.577       -6.862        4.158       31.849       49.803       21.860     1014.361     2480.318      477.858        0.204        0.199        9.505       15.566        2.682      343.523       19.695      867.887
11/07/2014  12:33:00       46.665       34.994       28.878       46.798       40.446       57.607     2190.093     1635.881     3318.598        0.569        0.357       58.328       30.924        0.281      343.342       19.386      867.866
11/07/2014  12:34:00       85.372       72.848       21.005       34.540       30.262       34.734     1193.044      915.769     1206.485        0.818        0.166      112.229       21.648        0.037      343.184       19.118      867.847
11/07/2014  12:35:00       79.301       61.331       10.868       45.885       27.679       23.263     2105.389      766.126      541.169        0.679        0.171      100.250       18.329        0.033      343.076       18.934      867.822
11/07/2014  12:36:00       12.655       81.654       -2.093       34.971       68.945       33.859     1222.977     4753.359     1146.400        0.698        0.356       82.629       40.540        0.241      343.244       19.220      867.798
11/07/2014  12:37:00       42.821      131.088      -12.233       48.283       65.074       38.461     2331.292     4234.588     1479.265        1.360        0.402      137.904       37.111        0.072      343.137       19.038      867.778
11/07/2014  12:38:00       21.615       79.615       -6.266       37.021       53.854       30.437     1370.586     2900.297      926.423        0.602        0.260       82.497       30.261        0.135      343.217       19.174      867.765
11/07/2014  12:39:00       -1.534       11.120       10.865       18.614       16.687       21.241      346.488      278.467      451.183        0.066        0.054       11.225       15.275        1.852      343.756       20.092      867.752
11/07/2014  12:40:00       30.402       -1.027       12.235       33.804       45.221       27.054     1142.724     2044.930      731.907        0.250        0.196       30.419       25.564        0.706      343.530       19.706      867.746
11/07/2014  12:41:00       98.187      -83.988       25.211       63.612       49.140       38.889     4046.434     2414.707     1512.369        1.265        0.399      129.208       32.128        0.062      343.222       19.183      867.738
11/07/2014  12:42:00       34.833       40.888       66.771       54.503       58.745       42.383     2970.596     3450.979     1796.282        0.778        0.411       53.714       42.082        0.614      343.560       19.759      867.719
11/07/2014  12:43:00       45.160       84.829       84.435       59.255       67.949       36.173     3511.214     4617.018     1308.503        1.290        0.472       96.101       32.121        0.112      343.198       19.140      867.721
11/07/2014  12:44:00       49.095       56.143       18.869       39.749       31.076       33.627     1579.954      965.710     1130.765        0.480        0.184       74.581       18.479        0.061      343.238       19.209      867.720
11/07/2014  12:45:00       26.641       41.856       -1.155       30.646       33.790       20.805      939.168     1141.798      432.838        0.249        0.126       49.616       15.247        0.094      343.400       19.485      867.717
11/07/2014  12:46:00       23.784        6.263        4.340       53.526       34.286       33.330     2865.066     1175.539     1110.890        0.289        0.258       24.595       35.588        2.094      343.422       19.522      867.707
11/07/2014  12:47:00       33.732       69.196       10.786       35.993       46.386       32.329     1295.517     2151.704     1045.152        0.527        0.225       76.980       27.111        0.124      343.482       19.625      867.701
11/07/2014  12:48:00       42.067       51.225       10.155       51.313       46.422       30.888     2633.027     2154.986      954.049        0.512        0.287       66.285       16.882        0.065      343.428       19.533      867.690
11/07/2014  12:49:00      -62.259       -0.964       -5.827       47.766       32.469       31.459     2281.594     1054.266      989.687        0.412        0.216       62.266       24.874        0.160      343.650       19.910      867.684
11/07/2014  12:50:00      -25.767       13.488        7.907       18.388       16.143       19.912      338.106      260.601      396.475        0.095        0.050       29.084       13.882        0.228      343.838       20.231      867.681
11/07/2014  12:51:00        2.080       16.984       17.002       48.464       26.433       27.060     2348.721      698.692      732.238        0.218        0.189       17.111       32.759        3.665      343.733       20.054      867.676
11/07/2014  12:52:00       54.851       44.405       26.805       23.627       14.127       33.031      558.220      199.578     1091.047        0.377        0.092       70.572       17.136        0.059      343.389       19.466      867.685
11/07/2014  12:53:00      185.209      111.321       45.162       77.525       57.745       50.963     6010.084     3334.435     2597.193        3.034        0.597      216.090       41.701        0.037      343.453       19.571      867.686
11/07/2014  12:54:00      210.353      137.291       13.581       49.730       40.236       43.243     2473.100     1618.955     1869.978        3.462        0.298      251.191       25.556        0.010      343.391       19.465      867.685
11/07/2014  12:55:00      145.190       84.084       13.461       51.591       58.990       46.528     2661.672     3479.768     2164.867        1.832        0.415      167.781       23.399        0.019      343.403       19.489      867.692
11/07/2014  12:56:00       93.756       71.333       20.756       60.105       42.053       49.384     3612.607     1768.479     2438.777        1.106        0.391      117.807       25.298        0.046      343.461       19.589      867.689
11/07/2014  12:57:00       58.971       54.213       32.719       54.457       52.234       38.117     2965.556     2728.348     1452.942        0.732        0.357       80.104       21.568        0.072      343.514       19.679      867.662
11/07/2014  12:58:00       42.593       38.903       60.067       51.920       56.476       32.979     2695.726     3189.572     1087.597        0.695        0.349       57.685       32.172        0.311      343.510       19.672      867.649
11/07/2014  12:59:00       74.724       59.545       30.712       33.665       22.380       26.081     1133.303      500.873      680.218        0.619        0.116       95.548       17.306        0.033      343.258       19.245      867.645
11/07/2014  13:00:00       78.846       -3.361       36.260       44.306       44.357       39.054     1963.011     1967.525     1525.188        0.650        0.273       78.917       35.828        0.206      343.316       19.342      867.624
11/07/2014  13:01:00       23.206      -48.644       10.955       31.724       47.137       22.360     1006.425     2221.943      499.987        0.338        0.186       53.896       28.866        0.287      343.541       19.725      867.598
11/07/2014  13:02:00        6.962      -94.945       -2.593       22.262       21.882       28.476      495.587      478.820      810.891        0.543        0.089       95.200       15.470        0.026      343.522       19.693      867.567
11/07/2014  13:03:00       41.177      -30.316        7.333       38.964       41.843       22.647     1518.203     1750.804      512.902        0.322        0.189       51.133       14.537        0.081      343.467       19.600      867.548
11/07/2014  13:04:00       31.529       16.828       29.410       56.106       28.671       22.924     3147.928      822.043      525.520        0.332        0.225       35.739       17.911        0.251      343.681       19.964      867.526
11/07/2014  13:05:00       18.243       -2.163       13.932       47.951       40.717       28.522     2299.313     1657.834      813.514        0.265        0.239       18.371       21.612        1.384      343.686       19.973      867.515
11/07/2014  13:06:00       44.877      -87.606       14.508       56.943       47.302       40.190     3242.546     2237.447     1615.234        0.850        0.355       98.431       34.986        0.126      343.690       19.979      867.503
11/07/2014  13:07:00       74.110        8.510       18.655       48.450       56.697       31.315     2347.417     3214.586      980.639        0.623        0.327       74.596       24.967        0.112      343.492       19.643      867.488
11/07/2014  13:08:00       45.182       52.817       -2.630       25.148       55.908       24.384      632.405     3125.671      594.561        0.459        0.218       69.505       26.047        0.140      343.652       19.914      867.465
11/07/2014  13:09:00       40.174       53.918       50.720       42.256       66.044       58.949     1785.530     4361.764     3474.969        0.836        0.481       67.239       54.428        0.655      343.672       19.948      867.456
11/07/2014  13:10:00       73.788       90.058       31.890       76.698       59.841       38.599     5882.616     3580.997     1489.890        1.276        0.548      116.427       30.906        0.070      343.613       19.848      867.452
11/07/2014  13:11:00       25.409      -29.919       15.383       47.283       46.180       33.201     2235.650     2132.561     1102.338        0.362        0.274       39.253       28.380        0.523      343.734       20.055      867.444
11/07/2014  13:12:00       65.852     -102.640      -13.917       59.885      103.178       40.629     3586.209    10645.756     1650.693        1.547        0.794      121.949       53.275        0.191      343.590       19.809      867.408
11/07/2014  13:13:00       54.529      -88.970       -4.397       40.045       70.111       32.758     1603.585     4915.483     1073.109        0.925        0.380      104.351       31.516        0.091      343.653       19.916      867.406
11/07/2014  13:14:00       66.673       72.122       13.126       50.520       45.507       41.869     2552.234     2070.880     1753.055        0.810        0.319       98.218       34.468        0.123      343.722       20.035      867.404
11/07/2014  13:15:00      113.208       85.030       22.248       47.019       51.309       42.624     2210.824     2632.611     1816.806        1.360        0.333      141.584       39.559        0.078      343.637       19.888      867.390
11/07/2014  13:16:00       88.837       96.970        2.299       77.716       46.360       39.040     6039.812     2149.235     1524.119        1.350        0.486      131.511       32.776        0.062      343.572       19.777      867.378
11/07/2014  13:17:00       17.846       78.929        0.861       55.003       47.855       33.067     3025.323     2290.059     1093.443        0.648        0.320       80.921       31.280        0.149      343.626       19.870      867.360
11/07/2014  13:18:00       61.198       43.206       -7.895       45.283       37.085       29.230     2050.583     1375.264      854.365        0.498        0.214       74.913       16.931        0.051      343.592       19.812      867.352
11/07/2014  13:19:00        4.359      -19.175       12.744       17.278       16.489       19.187      298.538      271.899      368.159        0.074        0.047       19.664       15.301        0.605      343.907       20.350      867.346
11/07/2014  13:20:00        1.900       24.634        4.225       34.380       25.884       16.593     1181.963      669.967      275.317        0.138        0.106       24.707       13.401        0.294      343.939       20.403      867.335
11/07/2014  13:21:00       72.000       46.875       12.682       49.003       41.700       23.876     2401.305     1738.924      570.086        0.613        0.236       85.914       19.469        0.051      343.856       20.262      867.330
11/07/2014  13:22:00      143.918       60.249        9.106       65.125       70.804       45.911     4241.228     5013.172     2107.816        1.789        0.568      156.020       27.062        0.030      343.843       20.238      867.317
11/07/2014  13:23:00      199.303      113.364       47.600       49.627       53.338       44.857     2462.835     2844.978     2012.176        3.108        0.366      229.288       19.170        0.007      343.744       20.068      867.316
11/07/2014  13:24:00       67.686       13.981       23.129       91.039       52.825       26.734     8288.140     2790.504      714.705        0.855        0.590       69.115       24.835        0.129      343.894       20.326      867.312
11/07/2014  13:25:00       77.081       -3.856       23.676       80.638       44.066       39.581     6502.409     1941.831     1566.684        0.826        0.501       77.178       46.601        0.365      343.576       19.784      867.305
11/07/2014  13:26:00       64.392        3.097       37.610       67.894       55.305       34.498     4609.538     3058.601     1190.137        0.721        0.443       64.466       34.591        0.288      343.728       20.046      867.281
11/07/2014  13:27:00       89.466        9.564       31.291       58.261       44.607       34.893     3394.307     1989.819     1217.529        0.784        0.330       89.976       25.399        0.080      343.629       19.876      867.255
11/07/2014  13:28:00       90.984       61.303       56.363       49.959       45.622       41.097     2495.922     2081.326     1688.969        1.074        0.313      109.709       28.925        0.070      343.630       19.875      867.244
11/07/2014  13:29:00       77.549     -115.906      -15.283       42.058       73.303       29.767     1768.892     5373.260      886.097        1.385        0.401      139.456       32.429        0.054      343.789       20.147      867.244
11/07/2014  13:30:00       12.420      -34.229       -2.591       16.997       50.945       18.018      288.910     2595.422      324.654        0.227        0.160       36.413       24.664        0.459      343.731       20.049      867.236
11/07/2014  13:31:00       37.873       36.547       46.734       47.253       33.433       31.036     2232.822     1117.766      963.207        0.463        0.216       52.631       27.410        0.271      343.840       20.236      867.228
11/07/2014  13:32:00       91.965       35.182       42.329       77.070       48.487       40.398     5939.768     2350.950     1632.009        1.070        0.496       98.465       35.653        0.131      343.765       20.108      867.222
11/07/2014  13:33:00       84.944       16.024       -8.375       64.999       43.336       46.660     4224.882     1877.969     2177.141        0.791        0.414       86.442       18.292        0.045      343.849       20.250      867.233
11/07/2014  13:34:00       42.578      -30.151      -10.834       43.044       52.923       26.640     1852.787     2800.794      709.701        0.410        0.268       52.172       26.605        0.260      343.983       20.479      867.239
11/07/2014  13:35:00       38.598      -48.422       -0.678       56.521       49.753       27.166     3194.680     2475.327      737.980        0.512        0.320       61.923       19.050        0.095      343.877       20.298      867.244
11/07/2014  13:36:00      -15.558       11.230       -4.489       17.803       37.786       18.924      316.963     1427.815      358.122        0.125        0.105       19.187        5.464        0.081      344.245       20.926      867.244
11/07/2014  13:37:00       16.684       29.394       35.955       32.797       32.741       22.856     1075.658     1071.985      522.397        0.255        0.134       33.799       16.886        0.250      344.307       21.034      867.243
11/07/2014  13:38:00       29.120      -59.166       22.654       65.093       98.695       50.674     4237.124     9740.753     2567.855        1.070        0.827       65.944       64.319        0.951      344.201       20.850      867.236
11/07/2014  13:39:00      115.508     -135.740      -29.505       52.317       68.056       21.623     2737.066     4631.555      467.563        2.024        0.392      178.235       15.833        0.008      343.687       19.972      867.231
11/07/2014  13:40:00       55.822      -69.677        2.932       29.468       44.090       35.241      868.373     1943.930     1241.958        0.602        0.203       89.280       14.898        0.028      343.960       20.440      867.217
11/07/2014  13:41:00       22.517      -75.521        2.605       43.049       35.022       29.912     1853.196     1226.550      894.731        0.510        0.199       78.806       25.748        0.107      344.009       20.524      867.202
11/07/2014  13:42:00       37.340      -52.642        6.614       36.752       46.544       29.843     1350.697     2166.328      890.593        0.431        0.220       64.540       28.245        0.192      344.100       20.680      867.187
11/07/2014  13:43:00       43.735        2.699       16.780       31.920       28.265       29.830     1018.877      798.913      889.800        0.245        0.135       43.818       23.296        0.283      344.100       20.680      867.202
11/07/2014  13:44:00       65.421       38.774       10.762       80.039       65.195       37.938     6406.239     4250.390     1439.320        0.900        0.605       76.048       15.902        0.044      344.108       20.693      867.196
11/07/2014  13:45:00       64.456       60.214       58.504       83.688       78.337       55.398     7003.637     6136.660     3068.922        1.370        0.810       88.205       43.299        0.241      344.010       20.525      867.199
11/07/2014  13:46:00       36.991       79.109       66.046       78.580       43.004       41.031     6174.840     1849.348     1683.583        1.085        0.485       87.330       43.946        0.253      343.995       20.500      867.208
11/07/2014  13:47:00       79.337       56.059        5.538       70.043       45.012       40.492     4906.088     2026.081     1639.584        0.902        0.429       97.144       24.210        0.062      344.020       20.543      867.211
11/07/2014  13:48:00       83.925       72.086       -8.871       58.305       31.502       31.915     3399.421      992.389     1018.583        0.886        0.271      110.634       19.036        0.030      343.968       20.453      867.210
11/07/2014  13:49:00       32.438       44.262       -0.548       37.146       25.424       21.263     1379.802      646.401      452.127        0.274        0.124       54.876       14.739        0.072      343.957       20.436      867.199
11/07/2014  13:50:00       93.280       46.055        2.375       28.131       20.412       28.304      791.332      416.662      801.091        0.642        0.100      104.030       21.622        0.043      343.814       20.191      867.199
11/07/2014  13:51:00       14.828       34.323        1.306       44.346       34.910       27.312     1966.540     1218.739      745.971        0.266        0.197       37.389       25.740        0.474      343.882       20.309      867.195
11/07/2014  13:52:00        8.087       15.485       35.563       30.812       32.379       23.809      949.382     1048.377      566.877        0.207        0.128       17.470       18.426        1.112      344.029       20.557      867.194
11/07/2014  13:53:00       36.210      -28.651        7.648       61.435       34.732       29.995     3774.276     1206.337      899.705        0.403        0.294       46.174       35.683        0.597      343.790       20.149      867.183
11/07/2014  13:54:00      -28.339       -0.724       -1.703       29.172       17.883       13.330      851.005      319.816      177.685        0.108        0.067       28.348       13.557        0.229      344.098       20.676      867.173
11/07/2014  13:55:00      -14.934      -13.474        7.458       39.813       31.684       18.457     1585.082     1003.845      340.670        0.169        0.146       20.115       14.490        0.519      344.257       20.948      867.172
11/07/2014  13:56:00       54.586      -34.876       -5.580       23.996       26.119       18.264      575.829      682.194      333.570        0.291        0.080       64.776        9.755        0.023      343.625       19.868      867.173
11/07/2014  13:57:00       35.159      -22.949        1.774       27.612       16.445       14.930      762.428      270.427      222.903        0.151        0.063       41.986       14.035        0.112      343.822       20.204      867.173
11/07/2014  13:58:00       64.755       45.004       18.062       50.167       29.422       20.988     2516.719      865.683      440.506        0.518        0.191       78.858       19.863        0.063      343.894       20.327      867.158
11/07/2014  13:59:00       66.313       43.699        3.877       29.500       22.770       21.729      870.251      518.474      472.133        0.409        0.093       79.417        3.728        0.002      343.958       20.437      867.147
11/07/2014  14:00:00      145.504      115.266       32.384       78.803       68.965       54.388     6209.990     4756.144     2958.006        2.471        0.696      185.628       39.919        0.046      344.153       20.768      867.144
11/07/2014  14:01:00       70.179       99.521      -11.308       46.661       67.989       46.813     2177.282     4622.539     2191.495        1.197        0.450      121.777       36.474        0.090      344.131       20.732      867.149
11/07/2014  14:02:00       18.582      103.723      -11.396       42.087       42.531       34.197     1771.354     1808.851     1169.405        0.799        0.237      105.374       29.076        0.076      344.059       20.609      867.161
11/07/2014  14:03:00       32.357       94.106      -16.883       43.769       67.597       38.070     1915.693     4569.398     1449.302        0.906        0.397       99.513       41.813        0.177      344.057       20.607      867.167
11/07/2014  14:04:00       83.624       58.762       19.295       72.017       27.413       25.810     5186.493      751.480      666.146        0.871        0.330      102.206       14.048        0.019      344.097       20.674      867.174
11/07/2014  14:05:00       20.412       20.226       -4.655       26.770       27.385       16.798      716.655      749.921      282.171        0.130        0.087       28.736        4.381        0.023      344.055       20.602      867.186
11/07/2014  14:06:00      -36.983      179.611      -24.818       27.149       59.637       20.167      737.065     3556.615      406.724        1.947        0.235      183.379       28.816        0.025      343.961       20.441      867.189
11/07/2014  14:07:00      -50.945      146.501      -19.091       52.803       74.902       20.044     2788.134     5610.380      401.781        1.661        0.440      155.106       21.992        0.020      343.991       20.493      867.186
11/07/2014  14:08:00      -64.332       69.774       -6.410       53.874       64.040       30.047     2902.382     4101.177      902.792        0.848        0.395       94.906       30.119        0.101      344.330       21.072      867.177
11/07/2014  14:09:00      -38.741      127.683       -5.684       36.357       40.143       30.587     1321.836     1611.442      935.575        1.085        0.193      133.431       25.696        0.037      344.275       20.979      867.167
11/07/2014  14:10:00      -26.684      105.443      -17.189       22.851       21.531       13.696      522.158      463.574      187.591        0.665        0.059      108.767        6.124        0.003      344.110       20.695      867.166
11/07/2014  14:11:00       -3.953       81.063       -2.422       19.358       36.328       21.034      374.717     1319.736      442.417        0.436        0.107       81.160       19.124        0.056      344.209       20.867      867.172
11/07/2014  14:12:00        2.774       83.750      -12.294       18.262       21.591       16.073      333.504      466.154      258.335        0.412        0.053       83.796       10.464        0.016      344.231       20.904      867.175
11/07/2014  14:13:00        9.961       -0.652       -7.707       35.109       39.336       19.356     1232.674     1547.327      374.644        0.166        0.158        9.983       11.727        1.380      344.288       21.000      867.182
11/07/2014  14:14:00       32.628       -4.693        8.767       16.134       21.823       14.993      260.297      476.226      224.797        0.106        0.048       32.964       14.514        0.194      343.849       20.249      867.175
11/07/2014  14:15:00       64.680       49.743        7.278       37.410       43.918       25.069     1399.479     1928.829      628.445        0.533        0.198       81.596       12.523        0.024      344.012       20.530      867.185
11/07/2014  14:16:00       21.182       -8.193       11.682       36.064       21.119       22.325     1300.614      446.006      498.391        0.145        0.112       22.711        7.422        0.107      344.217       20.879      867.194
11/07/2014  14:17:00        8.521       26.993       18.920       16.602       17.205       17.499      275.635      296.004      306.218        0.102        0.044       28.306        9.923        0.123      344.462       21.298      867.205
11/07/2014  14:18:00       30.153       56.159       10.598       19.136       25.463       17.213      366.205      648.380      296.277        0.274        0.066       63.743       15.470        0.059      344.346       21.100      867.211
11/07/2014  14:19:00      -24.872       81.862        2.004       40.418       37.311       19.781     1633.610     1392.078      391.293        0.537        0.171       85.557       21.802        0.065      344.480       21.329      867.204
11/07/2014  14:20:00      -48.894      163.511      -15.636       39.562       75.275       34.042     1565.178     5666.259     1158.866        1.888        0.420      170.664       42.957        0.063      344.388       21.169      867.212
11/07/2014  14:21:00       73.295       59.187       38.672       66.924       47.253       42.194     4478.873     2232.855     1780.313        0.943        0.425       94.208       27.552        0.086      344.394       21.181      867.208
11/07/2014  14:22:00       47.366       70.428       43.316       82.963       46.361       51.570     6882.782     2149.322     2659.451        1.038        0.585       84.874       25.563        0.091      344.398       21.188      867.208
11/07/2014  14:23:00      -85.832       77.758      -16.900       64.507       53.588       32.335     4161.151     2871.639     1045.581        1.089        0.404      115.817       28.974        0.063      344.473       21.316      867.202
11/07/2014  14:24:00      -89.690       11.357      -17.053       60.526       54.203       24.709     3663.430     2937.947      610.537        0.784        0.361       90.406       31.557        0.122      344.254       20.943      867.198
11/07/2014  14:25:00      -13.599      -14.511        3.175       39.174       30.558       23.777     1534.590      933.775      565.344        0.172        0.152       19.887       15.147        0.580      344.395       21.183      867.197
11/07/2014  14:26:00        1.402       -3.284       17.754       17.120       17.296       14.971      293.080      299.163      224.144        0.057        0.041        3.570        9.286        6.765      344.511       21.382      867.201
11/07/2014  14:27:00       12.974       -2.150       19.721       34.641       47.716       34.891     1199.975     2276.816     1217.389        0.263        0.235       13.151       17.878        1.848      344.297       21.017      867.201
11/07/2014  14:28:00       36.841     -115.505        2.449       48.838       64.642       38.441     2385.192     4178.550     1477.696        1.137        0.402      121.238       27.900        0.053      344.366       21.133      867.205
11/07/2014  14:29:00       14.323      -11.947       24.868       30.845       44.097       31.729      951.389     1944.514     1006.739        0.243        0.195       18.652       19.581        1.102      344.489       21.343      867.221
11/07/2014  14:30:00       57.416       74.772       -1.246       54.798       43.709       28.303     3002.873     1910.467      801.068        0.730        0.286       94.273       23.447        0.062      344.447       21.271      867.231
11/07/2014  14:31:00       69.043      178.363      -19.292       59.296      133.299       46.950     3516.041    17768.663     2204.287        3.022        1.174      191.259       68.150        0.127      344.405       21.199      867.234
11/07/2014  14:32:00      120.278       77.428       13.340       74.826       58.320       44.264     5598.982     3401.241     1959.330        1.580        0.548      143.045       31.429        0.048      344.333       21.076      867.238
11/07/2014  14:33:00       57.038       58.217       51.976       61.171       52.949       35.016     3741.885     2803.640     1226.124        0.856        0.389       81.502       34.380        0.178      344.377       21.152      867.225
11/07/2014  14:34:00       38.349       89.916       -8.525       40.123       41.229       35.378     1609.858     1699.851     1251.625        0.709        0.228       97.752       24.840        0.065      344.413       21.215      867.223
11/07/2014  14:35:00      127.199       66.625       30.972       97.176       70.586       48.228     9443.211     4982.355     2325.952        1.916        0.838      143.591       37.323        0.068      344.282       20.987      867.219
11/07/2014  14:36:00      180.987      142.531       12.985      115.703       72.353       60.242    13387.229     5234.973     3629.084        3.774        1.113      230.372       32.239        0.020      344.264       20.957      867.224
11/07/2014  14:37:00       16.045       76.471        0.560       47.452       51.902       36.135     2251.662     2693.828     1305.722        0.618        0.313       78.136       33.367        0.182      344.354       21.114      867.233
11/07/2014  14:38:00       12.554      110.092       -6.624       29.936       46.867       30.790      896.156     2196.523      948.040        0.818        0.202      110.805       34.106        0.095      344.332       21.076      867.225
11/07/2014  14:39:00       47.156      115.592      -30.553       38.606       64.541       30.727     1490.390     4165.479      944.168        1.156        0.330      124.841       19.338        0.024      344.254       20.942      867.210
11/07/2014  14:40:00       41.247       56.719       11.066       52.987       27.788       24.188     2807.625      772.163      585.077        0.460        0.208       70.131       20.552        0.086      344.392       21.178      867.203
11/07/2014  14:41:00       42.670      169.803      -25.375       51.887       54.870       36.530     2692.278     3010.736     1334.477        1.917        0.352      175.082       21.778        0.015      344.281       20.986      867.203
11/07/2014  14:42:00       31.886       45.673       -3.956       29.847       32.663       23.540      890.841     1066.872      554.148        0.281        0.126       55.703       13.816        0.062      344.264       20.959      867.206
11/07/2014  14:43:00       22.229       56.725        5.130       24.312       35.982       27.087      591.084     1294.673      733.712        0.318        0.131       60.925       24.823        0.166      344.347       21.102      867.196
11/07/2014  14:44:00       16.283       33.136        1.217       22.244       18.430       16.124      494.799      339.652      259.971        0.123        0.055       36.921        8.865        0.058      344.338       21.084      867.195
11/07/2014  14:45:00        6.149       47.374       -1.147       34.876       43.840       25.655     1216.347     1921.951      658.191        0.304        0.190       47.771       31.212        0.427      344.320       21.055      867.192
11/07/2014  14:46:00       21.026       31.438       -7.767       26.322       15.029       14.219      692.835      225.871      202.168        0.131        0.056       37.821       16.754        0.196      344.214       20.875      867.190
11/07/2014  14:47:00       29.040        8.889       -3.550       18.766       21.862       21.440      352.181      477.968      459.678        0.111        0.064       30.370       17.769        0.342      344.248       20.933      867.188
11/07/2014  14:48:00        0.612       17.259        6.962       29.361       24.228       22.354      862.057      587.000      499.719        0.115        0.097       17.270       22.419        1.685      344.491       21.346      867.180
11/07/2014  14:49:00       90.078       29.565       22.525       70.876       46.968       42.478     5023.453     2205.956     1804.395        0.926        0.452       94.806       30.630        0.104      344.142       20.752      867.195
11/07/2014  14:50:00       54.522       42.446       44.818       56.010       49.443       44.960     3137.121     2444.602     2021.399        0.719        0.380       69.097       43.442        0.395      344.352       21.110      867.200
11/07/2014  14:51:00       56.078       16.861       -3.936       38.000       43.375       19.982     1443.964     1881.421      399.278        0.358        0.186       58.558       14.883        0.065      344.463       21.302      867.210
11/07/2014  14:52:00       47.256      -58.563        2.838       44.390       84.223       33.453     1970.501     7093.441     1119.092        0.792        0.509       75.252       21.756        0.084      344.487       21.340      867.217
11/07/2014  14:53:00       33.856       15.703       11.096       50.656       45.087       28.770     2566.004     2032.847      827.715        0.347        0.271       37.321       21.381        0.328      344.611       21.554      867.230
11/07/2014  14:54:00      -12.467       75.874       -2.583       34.746       62.179       28.896     1207.282     3866.188      834.996        0.591        0.295       76.891       31.019        0.163      344.646       21.611      867.239
11/07/2014  14:55:00       29.124      107.775      -15.573       40.577       70.812       29.240     1646.501     5014.353      854.949        1.011        0.376      111.641       36.454        0.107      344.365       21.131      867.236
11/07/2014  14:56:00       99.963      100.197        4.587       71.740       60.227       38.954     5146.622     3627.317     1517.403        1.517        0.515      141.535       28.657        0.041      344.428       21.238      867.233
11/07/2014  14:57:00      105.654      124.089       12.966       74.105       53.562       49.291     5491.583     2868.860     2429.590        1.876        0.540      162.975       31.853        0.038      344.301       21.021      867.237
11/07/2014  14:58:00       43.016      177.886      -23.214       47.241       85.864       47.054     2231.715     7372.644     2214.080        2.292        0.591      183.013       51.925        0.080      344.234       20.904      867.240
11/07/2014  14:59:00       24.795      113.847      -14.443       40.964       94.206       37.257     1678.040     8874.682     1388.069        1.286        0.597      116.516       49.290        0.179      344.333       21.076      867.239
11/07/2014  15:00:00      118.746       44.460       25.382       76.971       45.510       46.567     5924.601     2071.137     2168.490        1.344        0.508      126.796       17.619        0.019      344.247       20.928      867.245
11/07/2014  15:01:00       97.709       60.625       18.080       45.206       31.279       32.358     2043.609      978.362     1047.015        0.881        0.203      114.989       19.411        0.028      344.357       21.119      867.244
11/07/2014  15:02:00       63.748       54.884        1.500       44.385       29.214       31.557     1970.066      853.432      995.859        0.545        0.191       84.120       23.940        0.081      344.390       21.175      867.235
11/07/2014  15:03:00       67.162       53.395       40.189       68.938       57.469       44.007     4752.440     3302.640     1936.647        0.948        0.500       85.801       40.666        0.225      344.324       21.061      867.226
11/07/2014  15:04:00       71.696       58.403       11.691       56.646       43.480       31.489     3208.788     1890.477      991.572        0.739        0.305       92.473       10.480        0.013      344.473       21.318      867.241
11/07/2014  15:05:00       50.523       59.264       24.828       64.382       42.820       35.486     4145.062     1833.593     1259.273        0.696        0.362       77.876       21.512        0.076      344.439       21.256      867.233
11/07/2014  15:06:00       35.831       45.893       -2.273       45.615       39.269       22.149     2080.728     1542.068      490.590        0.375        0.206       58.224       13.734        0.056      344.309       21.037      867.237
11/07/2014  15:07:00       30.421       13.306       21.097       28.126       27.905       24.097      791.091      778.687      580.643        0.185        0.108       33.204       13.251        0.159      344.291       21.005      867.242
11/07/2014  15:08:00       42.364        4.359       27.131       43.451       41.569       29.676     1887.951     1727.981      880.650        0.352        0.225       42.588       20.777        0.238      344.094       20.668      867.244
11/07/2014  15:09:00       82.619        2.556       34.865       74.777       98.716       41.607     5591.624     9744.865     1731.119        1.255        0.853       82.658       41.105        0.247      344.321       21.057      867.240
11/07/2014  15:10:00      161.755      105.670       33.924       85.588       55.186       44.401     7325.348     3045.529     1971.425        2.541        0.617      193.212       16.604        0.007      344.318       21.050      867.257
11/07/2014  15:11:00      168.048      101.127       54.918       98.676       62.810       49.356     9736.987     3945.101     2435.976        2.880        0.806      196.129       50.226        0.066      344.294       21.007      867.269
11/07/2014  15:12:00      209.296       92.814       29.082      103.634       75.862       70.445    10739.956     5755.064     4962.458        3.736        1.073      228.953       49.058        0.046      344.220       20.880      867.270
11/07/2014  15:13:00      113.015       40.255       35.659       59.819       62.519       44.987     3578.311     3908.612     2023.866        1.259        0.476      119.970       34.883        0.085      344.259       20.949      867.287
11/07/2014  15:14:00       59.940       54.819       81.142       77.880       67.139       47.721     6065.330     4507.603     2277.338        1.301        0.643       81.227       47.892        0.348      344.118       20.710      867.293
11/07/2014  15:15:00       85.380       33.984       37.738       52.839       47.373       34.109     2791.948     2244.227     1163.391        0.803        0.310       91.894       26.619        0.084      344.165       20.790      867.308
11/07/2014  15:16:00      193.957      129.068       50.927       62.981       56.273       52.675     3966.572     3166.689     2774.666        3.339        0.495      232.976       37.162        0.025      344.247       20.926      867.319
11/07/2014  15:17:00      238.338      152.543       10.118       54.778       51.102       43.077     3000.642     2611.439     1855.642        4.382        0.373      282.974       25.052        0.008      344.217       20.875      867.335
11/07/2014  15:18:00      143.956       86.965       13.636       71.451       56.765       36.957     5105.230     3222.314     1365.852        1.908        0.485      168.185       33.405        0.039      344.159       20.778      867.351
11/07/2014  15:19:00      146.409      113.864       30.301       53.039       47.185       35.595     2813.087     2226.391     1266.999        2.081        0.315      185.474       15.759        0.007      344.190       20.831      867.365
11/07/2014  15:20:00      141.923      100.666       23.945       75.365       55.690       47.012     5679.815     3101.326     2210.153        2.092        0.550      174.000       24.140        0.019      344.178       20.809      867.368
11/07/2014  15:21:00       86.931       34.248        9.955       51.084       57.598       34.853     2609.524     3317.488     1214.754        0.798        0.357       93.434       25.722        0.076      344.184       20.824      867.372
11/07/2014  15:22:00      124.033       67.744       27.718       59.894       52.894       37.515     3587.315     2797.792     1407.371        1.427        0.390      141.327       17.987        0.016      344.204       20.856      867.381
11/07/2014  15:23:00       72.669       80.153       47.091       73.627       56.501       39.047     5420.898     3192.344     1524.707        1.203        0.507      108.191       33.834        0.098      344.282       20.990      867.389
11/07/2014  15:24:00       45.861       36.307       32.234       48.724       33.810       29.041     2374.043     1143.140      843.364        0.441        0.218       58.493       16.931        0.084      344.171       20.800      867.397
11/07/2014  15:25:00       84.258       89.369        2.507       37.260       38.403       32.297     1388.310     1474.770     1043.092        0.950        0.195      122.826       26.862        0.048      344.278       20.985      867.392
11/07/2014  15:26:00        0.980       76.000       -3.444       40.997       42.713       26.113     1680.783     1824.368      681.884        0.499        0.209       76.006       23.423        0.095      344.323       21.059      867.394
11/07/2014  15:27:00       75.445       52.513        9.721       48.973       32.242       28.696     2398.372     1039.554      823.436        0.640        0.213       91.921       23.476        0.065      344.272       20.973      867.383
11/07/2014  15:28:00       80.854       94.140       -4.478       67.151       49.413       38.972     4509.284     2441.641     1518.837        1.194        0.423      124.096       26.452        0.045      344.349       21.105      867.382
11/07/2014  15:29:00      163.829      130.848        1.026       66.803       45.688       45.953     4462.666     2087.358     2111.719        2.631        0.433      209.669       28.297        0.018      344.242       20.920      867.382
11/07/2014  15:30:00      125.105      106.776        8.739       66.695       38.464       40.212     4448.279     1479.503     1617.014        1.734        0.377      164.476       22.458        0.019      344.154       20.770      867.383
11/07/2014  15:31:00       21.075       51.980        5.044       38.406       46.224       32.199     1475.027     2136.672     1036.770        0.391        0.232       56.089       30.150        0.289      344.229       20.900      867.383
11/07/2014  15:32:00      118.283       69.644       17.333       59.901       34.211       33.406     3588.071     1170.425     1115.968        1.251        0.294      137.263       20.307        0.022      344.219       20.881      867.384
11/07/2014  15:33:00       58.082       62.544        4.800       44.616       23.616       17.113     1990.576      557.708      292.858        0.507        0.142       85.354        7.595        0.008      344.175       20.806      867.385
11/07/2014  15:34:00       19.760       44.901        0.073       34.170       32.799       21.179     1167.580     1075.751      448.570        0.255        0.135       49.057       19.944        0.165      344.197       20.846      867.380
11/07/2014  15:35:00       21.824       55.939        3.635       55.944       15.150       22.039     3129.729      229.515      485.717        0.373        0.192       60.046       31.497        0.275      344.224       20.891      867.373
11/07/2014  15:36:00      123.631      108.800       19.108       73.049       58.819       47.496     5336.135     3459.730     2255.857        1.927        0.553      164.688       42.184        0.066      344.235       20.910      867.362
11/07/2014  15:37:00      140.434      110.363       77.256       78.369       52.446       55.276     6141.743     2750.604     3055.420        2.491        0.597      178.610       41.555        0.054      344.066       20.620      867.366
11/07/2014  15:38:00      108.470       91.756       49.998       64.716       52.964       61.025     4188.199     2805.159     3724.089        1.670        0.536      142.074       52.062        0.134      344.125       20.721      867.379
11/07/2014  15:39:00       58.413       60.699       18.736       40.320       33.793       26.201     1625.732     1141.939      686.516        0.545        0.173       84.240       15.071        0.032      344.187       20.827      867.392
11/07/2014  15:40:00      108.964       63.168       27.686       38.780       51.608       36.499     1503.891     2663.391     1332.159        1.106        0.275      125.949       23.875        0.036      344.237       20.915      867.389
11/07/2014  15:41:00      115.540       43.008       38.531       62.572       76.951       46.434     3915.285     5921.446     2156.075        1.434        0.600      123.285       34.527        0.078      344.169       20.795      867.387
11/07/2014  15:42:00       91.032       69.070       38.589       41.404       47.205       35.563     1714.332     2228.291     1264.710        0.988        0.260      114.270       22.386        0.038      344.114       20.703      867.397
11/07/2014  15:43:00      129.349       97.151       52.961       58.146       43.739       38.653     3380.988     1913.102     1494.078        1.788        0.339      161.770       20.851        0.017      344.118       20.711      867.401
11/07/2014  15:44:00       60.318       27.833       22.967       58.488       38.700       40.246     3420.799     1497.678     1619.759        0.574        0.327       66.430       31.591        0.226      344.057       20.607      867.402
11/07/2014  15:45:00       67.905       73.478       55.894       34.582       34.267       35.022     1195.926     1174.234     1226.555        0.836        0.180      100.050       13.135        0.017      344.013       20.529      867.402
11/07/2014  15:46:00      135.923       99.040       44.277       74.805       52.943       47.790     5595.766     2803.004     2283.867        2.046        0.534      168.179       24.754        0.022      344.102       20.682      867.399
11/07/2014  15:47:00      159.815       89.928       31.574       76.241       61.402       59.408     5812.658     3770.212     3529.358        2.387        0.656      183.380       37.878        0.043      344.128       20.725      867.395
11/07/2014  15:48:00       94.668       55.330       27.486       60.335       52.176       41.904     3640.291     2722.373     1755.938        1.045        0.406      109.651       27.943        0.065      344.110       20.697      867.394
11/07/2014  15:49:00      172.730      116.843       47.739      100.832       87.672       67.442    10167.158     7686.425     4548.457        3.408        1.120      208.538       40.982        0.039      344.087       20.657      867.390
11/07/2014  15:50:00      162.975       68.380       65.056      121.506       71.634       80.984    14763.783     5131.483     6558.347        3.096        1.323      176.739       62.464        0.125      343.976       20.465      867.390
11/07/2014  15:51:00      163.600       99.672       60.928      115.306       71.638       64.340    13295.420     5131.989     4139.583        3.148        1.128      191.571       56.713        0.088      343.989       20.487      867.394
11/07/2014  15:52:00      196.011      127.891       30.771       94.733       69.531       55.804     8974.361     4834.589     3114.103        3.632        0.846      234.044       36.513        0.024      343.990       20.489      867.394
11/07/2014  15:53:00      238.255      163.656       46.600       79.289       50.153       53.422     6286.691     2515.359     2853.931        4.869        0.583      289.048       25.872        0.008      343.992       20.490      867.403
11/07/2014  15:54:00      201.174      134.687       22.891       80.898       68.121       66.285     6544.429     4640.441     4393.747        3.735        0.779      242.098       39.145        0.026      343.983       20.476      867.412
11/07/2014  15:55:00      125.332       74.235       35.655       74.921       56.599       68.765     5613.194     3203.452     4728.671        1.801        0.677      145.667       45.328        0.097      343.895       20.328      867.416
11/07/2014  15:56:00      128.921       92.305       61.009       89.032       63.149       47.733     7926.618     3987.801     2278.393        2.153        0.710      158.559       30.181        0.036      343.917       20.363      867.426
11/07/2014  15:57:00       90.061       60.285       18.654       77.097       48.555       39.979     5943.896     2357.557     1598.346        1.099        0.495      108.375       32.277        0.089      343.945       20.414      867.437
11/07/2014  15:58:00       88.506      111.562       -2.796       66.179       68.364       53.964     4379.631     4673.574     2912.061        1.612        0.598      142.406       46.834        0.108      343.932       20.392      867.451
11/07/2014  15:59:00      126.101      115.259       -0.566       70.828       64.717       51.876     5016.571     4188.312     2691.149        2.054        0.595      170.839       43.915        0.066      343.861       20.269      867.449
11/07/2014  16:00:00      186.036      117.274       24.527       76.841       56.535       47.263     5904.464     3196.233     2233.776        3.015        0.567      219.915       28.548        0.017      343.849       20.247      867.437
11/07/2014  16:01:00      105.873       86.165       16.576       68.156       56.952       47.246     4645.194     3243.583     2232.194        1.451        0.506      136.505       37.008        0.074      343.837       20.229      867.442
11/07/2014  16:02:00       49.952      109.864       -3.152       61.707       63.304       48.743     3807.763     4007.385     2375.856        1.238        0.510      120.687       37.968        0.099      343.823       20.207      867.432
11/07/2014  16:03:00       56.309       72.908        2.842       42.357       53.024       38.953     1794.120     2811.537     1517.346        0.731        0.306       92.121       32.190        0.122      343.842       20.239      867.438
11/07/2014  16:04:00       42.710       94.496       -8.390       53.676       56.860       31.204     2881.060     3233.058      973.678        0.895        0.354      103.700       33.432        0.104      343.864       20.276      867.442
11/07/2014  16:05:00       87.024       75.455       -1.143       52.942       52.491       44.677     2802.883     2755.275     1996.034        1.041        0.378      115.181       32.532        0.080      343.801       20.168      867.435
11/07/2014  16:06:00      124.330      165.179       -6.488       79.157       88.324       61.417     6265.782     7801.185     3772.037        3.031        0.892      206.741       54.948        0.071      343.791       20.149      867.429
11/07/2014  16:07:00       79.079       79.823       19.609       84.900       65.258       46.657     7207.988     4258.636     2176.832        1.332        0.682      112.362       37.699        0.113      343.774       20.122      867.433
11/07/2014  16:08:00       67.854       72.373        6.240       66.995       46.177       46.255     4488.320     2132.278     2139.542        0.932        0.438       99.207       33.922        0.117      343.777       20.127      867.434
11/07/2014  16:09:00      113.577       86.299       14.977       63.139       50.061       48.327     3986.537     2506.068     2335.472        1.470        0.441      142.643       33.796        0.056      343.784       20.139      867.440
11/07/2014  16:10:00      135.524       95.501       18.005       83.860       69.338       62.883     7032.529     4807.723     3954.252        2.180        0.790      165.792       50.949        0.094      343.772       20.117      867.443
11/07/2014  16:11:00      110.038       98.943        4.122       77.526       60.438       55.691     6010.208     3652.712     3101.465        1.734        0.638      147.980       37.610        0.065      343.756       20.089      867.448
11/07/2014  16:12:00       99.621       79.598       18.536       78.136       55.401       42.338     6105.292     3069.218     1792.521        1.378        0.548      127.516       32.466        0.065      343.750       20.080      867.450
11/07/2014  16:13:00       31.311       94.970       -8.207       33.964       68.854       35.824     1153.533     4740.909     1283.383        0.862        0.359       99.999       43.430        0.189      343.784       20.140      867.455
11/07/2014  16:14:00       72.400      107.822       -4.497       58.336       52.289       36.899     3403.136     2734.097     1361.522        1.219        0.375      129.874       27.563        0.045      343.716       20.024      867.450
11/07/2014  16:15:00       69.951       89.429        4.973       65.954       65.431       42.690     4349.984     4281.191     1822.463        1.168        0.523      113.538       44.572        0.154      343.694       19.986      867.453
11/07/2014  16:16:00       67.451      177.687      -21.820       61.286       98.108       50.699     3756.008     9625.117     2570.428        2.627        0.798      190.058       56.889        0.090      343.697       19.988      867.451
11/07/2014  16:17:00      106.297      120.484        0.233      104.669       88.567       59.289    10955.699     7844.061     3515.134        2.406        1.116      160.672       44.504        0.077      343.662       19.930      867.453
11/07/2014  16:18:00      143.464       89.630        8.027       80.780       48.094       41.229     6525.410     2313.010     1699.807        1.961        0.527      169.161       29.005        0.029      343.660       19.925      867.455
11/07/2014  16:19:00      137.269      109.936       11.395       82.822       47.451       55.630     6859.459     2251.566     3094.729        2.163        0.610      175.865       38.509        0.048      343.641       19.894      867.462
11/07/2014  16:20:00      166.162      110.563       30.053       93.833       62.790       48.159     8804.679     3942.631     2319.253        2.790        0.753      199.585       36.007        0.033      343.574       19.779      867.459
11/07/2014  16:21:00      100.458       95.476       18.056       81.158       74.583       57.600     6586.560     5562.647     3317.787        1.750        0.773      138.591       39.575        0.082      343.552       19.741      867.456
11/07/2014  16:22:00      156.633      120.439       17.487       74.800       54.477       37.050     5595.041     2967.716     1372.681        2.464        0.497      197.584       23.669        0.014      343.559       19.753      867.457
11/07/2014  16:23:00      107.698       82.824        6.989       84.289       51.421       42.523     7104.624     2644.108     1808.235        1.503        0.578      135.862       34.155        0.063      343.553       19.744      867.470
11/07/2014  16:24:00      163.497      102.657       25.727       89.145       49.817       50.503     7946.805     2481.741     2550.574        2.545        0.649      193.054       32.160        0.028      343.572       19.776      867.466
11/07/2014  16:25:00       77.804       97.941       -0.872       57.856       64.009       32.865     3347.282     4097.189     1080.102        1.208        0.426      125.083       17.004        0.018      343.476       19.613      867.480
11/07/2014  16:26:00       66.748       99.162       19.540       80.202       58.487       50.776     6432.295     3420.712     2578.158        1.355        0.622      119.534       44.036        0.136      343.449       19.568      867.479
11/07/2014  16:27:00       99.967      114.431        6.418      100.918       72.738       54.947    10184.457     5290.859     3019.165        2.081        0.925      151.947       43.694        0.083      343.418       19.515      867.489
11/07/2014  16:28:00       66.912      162.313       -5.028       70.453       80.359       63.011     4963.642     6457.543     3970.406        2.312        0.770      175.564       57.478        0.107      343.401       19.486      867.498
11/07/2014  16:29:00       66.533      127.336       -9.852       65.318       83.551       58.690     4266.506     6980.712     3444.475        1.771        0.735      143.670       58.834        0.168      343.391       19.467      867.501
11/07/2014  16:30:00       76.998       99.804       10.922       75.115       79.451       63.062     5642.285     6312.515     3976.780        1.597        0.797      126.054       44.957        0.127      343.398       19.479      867.500
11/07/2014  16:31:00       56.684      200.249       -7.405       76.811      118.997       67.045     5899.916    14160.376     4494.984        3.396        1.228      208.117       68.582        0.109      343.381       19.450      867.496
11/07/2014  16:32:00       65.892      192.171      -11.658       67.187      113.927       62.160     4514.077    12979.324     3863.875        3.138        1.068      203.154       65.179        0.103      343.377       19.440      867.501
11/07/2014  16:33:00       62.703      152.266       -8.776       84.310       89.108       59.726     7108.187     7940.283     3567.187        2.290        0.931      164.671       45.755        0.077      343.340       19.381      867.504
11/07/2014  16:34:00       78.129      141.248       -9.992       67.718       64.195       46.225     4585.756     4120.944     2136.711        1.850        0.542      161.416       36.560        0.051      343.303       19.319      867.518
11/07/2014  16:35:00       93.058       98.667       12.103       74.811       51.799       47.097     5596.626     2683.179     2218.082        1.452        0.525      135.628       29.231        0.046      343.257       19.240      867.522
11/07/2014  16:36:00       88.199      114.020        5.995       57.475       81.472       53.097     3303.417     6637.612     2819.273        1.679        0.638      144.152       48.064        0.111      343.259       19.243      867.522
11/07/2014  16:37:00       57.358       53.312       19.838       67.604       40.469       46.131     4570.243     1637.780     2128.068        0.743        0.417       78.308       28.855        0.136      343.212       19.165      867.518
11/07/2014  16:38:00      100.955      117.680       -7.415       91.605       69.124       42.600     8391.460     4778.175     1814.748        1.954        0.749      155.050       30.321        0.038      343.206       19.151      867.524
11/07/2014  16:39:00       49.008      114.144      -10.383       58.874       55.521       36.421     3466.128     3082.551     1326.491        1.171        0.394      124.221       28.660        0.053      343.154       19.066      867.530
11/07/2014  16:40:00       65.392       88.157       13.393       87.391       59.035       45.262     7637.103     3485.127     2048.661        1.270        0.659      109.763       30.973        0.080      343.174       19.099      867.535
11/07/2014  16:41:00       68.602       72.477        6.023       52.026       55.397       38.527     2706.751     3068.836     1484.324        0.863        0.363       99.795       32.883        0.109      343.133       19.031      867.536
11/07/2014  16:42:00       53.579      164.169       -9.395       47.519       90.543       48.778     2258.057     8198.061     2379.269        2.137        0.642      172.691       49.212        0.081      343.146       19.050      867.539
11/07/2014  16:43:00       53.000       94.711       -3.354       63.728       58.994       34.725     4061.272     3480.345     1205.798        1.027        0.437      108.531       26.190        0.058      343.057       18.901      867.546
11/07/2014  16:44:00       64.416       90.618        2.994       59.120       56.992       45.866     3495.186     3248.091     2103.686        1.061        0.442      111.180       36.985        0.111      343.076       18.932      867.541
11/07/2014  16:45:00      104.639      100.852        2.807       76.485       72.389       54.461     5849.958     5240.208     2965.964        1.759        0.703      145.328       41.444        0.081      343.079       18.937      867.535
11/07/2014  16:46:00      104.029      108.929       11.385       60.684       62.974       44.902     3682.597     3965.759     2016.154        1.624        0.483      150.624       42.761        0.081      343.095       18.966      867.541
11/07/2014  16:47:00      125.432       95.761       20.957       84.615       49.862       53.537     7159.641     2486.182     2866.171        1.892        0.626      157.808       30.034        0.036      343.092       18.959      867.546
11/07/2014  16:48:00      110.808       67.421       23.420       57.250       28.730       29.012     3277.546      825.410      841.668        1.116        0.247      129.707       16.783        0.017      342.990       18.787      867.546
11/07/2014  16:49:00       56.884       58.064       14.902       75.177       47.568       31.892     5651.553     2262.709     1017.116        0.788        0.447       81.284       25.152        0.096      342.923       18.674      867.552
11/07/2014  16:50:00       75.921       74.771        7.053       40.301       32.890       35.448     1624.198     1081.768     1256.583        0.768        0.198      106.558       23.843        0.050      342.908       18.648      867.563
11/07/2014  16:51:00      115.220      119.776        7.132       80.547       72.281       55.641     6487.826     5224.575     3095.962        2.124        0.740      166.198       48.508        0.085      342.989       18.782      867.575
11/07/2014  16:52:00      143.584      118.232        1.276       75.388       52.994       47.780     5683.332     2808.362     2282.944        2.268        0.539      185.998       33.457        0.032      342.976       18.761      867.587
11/07/2014  16:53:00      120.922      107.786        5.743       81.569       57.431       55.569     6653.525     3298.319     3087.954        1.965        0.652      161.988       42.366        0.068      342.933       18.689      867.604
11/07/2014  16:54:00      137.629      102.150       16.219       88.300       67.742       48.890     7796.963     4588.956     2390.189        2.220        0.739      171.395       40.330        0.055      342.945       18.708      867.598
11/07/2014  16:55:00      155.763      123.019        1.678       80.812       64.501       50.890     6530.569     4160.410     2589.799        2.634        0.664      198.484       30.033        0.023      342.964       18.740      867.590
11/07/2014  16:56:00      193.046      118.607       33.034       69.893       52.847       45.652     4885.043     2792.845     2084.114        3.109        0.488      226.571       19.644        0.008      342.972       18.752      867.595
11/07/2014  16:57:00      108.039       82.703       22.085       68.033       54.888       40.369     4628.506     3012.720     1629.623        1.413        0.464      136.060       31.130        0.052      342.865       18.574      867.592
11/07/2014  16:58:00      122.924       68.982        7.108       51.611       42.180       37.133     2663.739     1779.156     1378.891        1.287        0.291      140.957       36.208        0.066      342.872       18.585      867.595
11/07/2014  16:59:00      118.253       93.199       12.800       30.590       32.841       30.792      935.728     1078.537      948.156        1.290        0.148      150.565       20.712        0.019      342.887       18.611      867.589
11/07/2014  17:00:00       80.364       79.554        3.971       57.124       36.844       37.166     3263.134     1357.490     1381.332        0.940        0.300      113.080       35.560        0.099      342.879       18.598      867.589
11/07/2014  17:01:00       53.957       57.841       10.898       48.179       42.220       33.036     2321.205     1782.555     1091.402        0.578        0.260       79.100       27.970        0.125      342.853       18.553      867.597
11/07/2014  17:02:00       49.435       82.009       -2.555       46.765       47.451       30.613     2187.010     2251.561      937.152        0.727        0.269       95.757       21.449        0.050      342.840       18.532      867.598
11/07/2014  17:03:00       50.492       84.415       -4.470       43.651       45.118       32.365     1905.436     2035.663     1047.505        0.734        0.249       98.363       24.898        0.064      342.805       18.473      867.598
11/07/2014  17:04:00       53.880       82.399       -3.813       36.729       45.675       27.778     1348.992     2086.208      771.599        0.696        0.210       98.452       23.212        0.056      342.782       18.432      867.607
11/07/2014  17:05:00       83.510       57.816       17.887       68.760       40.666       39.459     4727.907     1653.719     1557.033        0.929        0.397      101.571       28.370        0.078      342.800       18.463      867.597
11/07/2014  17:06:00       59.435       84.223        8.152       68.270       65.992       43.236     4660.818     4355.008     1869.310        1.079        0.544      103.083       37.874        0.135      342.737       18.357      867.614
11/07/2014  17:07:00       80.621       89.497        0.039       59.504       43.470       36.632     3540.775     1889.670     1341.918        1.064        0.339      120.455       26.958        0.050      342.767       18.406      867.619
11/07/2014  17:08:00       21.319       76.815       -7.413       25.851       32.412       23.271      668.292     1050.520      541.556        0.433        0.113       79.719       17.474        0.048      342.672       18.245      867.626
11/07/2014  17:09:00       29.143       93.828      -13.272       27.255       25.721       19.511      742.821      661.590      380.662        0.581        0.089       98.249       17.569        0.032      342.734       18.350      867.628
11/07/2014  17:10:00       30.632       85.760       -5.613       32.844       45.605       28.167     1078.696     2079.781      793.383        0.614        0.198       91.067       32.197        0.125      342.664       18.232      867.622
11/07/2014  17:11:00       27.041       85.409       -3.884       26.115       43.352       20.919      681.988     1879.424      437.619        0.552        0.150       89.587       21.684        0.059      342.652       18.211      867.635
11/07/2014  17:12:00       27.160       96.198       -8.781       24.437       24.768       20.987      597.186      613.456      440.467        0.586        0.083       99.959       17.946        0.032      342.635       18.183      867.628
11/07/2014  17:13:00       19.270      122.708      -17.644       17.311       27.111       14.624      299.681      734.984      213.856        0.849        0.062      124.212       13.811        0.012      342.657       18.219      867.636
11/07/2014  17:14:00       -0.160      116.335      -15.071       20.223       20.129       12.166      408.983      405.172      148.007        0.736        0.048      116.335       10.800        0.009      342.671       18.245      867.648
11/07/2014  17:15:00       -6.675      107.590      -20.266       14.372       16.070       10.698      206.542      258.233      114.454        0.630        0.029      107.796        7.874        0.005      342.689       18.274      867.652
11/07/2014  17:16:00      -12.909      102.464      -15.014       12.274       23.116       11.192      150.660      534.347      125.257        0.585        0.041      103.274       10.416        0.010      342.702       18.296      867.668
11/07/2014  17:17:00       13.802      123.297      -22.755       23.233       16.769       15.529      539.794      281.199      241.142        0.849        0.053      124.067        8.356        0.005      342.637       18.185      867.670
11/07/2014  17:18:00        0.448      127.831      -19.735       24.401       31.377       17.224      595.404      984.490      296.665        0.930        0.094      127.832       19.740        0.024      342.566       18.066      867.689
11/07/2014  17:19:00       14.505      126.672      -18.986       32.097       31.783       24.039     1030.196     1010.164      577.855        0.962        0.131      127.500       23.377        0.034      342.549       18.035      867.707
11/07/2014  17:20:00       -3.899      130.491      -17.815       37.054       26.907       21.839     1372.999      723.964      476.930        0.997        0.129      130.549       16.712        0.016      342.581       18.090      867.712
11/07/2014  17:21:00       32.185      129.386      -21.726       29.820       47.283       24.094      889.206     2235.715      580.499        1.098        0.185      133.329       23.453        0.031      342.481       17.921      867.723
11/07/2014  17:22:00        7.000      118.471      -10.637       28.817       28.231       21.323      830.412      797.003      454.675        0.814        0.104      118.678       18.126        0.023      342.455       17.877      867.729
11/07/2014  17:23:00        8.385      123.847      -17.432       27.110       45.478       15.659      734.928     2068.219      245.198        0.938        0.152      124.130       15.980        0.017      342.479       17.919      867.742
11/07/2014  17:24:00        8.376      133.529      -23.428       23.747       30.393       15.479      563.897      923.709      239.611        1.009        0.086      133.792       13.191        0.010      342.475       17.910      867.746
11/07/2014  17:25:00        4.856      126.650      -20.956       24.295       19.230       13.317      590.236      369.811      177.350        0.882        0.057      126.743       11.581        0.008      342.495       17.945      867.738
11/07/2014  17:26:00       -3.312      118.460      -18.445       16.580       16.545        9.211      274.880      273.737       84.848        0.751        0.032      118.506        8.890        0.006      342.535       18.012      867.737
11/07/2014  17:27:00       -8.692      103.365      -17.300       16.657       20.108       10.063      277.459      404.339      101.262        0.592        0.039      103.729        4.456        0.002      342.541       18.022      867.733
11/07/2014  17:28:00       -4.204       89.017       -7.996       38.620       35.487       19.369     1491.475     1259.345      375.176        0.557        0.156       89.116       22.454        0.063      342.524       17.994      867.750
11/07/2014  17:29:00       -1.668       97.452      -14.834       28.207       29.590       17.046      795.654      875.555      290.567        0.584        0.098       97.467       14.410        0.022      342.484       17.925      867.755
11/07/2014  17:30:00      -21.629      111.959      -15.151       23.729       27.178       13.422      563.051      738.658      180.159        0.736        0.074      114.030        8.009        0.005      342.535       18.014      867.774
11/07/2014  17:31:00      -20.038       86.730       -6.478       21.296       40.079       15.954      453.515     1606.334      254.515        0.514        0.116       89.015       15.378        0.030      342.492       17.939      867.780
11/07/2014  17:32:00        4.509       65.353      -10.147       24.277       22.921       13.606      589.350      525.349      185.120        0.285        0.065       65.508       13.056        0.040      342.481       17.921      867.794
11/07/2014  17:33:00       -5.011       87.596       -8.990       27.345       29.317       11.801      747.730      859.510      139.274        0.476        0.087       87.739       11.332        0.017      342.471       17.905      867.787
11/07/2014  17:34:00       -8.736       83.991      -13.691       27.302       20.437       10.989      745.415      417.687      120.768        0.430        0.064       84.444        6.876        0.007      342.482       17.923      867.796
11/07/2014  17:35:00      -12.730      114.687      -17.289       24.338       24.152       13.883      592.349      583.311      192.738        0.749        0.068      115.391       10.814        0.009      342.503       17.958      867.789
11/07/2014  17:36:00        5.948      111.502      -16.307       38.965       31.064       19.465     1518.264      964.958      378.873        0.780        0.143      111.661       20.866        0.035      342.545       18.031      867.790
11/07/2014  17:37:00       11.876       53.259        3.947       32.110       32.514       22.695     1031.061     1057.144      515.051        0.280        0.130       54.567       21.136        0.150      342.336       17.673      867.795
11/07/2014  17:38:00       13.493       67.915       -3.662       14.523       18.135       15.391      210.928      328.890      236.893        0.279        0.039       69.242       10.769        0.024      342.333       17.668      867.794
11/07/2014  17:39:00       22.103       92.516      -14.065       17.819       40.064       13.527      317.505     1605.148      182.979        0.568        0.105       95.120       17.073        0.032      342.304       17.618      867.809
11/07/2014  17:40:00       27.090      121.894       -9.871       35.116       34.843       25.483     1233.161     1214.022      649.380        0.939        0.155      124.868       22.667        0.033      342.254       17.536      867.808
11/07/2014  17:41:00       -7.245      102.700      -11.310       20.519       34.045       21.499      421.037     1159.048      462.222        0.638        0.102      102.955       22.606        0.048      342.287       17.591      867.824
11/07/2014  17:42:00       10.114       86.640      -13.473       15.922       16.087        9.040      253.520      258.782       81.718        0.419        0.030       87.228        8.376        0.009      342.226       17.488      867.834
11/07/2014  17:43:00      -43.282       33.654      -12.935       21.350       41.490        7.630      455.831     1721.399       58.219        0.270        0.112       54.826        5.260        0.009      342.084       17.247      867.831
11/07/2014  17:44:00      -31.155      -14.691       -1.639        7.950       12.091        8.982       63.207      146.186       80.680        0.074        0.015       34.445        4.418        0.016      341.772       16.718      867.836
11/07/2014  17:45:00      -28.062       15.759       -5.288       29.165       16.490       14.235      850.582      271.907      202.637        0.119        0.066       32.184       12.108        0.142      341.864       16.873      867.842
11/07/2014  17:46:00      -46.230       19.654       -8.406       24.772       19.309       10.987      613.672      372.855      120.712        0.185        0.055       50.234        7.126        0.020      341.861       16.868      867.852
11/07/2014  17:47:00      -21.172        4.930       -2.535       12.450       23.044       10.151      154.992      531.004      103.041        0.063        0.039       21.738        8.591        0.156      341.727       16.640      867.851
11/07/2014  17:48:00      -55.465       -4.005      -10.314       10.932        9.762        8.101      119.512       95.302       65.621        0.174        0.014       55.610        6.374        0.013      341.437       16.150      867.862
11/07/2014  17:49:00      -47.890        6.157       -6.362       14.940       11.613        8.340      223.215      134.855       69.563        0.140        0.021       48.285        5.876        0.015      341.443       16.160      867.868
11/07/2014  17:50:00      -70.724       -3.025      -14.319       21.440       12.231       10.652      459.661      149.591      113.455        0.297        0.036       70.789       10.516        0.022      341.377       16.047      867.884
11/07/2014  17:51:00      -59.589       -9.202      -11.573       16.116       16.016       11.666      259.724      256.527      136.097        0.221        0.033       60.295        8.320        0.019      341.232       15.802      867.889
11/07/2014  17:52:00      -61.867       -4.440      -14.982       18.990       15.461       12.959      360.621      239.046      167.930        0.242        0.038       62.026        9.361        0.023      341.295       15.908      867.901
11/07/2014  17:53:00      -73.371       -9.951      -20.430       17.872       11.990       10.626      319.394      143.765      112.909        0.324        0.029       74.043        5.555        0.006      341.217       15.778      867.911
11/07/2014  17:54:00      -79.195      -13.877       -9.837       21.626       21.398       14.610      467.678      457.889      213.440        0.385        0.057       80.402        6.982        0.008      341.214       15.772      867.909
11/07/2014  17:55:00      -77.611      -15.670      -14.980       18.728       24.313       12.477      350.749      591.124      155.683        0.380        0.055       79.177        5.251        0.004      341.174       15.704      867.916
11/07/2014  17:56:00      -65.942       -4.340       -8.379       26.071       23.408       11.849      679.705      547.913      140.392        0.290        0.068       66.085       10.946        0.027      341.132       15.632      867.912
11/07/2014  17:57:00      -57.130       -1.209      -14.154       18.529       16.770       13.667      343.319      281.250      186.793        0.214        0.041       57.142        9.217        0.026      341.182       15.719      867.913
11/07/2014  17:58:00      -51.378      -18.360      -11.498       14.089       17.161       13.470      198.494      294.511      181.451        0.189        0.034       54.560        9.608        0.031      341.275       15.874      867.908
11/07/2014  17:59:00      -53.038       -8.868      -12.986       13.103       20.686       10.356      171.701      427.926      107.247        0.188        0.035       53.774        6.303        0.014      341.374       16.041      867.910
11/07/2014  18:00:00      -66.359       27.488      -12.212       29.583       49.670       17.919      875.128     2467.138      321.082        0.449        0.183       71.827       15.547        0.047      341.454       16.178      867.915
11/07/2014  18:01:00      -61.470       39.437       -8.212       36.276       31.143       21.727     1315.937      969.871      472.054        0.408        0.138       73.034       18.713        0.066      341.589       16.406      867.912
11/07/2014  18:02:00      -67.882       68.136      -15.565       30.733       30.028       19.188      944.493      901.693      368.171        0.585        0.111       96.179       16.621        0.030      341.633       16.482      867.913
11/07/2014  18:03:00      -48.577       45.313      -16.038       20.630       32.277       18.480      425.605     1041.787      341.519        0.324        0.090       66.430       18.713        0.079      341.552       16.344      867.907
11/07/2014  18:04:00      -40.866        0.252        0.536       20.876       22.529       15.219      435.788      507.577      231.619        0.142        0.059       40.867       16.723        0.167      341.504       16.263      867.915
11/07/2014  18:05:00      -55.504       66.013      -15.344       36.253       45.210       21.828     1314.315     2043.920      476.462        0.575        0.192       86.247       23.178        0.072      341.735       16.654      867.918
11/07/2014  18:06:00      -56.303      104.268      -13.984       38.063       47.556       26.339     1448.805     2261.553      693.733        0.932        0.220      118.498       17.263        0.021      341.756       16.689      867.926
11/07/2014  18:07:00      -32.802       71.586      -12.949       33.455       21.503       13.830     1119.229      462.366      191.265        0.407        0.089       78.744       11.599        0.022      341.641       16.495      867.936
11/07/2014  18:08:00      -39.818       87.406      -15.455       32.711       27.831       15.448     1070.038      774.590      238.631        0.577        0.104       96.048       10.779        0.013      341.704       16.602      867.937
11/07/2014  18:09:00      -70.002       66.195      -16.110       26.027       22.346       17.004      677.385      499.355      289.127        0.550        0.073       96.343       15.756        0.027      341.712       16.615      867.932
11/07/2014  18:10:00      -59.823       79.648      -15.369       29.491       32.681       20.327      869.704     1068.070      413.200        0.625        0.118       99.612       18.299        0.034      341.738       16.661      867.954
11/07/2014  18:11:00      -85.478       83.105      -25.266       35.062       28.234       18.551     1229.370      797.182      344.134        0.861        0.119      119.218       11.724        0.010      341.811       16.784      867.962
11/07/2014  18:12:00      -58.908       62.588      -17.804       29.571       26.904       22.843      874.457      723.819      521.800        0.491        0.106       85.950       16.615        0.037      341.781       16.733      867.976
11/07/2014  18:13:00      -55.177       40.390      -14.511       27.505       23.499       18.375      756.532      552.221      337.635        0.327        0.082       68.380       13.063        0.036      341.721       16.631      867.977
11/07/2014  18:14:00      -46.099       55.761       -8.448       26.873       21.022       19.946      722.147      441.920      397.858        0.343        0.078       72.349       16.689        0.053      341.648       16.507      867.993
11/07/2014  18:15:00      -54.871       59.398      -17.181       27.771       24.831       15.002      771.225      616.585      225.048        0.422        0.081       80.864       11.693        0.021      341.726       16.639      867.995
11/07/2014  18:16:00      -66.227       66.809      -24.935       29.280       29.259       14.842      857.319      856.108      220.292        0.570        0.097       94.071        8.195        0.008      341.624       16.467      868.004
11/07/2014  18:17:00      -55.476       69.476      -13.581       43.834       28.076       23.197     1921.459      788.264      538.085        0.567        0.162       88.907       18.142        0.042      341.682       16.565      868.002
11/07/2014  18:18:00      -65.717       55.014      -25.974       31.312       46.679       24.416      980.470     2178.954      596.165        0.589        0.188       85.704       19.396        0.051      341.704       16.600      867.988
11/07/2014  18:19:00      -92.159       78.894      -25.826       43.855       29.923       24.826     1923.260      895.401      616.344        0.941        0.172      121.316       23.223        0.037      341.686       16.571      867.990
11/07/2014  18:20:00      -46.295       63.149      -20.812       23.358       23.162       17.601      545.580      536.462      309.786        0.398        0.070       78.301       13.798        0.031      341.569       16.372      867.978
11/07/2014  18:21:00      -54.030       61.784      -14.538       29.743       38.812       21.889      884.666     1506.352      479.125        0.491        0.144       82.076       16.912        0.042      341.718       16.625      867.994
11/07/2014  18:22:00      -54.337       77.777      -12.334       27.625       48.394       22.208      763.117     2341.935      493.173        0.638        0.180       94.877       18.130        0.037      341.539       16.323      868.005
11/07/2014  18:23:00      -42.579       84.191      -19.064       28.885       37.996       19.934      834.370     1443.717      397.356        0.597        0.134       94.346       17.398        0.034      341.663       16.532      868.015
11/07/2014  18:24:00      -35.811       64.400       -5.911       30.072       39.156       17.916      904.340     1533.194      320.981        0.411        0.138       73.687       11.568        0.025      341.558       16.353      868.031
11/07/2014  18:25:00      -36.475       23.988       -8.302       23.115       27.585       18.270      534.321      760.920      333.805        0.180        0.081       43.656       15.167        0.121      341.508       16.270      868.038
11/07/2014  18:26:00      -59.565       24.068      -16.896       21.332       31.573       12.930      455.053      996.829      167.174        0.302        0.081       64.244       14.749        0.053      341.402       16.091      868.054
11/07/2014  18:27:00      -63.009       25.891       -5.274       27.549       44.625       18.510      758.967     1991.366      342.615        0.388        0.155       68.121       18.751        0.076      341.155       15.672      868.050
11/07/2014  18:28:00      -77.758       24.370      -19.012       28.104       34.579       16.856      789.827     1195.721      284.114        0.464        0.113       81.487       10.751        0.017      341.157       15.676      868.050
11/07/2014  18:29:00      -54.111       15.420       -8.404       19.514       17.801       12.045      380.781      316.877      145.090        0.204        0.042       56.265        8.788        0.024      341.236       15.808      868.045
11/07/2014  18:30:00      -65.125       26.940      -10.409       17.968       27.448       15.397      322.836      753.388      237.075        0.319        0.066       70.477       12.325        0.031      341.290       15.900      868.034
11/07/2014  18:31:00      -48.300       16.535       -7.506       21.109       18.514       15.804      445.590      342.784      249.758        0.185        0.052       51.052        6.466        0.016      341.309       15.933      868.042
11/07/2014  18:32:00      -59.929       49.145      -14.755       26.204       33.237       18.969      686.629     1104.686      359.826        0.419        0.108       77.503       14.301        0.034      341.320       15.951      868.053
11/07/2014  18:33:00      -19.055       36.486        5.124       31.051       50.197       15.077      964.149     2519.729      227.330        0.272        0.186       41.162       17.719        0.185      341.307       15.928      868.051
11/07/2014  18:34:00      -38.145        7.508       -6.034       22.526       22.890       12.364      507.417      523.968      152.865        0.137        0.059       38.877        3.507        0.008      341.122       15.616      868.068
11/07/2014  18:35:00      -55.053        3.990       -9.292       29.023       23.570       13.182      842.359      555.552      173.763        0.235        0.079       55.198       11.832        0.046      341.128       15.627      868.069
11/07/2014  18:36:00      -58.758       -3.636       -7.478       20.852       16.017       11.997      434.803      256.542      143.917        0.218        0.042       58.871       12.644        0.046      340.899       15.237      868.070
11/07/2014  18:37:00      -65.517        1.159       -6.124       18.384       16.438       16.032      337.955      270.203      257.025        0.260        0.043       65.528       10.082        0.024      340.769       15.018      868.081
11/07/2014  18:38:00      -75.413       27.951      -22.327       22.311       43.391       13.449      497.790     1882.773      180.868        0.476        0.128       80.426       17.565        0.048      341.060       15.511      868.077
11/07/2014  18:39:00      -91.153      -11.112      -18.886       30.350       24.669       17.994      921.127      608.562      323.766        0.532        0.093       91.828       13.515        0.022      340.776       15.031      868.081
11/07/2014  18:40:00      -35.629       18.434       -5.060       32.260       23.992       18.144     1040.714      575.635      329.205        0.179        0.097       40.115        7.960        0.039      340.817       15.098      868.089
11/07/2014  18:41:00      -54.665       22.130      -10.467       20.855       15.261       11.383      434.939      232.897      129.577        0.219        0.040       58.975        7.886        0.018      340.893       15.227      868.081
11/07/2014  18:42:00      -39.239        0.165       -8.702       15.961       15.968        9.625      254.746      254.969       92.639        0.111        0.030       39.239        9.135        0.054      340.873       15.193      868.081
11/07/2014  18:43:00      -63.789        0.924      -16.081       22.746       10.229       13.454      517.359      104.635      181.019        0.257        0.040       63.796       12.914        0.041      340.801       15.073      868.087
11/07/2014  18:44:00      -67.933       -0.024      -16.169       26.337       14.668       11.818      693.647      215.159      139.658        0.296        0.052       67.933       10.619        0.024      340.806       15.081      868.078
11/07/2014  18:45:00      -61.330        5.772      -11.997       20.436       18.601       18.129      417.640      345.988      328.673        0.252        0.055       61.601       11.265        0.033      340.949       15.322      868.084
11/07/2014  18:46:00      -68.069       13.399      -11.482       21.495       30.195       13.165      462.056      911.763      173.310        0.325        0.077       69.375        6.942        0.010      340.935       15.300      868.093
11/07/2014  18:47:00      -64.641       30.065      -13.606       21.454       28.993       16.262      460.278      840.614      264.448        0.342        0.078       71.291       15.888        0.050      341.196       15.740      868.095
11/07/2014  18:48:00      -57.663       20.686       -5.799       17.174       20.824       15.135      294.961      433.643      229.068        0.237        0.048       61.261        8.993        0.022      341.053       15.499      868.096
11/07/2014  18:49:00      -72.735       33.011       -8.341       28.552       24.122       13.725      815.236      581.892      188.375        0.402        0.079       79.876       12.844        0.026      341.096       15.571      868.099
11/07/2014  18:50:00      -80.978       37.322      -16.011       21.666       27.888       14.124      469.402      777.760      199.492        0.483        0.072       89.165        8.026        0.008      341.124       15.618      868.089
11/07/2014  18:51:00      -66.455       21.436      -14.936       19.580       19.427       14.064      383.384      377.397      197.808        0.303        0.048       69.827        5.809        0.007      341.057       15.505      868.101
11/07/2014  18:52:00      -69.303       42.605      -10.189       25.224       32.539       20.782      636.254     1058.772      431.880        0.442        0.106       81.352        9.701        0.014      341.150       15.663      868.104
11/07/2014  18:53:00      -65.436       18.114       -8.766       26.477       32.096       17.819      701.010     1030.172      317.519        0.337        0.102       67.897       18.536        0.075      341.085       15.553      868.112
11/07/2014  18:54:00      -93.643       33.507      -12.221       27.728       21.483       19.057      768.838      461.513      363.161        0.582        0.080       99.457       10.423        0.011      341.106       15.590      868.125
11/07/2014  18:55:00     -104.790       27.847      -17.112       29.101       39.570       21.033      846.867     1565.747      442.374        0.745        0.143      108.427       19.904        0.034      341.063       15.517      868.120
11/07/2014  18:56:00      -79.129        1.463      -10.052       23.942       19.425       17.629      573.238      377.324      310.788        0.381        0.063       79.142       14.253        0.032      340.928       15.287      868.118
11/07/2014  18:57:00      -93.697       38.282      -14.206       27.375       29.757       19.228      749.390      885.475      369.707        0.623        0.100      101.216       13.294        0.017      341.070       15.527      868.127
11/07/2014  18:58:00      -77.502       26.149       -6.365       35.487       23.039       18.131     1259.316      530.780      328.742        0.442        0.106       81.794       12.404        0.023      341.019       15.442      868.120
11/07/2014  18:59:00      -75.817       33.091      -10.835       26.720       29.550       16.554      713.942      873.210      274.020        0.441        0.093       82.724       12.169        0.022      341.135       15.637      868.122
11/07/2014  19:00:00      -85.904      121.438      -22.864       36.579       31.926       19.311     1338.009     1019.271      372.928        1.269        0.137      148.751       15.411        0.011      341.265       15.858      868.137
11/07/2014  19:01:00      -67.729       82.708      -21.972       29.369       34.248       18.293      862.510     1172.934      334.638        0.714        0.119      106.901       15.472        0.021      341.223       15.787      868.139
11/07/2014  19:02:00      -65.766       82.486      -17.291       23.204       21.967       17.070      538.407      482.552      291.390        0.637        0.066      105.495       13.086        0.015      341.233       15.803      868.151
11/07/2014  19:03:00      -41.925       71.807      -12.342       30.267       19.009       11.383      916.108      361.325      129.564        0.424        0.070       83.150       10.993        0.017      341.196       15.742      868.169
11/07/2014  19:04:00      -21.077       64.282        2.297       24.031       28.214       22.710      577.497      796.039      515.752        0.324        0.094       67.649       20.404        0.091      341.159       15.679      868.176
11/07/2014  19:05:00      -47.240       43.897       -5.664       26.997       24.829       18.737      728.813      616.499      351.066        0.294        0.085       64.487       17.325        0.072      341.126       15.623      868.174
11/07/2014  19:06:00      -21.540       38.511       -2.438       20.748       21.844       15.056      430.461      477.144      226.686        0.154        0.057       44.125        6.519        0.022      341.056       15.505      868.181
11/07/2014  19:07:00      -38.394       84.844       -7.846       29.720       46.652       19.965      883.288     2176.435      398.582        0.610        0.173       93.127       16.401        0.031      341.093       15.569      868.180
11/07/2014  19:08:00      -23.046      122.722      -14.940       21.262       44.174       18.357      452.067     1951.325      336.974        0.928        0.137      124.867       19.426        0.024      341.167       15.692      868.185
11/07/2014  19:09:00      -44.200      104.994       -9.249       38.513       37.055       24.197     1483.268     1373.049      585.486        0.825        0.172      113.918       23.713        0.043      341.095       15.570      868.195
11/07/2014  19:10:00      -37.336      139.074      -15.149       33.604       38.121       19.439     1129.238     1453.201      377.873        1.196        0.148      143.999       18.272        0.016      341.171       15.699      868.195
11/07/2014  19:11:00      -39.648      178.691      -22.191       22.677       33.635       17.839      514.238     1131.301      318.236        1.798        0.098      183.037       16.396        0.008      341.217       15.777      868.199
11/07/2014  19:12:00      -17.668      205.867      -29.850       31.776       31.055       16.895     1009.745      964.414      285.442        2.292        0.113      206.624        9.510        0.002      341.248       15.827      868.220
11/07/2014  19:13:00       -5.555      150.907      -25.157       24.334       26.914       14.606      592.133      724.360      213.341        1.248        0.076      151.009       10.759        0.005      341.194       15.739      868.225
11/07/2014  19:14:00      -13.093      189.348      -23.119       19.392       34.344       13.837      376.049     1179.484      191.476        1.915        0.087      189.800       12.261        0.004      341.293       15.904      868.217
11/07/2014  19:15:00      -13.368      165.724      -23.755       29.219       26.622       15.325      853.758      708.754      234.847        1.500        0.090      166.263       10.734        0.004      341.305       15.925      868.208
11/07/2014  19:16:00       -8.721      155.684      -21.004       23.739       25.200       11.126      563.553      635.021      123.786        1.304        0.066      155.928       11.802        0.006      341.280       15.884      868.212
11/07/2014  19:17:00      -22.907      162.657      -21.040       26.904       22.995       14.741      723.837      528.778      217.293        1.445        0.073      164.262       10.235        0.004      341.330       15.967      868.204
11/07/2014  19:18:00      -31.632      134.668      -15.420       24.486       26.999       12.918      599.571      728.925      166.871        1.043        0.075      138.334        8.110        0.003      341.318       15.948      868.199
11/07/2014  19:19:00       -8.133      136.341      -15.346       17.802       19.188       12.714      316.896      368.181      161.639        0.987        0.042      136.583        7.312        0.003      341.253       15.838      868.203
11/07/2014  19:20:00      -11.606      146.165      -18.496       22.697       18.044       12.523      515.154      325.595      156.830        1.142        0.050      146.625        4.234        0.001      341.281       15.885      868.209
11/07/2014  19:21:00       18.726      127.068      -18.771       20.763       27.032       12.194      431.112      730.739      148.697        0.908        0.066      128.440       11.308        0.008      341.228       15.796      868.212
11/07/2014  19:22:00        2.885      123.515      -14.287       17.815       22.261        8.970      317.363      495.545       80.456        0.818        0.045      123.549        9.217        0.006      341.197       15.743      868.210
11/07/2014  19:23:00      -13.480      118.245      -17.655       20.469       16.238       11.913      418.998      263.672      141.914        0.765        0.041      119.011        7.901        0.004      341.278       15.880      868.206
11/07/2014  19:24:00       -6.349       86.477       -4.563       23.003       24.724       16.150      529.127      611.279      260.808        0.447        0.070       86.710       13.713        0.025      341.234       15.805      868.218
11/07/2014  19:25:00        9.018       88.174       -7.921       15.474       18.414       10.959      239.442      339.072      120.098        0.431        0.035       88.634        8.306        0.009      341.296       15.910      868.231
11/07/2014  19:26:00      -12.240      106.712       -9.942       25.475       24.818       12.416      648.984      615.929      154.159        0.653        0.071      107.412       10.644        0.010      341.260       15.851      868.228
11/07/2014  19:27:00        6.517      109.988      -13.706       19.783       27.226       13.175      391.347      741.260      173.579        0.682        0.065      110.181        8.903        0.007      341.294       15.907      868.234
11/07/2014  19:28:00       21.802      124.059      -13.758       24.531       23.730       17.810      601.756      563.131      317.189        0.877        0.074      125.960       12.095        0.009      341.291       15.901      868.228
11/07/2014  19:29:00        6.325      128.793      -17.049       26.193       27.203       14.410      686.056      739.979      207.659        0.928        0.082      128.948       18.174        0.020      341.326       15.960      868.228
11/07/2014  19:30:00        4.249      121.831      -18.212       26.094       15.630       11.670      680.922      244.300      136.182        0.813        0.053      121.906        5.312        0.002      341.282       15.886      868.228
11/07/2014  19:31:00       14.066      109.486       -9.398       31.428       25.908       20.006      987.704      671.207      400.257        0.717        0.103      110.386       16.093        0.021      341.265       15.858      868.229
11/07/2014  19:32:00       14.641      121.149       -9.684       23.963       34.346       18.135      574.231     1179.655      328.866        0.853        0.104      122.031       18.736        0.024      341.243       15.821      868.231
11/07/2014  19:33:00        9.302      133.835      -13.691       27.267       37.248       19.495      743.488     1387.432      380.047        1.035        0.126      134.158       14.098        0.011      341.208       15.762      868.239
11/07/2014  19:34:00       24.597      160.437      -18.995       32.322       35.614       21.699     1044.718     1268.328      470.866        1.474        0.139      162.312       21.222        0.017      341.247       15.827      868.250
11/07/2014  19:35:00        9.035      138.720      -10.759       32.885       38.350       29.290     1081.431     1470.696      857.885        1.142        0.171      139.014       24.531        0.031      341.248       15.828      868.254
11/07/2014  19:36:00      -10.533      108.060       -3.345       26.506       40.347       20.861      702.566     1627.893      435.187        0.728        0.138      108.572       15.676        0.021      341.128       15.625      868.264
11/07/2014  19:37:00       -9.802       70.922       -4.721       34.432       41.753       24.721     1185.545     1743.342      611.138        0.434        0.177       71.596       16.586        0.054      341.045       15.485      868.278
11/07/2014  19:38:00        1.704       93.416       -6.326       28.964       32.657       17.212      838.898     1066.484      296.262        0.549        0.110       93.432       10.860        0.014      341.178       15.710      868.291
11/07/2014  19:39:00        6.404       84.769       -8.165       21.705       18.978       12.350      471.108      360.176      152.534        0.414        0.049       85.011        9.010        0.011      341.126       15.622      868.311
11/07/2014  19:40:00      -39.365        7.641      -15.992       18.125       51.301        9.964      328.511     2631.822       99.284        0.246        0.153       40.100        8.204        0.042      340.490       14.548      868.330
11/07/2014  19:41:00      -58.722      -25.296       -7.868       24.717       15.526       13.831      610.948      241.043      191.288        0.260        0.052       63.938       10.463        0.027      340.275       14.182      868.339
11/07/2014  19:42:00      -75.682      -35.480      -12.861       17.507       21.845       12.988      306.480      477.218      168.682        0.405        0.048       83.586        6.081        0.005      340.059       13.818      868.337
11/07/2014  19:43:00     -108.101      -48.097       -8.605       21.530       16.345       13.783      463.552      267.173      189.985        0.750        0.046      118.318        9.066        0.006      340.103       13.892      868.331
11/07/2014  19:44:00      -80.848      -41.926       -5.656       22.507       15.519       15.558      506.570      240.855      242.046        0.466        0.049       91.072       11.334        0.015      340.132       13.943      868.338
11/07/2014  19:45:00      -78.280      -41.967       -9.128       21.283       15.526       11.364      452.950      241.071      129.151        0.440        0.041       88.820        6.053        0.005      340.097       13.882      868.350
11/07/2014  19:46:00     -101.308      -40.222       -6.497       12.426       15.309       11.097      154.401      234.363      123.139        0.622        0.026      109.001        5.841        0.003      340.178       14.019      868.364
11/07/2014  19:47:00     -101.245      -28.195       -8.517       12.700       14.877       14.426      161.283      221.337      208.123        0.585        0.030      105.098        9.740        0.009      340.122       13.923      868.376
11/07/2014  19:48:00      -53.120      -44.478        0.495       23.127       16.493        9.261      534.871      272.007       85.772        0.285        0.045       69.282        3.871        0.003      340.152       13.976      868.400
11/07/2014  19:49:00      -20.219      -22.901        2.242       10.367       10.265        6.123      107.473      105.370       37.496        0.059        0.013       30.550        4.356        0.020      340.203       14.062      868.432
11/07/2014  19:50:00      -52.183      -29.952       -9.141       12.461        9.663        8.047      155.276       93.368       64.760        0.201        0.016       60.168        8.250        0.019      340.345       14.301      868.458
11/07/2014  19:51:00      -64.171      -21.652      -11.810       12.344       15.163        7.198      152.377      229.902       51.816        0.258        0.022       67.725        5.206        0.006      340.284       14.199      868.469
11/07/2014  19:52:00      -64.022      -15.964      -13.176        9.817       11.478        7.107       96.374      131.739       50.512        0.240        0.014       65.982        4.060        0.004      340.156       13.980      868.464
11/07/2014  19:53:00      -73.488      -23.309       -4.444       11.318       10.843        9.356      128.108      117.572       87.537        0.315        0.017       77.096        7.958        0.011      340.204       14.063      868.458
11/07/2014  19:54:00      -87.657      -17.660      -15.047       10.721        9.318        7.487      114.930       86.823       56.056        0.424        0.013       89.418        5.867        0.004      340.212       14.079      868.449
11/07/2014  19:55:00     -108.522      -34.593      -12.831        6.968       10.764        5.381       48.551      115.857       28.956        0.667        0.010      113.903        3.323        0.001      340.144       13.960      868.447
11/07/2014  19:56:00      -95.989      -42.849      -13.022       10.448        8.569        6.879      109.159       73.430       47.323        0.572        0.011      105.118        3.511        0.001      340.168       14.001      868.454
11/07/2014  19:57:00     -116.554      -37.469      -17.892        9.945        9.320        8.194       98.897       86.868       67.137        0.778        0.013      122.429        4.884        0.002      340.121       13.922      868.454
11/07/2014  19:58:00      -89.649      -32.180      -12.980       12.030       10.329       12.884      144.727      106.683      166.005        0.483        0.021       95.250        9.939        0.011      339.982       13.689      868.477
11/07/2014  19:59:00      -71.242      -29.141      -11.441       10.870        5.777        4.958      118.164       33.368       24.585        0.312        0.009       76.972        4.290        0.003      339.921       13.584      868.505
11/07/2014  20:00:00      -58.628      -14.005      -11.872        9.074        7.669        6.287       82.345       58.818       39.523        0.198        0.009       60.277        3.851        0.004      339.990       13.701      868.521
11/07/2014  20:01:00      -61.795      -19.519       -7.348       15.433        9.222        8.610      238.170       85.044       74.138        0.233        0.020       64.804        7.650        0.014      339.948       13.631      868.534
11/07/2014  20:02:00      -51.557      -25.683       -7.281        9.061        6.844        9.572       82.099       46.839       91.633        0.180        0.011       57.600        4.812        0.007      339.880       13.516      868.556
11/07/2014  20:03:00      -62.111      -35.913       -7.284       10.627        8.348        7.300      112.940       69.685       53.293        0.272        0.012       71.746        2.703        0.001      339.844       13.457      868.564
11/07/2014  20:04:00      -57.799      -26.279       -4.243       11.169        9.872        9.077      124.755       97.466       82.384        0.218        0.015       63.493        8.020        0.016      339.780       13.348      868.567
11/07/2014  20:05:00      -64.732      -23.336      -14.597        9.510       10.247        7.989       90.439      104.996       63.830        0.260        0.013       68.810        4.392        0.004      339.761       13.318      868.572
11/07/2014  20:06:00      -56.455      -12.631       -8.498       18.817       10.253        9.019      354.081      105.132       81.335        0.198        0.027       57.851        8.141        0.020      339.796       13.376      868.581
11/07/2014  20:07:00      -60.586      -18.870       -9.919       13.262       12.854        8.580      175.881      165.235       73.624        0.227        0.021       63.457        5.999        0.009      339.839       13.448      868.575
11/07/2014  20:08:00      -18.234       -2.128       -2.488       10.855        4.454        4.458      117.821       19.836       19.875        0.025        0.008       18.357        3.392        0.034      339.853       13.472      868.578
11/07/2014  20:09:00      -34.475       -2.096      -12.972       19.865        6.448        6.111      394.626       41.573       37.342        0.092        0.024       34.538        4.052        0.014      340.100       13.889      868.572
11/07/2014  20:10:00      -15.131       29.169       -1.254       19.920       11.864       13.652      396.792      140.766      186.379        0.090        0.036       32.860       11.494        0.122      340.417       14.425      868.576
11/07/2014  20:11:00      -59.567        6.045       -9.646       14.360       16.276        8.149      206.216      264.910       66.407        0.211        0.027       59.873        6.979        0.014      339.959       13.649      868.567
11/07/2014  20:12:00      -54.629        5.653       -6.936        6.173       12.012        6.987       38.103      144.293       48.818        0.165        0.012       54.921        5.908        0.012      340.133       13.941      868.547
11/07/2014  20:13:00      -43.724      -33.667      -13.556       17.115       13.542        6.252      292.937      183.392       39.082        0.187        0.026       55.183        5.342        0.009      340.024       13.761      868.546
11/07/2014  20:14:00      -31.220      -22.792      -11.950       11.031       14.750        7.429      121.688      217.550       55.190        0.102        0.020       38.654        2.961        0.006      340.150       13.971      868.538
11/07/2014  20:15:00      -64.847      -20.545      -15.102       10.343       15.280        9.370      106.981      233.486       87.801        0.264        0.021       68.023        6.908        0.010      339.872       13.505      868.524
11/07/2014  20:16:00      -80.093      -25.386      -18.978       15.488       17.322        7.834      239.888      300.056       61.366        0.401        0.030       84.020        5.656        0.005      339.678       13.176      868.521
11/07/2014  20:17:00      -76.449       -2.317      -15.380       18.276       11.992        9.742      334.004      143.802       94.907        0.333        0.029       76.484        5.682        0.006      339.558       12.974      868.525
11/07/2014  20:18:00     -107.299       10.932      -22.618       13.359       17.551       14.174      178.452      308.030      200.904        0.642        0.034      107.855        9.884        0.008      339.519       12.908      868.520
11/07/2014  20:19:00     -112.267        8.026      -17.912       11.156       11.478        7.910      124.451      131.741       62.572        0.665        0.016      112.553        1.972        0.000      339.639       13.108      868.515
11/07/2014  20:20:00      -68.757      -18.089      -11.992       14.934       15.581        9.570      223.030      242.772       91.591        0.288        0.028       71.097        7.796        0.012      339.646       13.123      868.516
11/07/2014  20:21:00      -78.635       -2.484      -13.095       11.829       15.120       11.713      139.927      228.608      137.197        0.343        0.025       78.674        9.408        0.014      339.733       13.268      868.528
11/07/2014  20:22:00      -72.932       -2.872      -17.009       11.431       10.641        8.005      130.667      113.237       64.083        0.296        0.015       72.989        4.530        0.004      339.762       13.318      868.542
11/07/2014  20:23:00      -69.678      -10.304      -12.525       16.886       17.041       12.330      285.133      290.394      152.040        0.292        0.036       70.435        9.015        0.016      339.663       13.152      868.553
11/07/2014  20:24:00      -74.621       16.405      -15.316       13.119       13.127       10.967      172.110      172.306      120.271        0.327        0.023       76.403        6.549        0.007      339.711       13.231      868.570
11/07/2014  20:25:00      -71.586        8.683       -8.636       16.232       15.940       13.810      263.468      254.088      190.714        0.299        0.035       72.111       11.981        0.028      339.843       13.454      868.589
11/07/2014  20:26:00      -68.991       -2.832      -17.679       10.489        7.984        7.242      110.017       63.749       52.440        0.265        0.011       69.049        1.827        0.001      339.775       13.338      868.596
11/07/2014  20:27:00      -81.046        1.859      -17.396       12.451        6.856        6.516      155.034       47.012       42.459        0.356        0.012       81.067        2.951        0.001      339.685       13.188      868.604
11/07/2014  20:28:00      -71.206        4.162      -14.085       14.013       12.392        8.292      196.369      153.556       68.753        0.285        0.021       71.328        6.228        0.008      339.628       13.091      868.613
11/07/2014  20:29:00      -79.513        7.288      -17.514        9.787        7.956        7.668       95.792       63.294       58.798        0.345        0.011       79.846        5.368        0.005      339.626       13.089      868.602
11/07/2014  20:30:00      -77.138        8.658      -17.830        8.118        8.407        6.765       65.896       70.680       45.764        0.326        0.009       77.622        3.574        0.002      339.565       12.984      868.590
11/07/2014  20:31:00      -81.633       -1.385      -19.026       14.498       11.767       11.739      210.195      138.469      137.797        0.376        0.024       81.645        8.801        0.012      339.385       12.682      868.587
11/07/2014  20:32:00      -79.418      -10.767      -16.007       16.757       21.108       15.063      280.791      445.529      226.883        0.382        0.048       80.144       12.080        0.023      339.355       12.631      868.584
11/07/2014  20:33:00      -76.361      -14.770      -10.935       26.520       19.884       12.916      703.305      395.389      166.818        0.372        0.063       77.777        9.352        0.014      339.340       12.605      868.578
11/07/2014  20:34:00      -94.664      -18.436      -10.389       21.632       21.604       17.364      467.924      466.729      301.520        0.532        0.062       96.443       11.269        0.014      339.272       12.491      868.581
11/07/2014  20:35:00      -93.390       -7.107       -9.581       24.610       23.220       18.793      605.674      539.174      353.181        0.518        0.075       93.660       14.101        0.023      339.299       12.538      868.579
11/07/2014  20:36:00      -82.811      -15.297      -13.824       26.085       21.098       13.851      680.442      445.109      191.844        0.430        0.066       84.212        9.967        0.014      339.261       12.474      868.586
11/07/2014  20:37:00      -82.296      -28.579      -13.534       34.541       18.997       18.499     1193.115      360.877      342.202        0.483        0.095       87.117       14.183        0.027      339.278       12.501      868.610
11/07/2014  20:38:00      -94.586      -59.083       -4.169       41.185       25.126       24.064     1696.164      631.320      579.074        0.768        0.145      111.523       25.750        0.053      339.234       12.428      868.622
11/07/2014  20:39:00     -110.798      -17.840      -10.585       14.534       20.945       12.409      211.223      438.673      153.977        0.676        0.040      112.225        8.268        0.005      339.276       12.497      868.635
11/07/2014  20:40:00      -62.524      -14.162       -7.951       14.365       11.206        7.488      206.363      125.570       56.076        0.228        0.019       64.108        7.271        0.013      339.331       12.589      868.647
11/07/2014  20:41:00      -65.704      -14.872       -8.450       11.959       16.187        8.780      143.028      262.018       77.086        0.255        0.024       67.366        6.695        0.010      339.340       12.605      868.647
11/07/2014  20:42:00      -84.526      -12.513       -9.048       14.257       14.956        8.505      203.265      223.684       72.328        0.394        0.025       85.448        5.013        0.003      339.314       12.562      868.627
11/07/2014  20:43:00      -69.345       -0.737       -2.361       21.322       16.842       15.488      454.646      283.646      239.876        0.290        0.049       69.349       14.470        0.044      339.277       12.499      868.618
11/07/2014  20:44:00      -89.565       -4.294      -13.794       12.977       10.951        9.941      168.407      119.927       98.828        0.431        0.019       89.668        8.581        0.009      339.249       12.452      868.624
11/07/2014  20:45:00      -70.429      -27.773       -5.641       13.855       14.175       10.263      191.974      200.928      105.327        0.313        0.025       75.707        9.787        0.017      339.269       12.485      868.624
11/07/2014  20:46:00      -76.963      -25.446      -10.798       16.397       17.569       11.251      268.864      308.684      126.584        0.370        0.035       81.061        5.895        0.005      339.248       12.451      868.624
11/07/2014  20:47:00      -94.386      -25.733      -11.844       12.409        9.045       10.578      153.994       81.815      111.891        0.503        0.017       97.831        8.157        0.007      339.258       12.467      868.624
11/07/2014  20:48:00     -106.114      -18.360      -13.361       11.623       11.405       11.405      135.100      130.068      130.077        0.609        0.020      107.691        7.254        0.005      339.236       12.431      868.600
11/07/2014  20:49:00      -90.697      -15.160       -6.714       10.355       10.474       10.920      107.232      109.710      119.239        0.442        0.017       91.955        5.917        0.004      339.186       12.346      868.587
11/07/2014  20:50:00     -101.811      -12.037      -14.508       11.343        8.742        8.769      128.672       76.428       76.900        0.550        0.014      102.520        6.454        0.004      339.186       12.345      868.591
11/07/2014  20:51:00     -103.547      -27.225      -16.152        7.284        8.497        7.775       53.060       72.195       60.446        0.595        0.009      107.067        5.390        0.003      339.166       12.314      868.589
11/07/2014  20:52:00      -85.140      -29.203      -21.538       20.315       16.887       13.364      412.691      285.173      178.603        0.472        0.044       90.009       10.192        0.013      339.129       12.252      868.598
11/07/2014  20:53:00      -69.995      -27.937       -7.503       19.227       16.082       10.073      369.671      258.615      101.472        0.323        0.036       75.364        8.921        0.014      339.044       12.108      868.614
11/07/2014  20:54:00      -97.690       -0.100      -18.608        9.317       16.975        9.118       86.798      288.158       83.136        0.517        0.023       97.690        7.138        0.005      339.053       12.122      868.625
11/07/2014  20:55:00      -81.045        2.820      -10.430       11.962       11.347       12.947      143.081      128.754      167.625        0.356        0.022       81.094        7.999        0.010      339.031       12.086      868.621
11/07/2014  20:56:00      -32.287      -22.766        5.388       18.976       18.438       15.405      360.089      339.955      237.300        0.126        0.047       39.507       13.313        0.114      338.969       11.981      868.618
11/07/2014  20:57:00      -38.487      -21.429       -2.728       30.898       14.268       16.597      954.686      203.580      275.468        0.169        0.072       44.050       18.626        0.179      338.960       11.966      868.628
11/07/2014  20:58:00      -88.326      -45.241      -11.821       19.176       13.363        9.959      367.735      178.580       99.190        0.532        0.032       99.238        7.673        0.006      338.919       11.896      868.630
11/07/2014  20:59:00      -75.768      -33.038       -4.715       20.846       23.031       12.219      434.570      530.439      149.297        0.398        0.056       82.658       11.611        0.020      338.894       11.857      868.644
11/07/2014  21:00:00      -55.986       -9.570       -3.459       14.378       11.725        9.337      206.713      137.465       87.185        0.183        0.022       56.798        6.637        0.014      338.974       11.991      868.665
11/07/2014  21:01:00      -66.172        5.813       -6.332       14.804       13.965        8.517      219.162      195.028       72.541        0.247        0.024       66.427        6.790        0.010      339.114       12.224      868.670
11/07/2014  21:02:00      -17.600       14.581        2.159       11.864       10.306       10.169      140.750      106.218      103.407        0.044        0.018       22.856        5.949        0.068      339.315       12.565      868.670
11/07/2014  21:03:00      -12.667      -16.762      -10.918       15.200       16.929        7.410      231.046      286.606       54.911        0.057        0.029       21.010        8.529        0.165      339.373       12.663      868.672
11/07/2014  21:04:00      -16.527       -9.546       -6.055       13.774        9.588        7.592      189.727       91.936       57.643        0.037        0.017       19.086        7.404        0.150      339.318       12.570      868.684
11/07/2014  21:05:00      -33.742      -13.749       -5.686       14.448       10.008        8.959      208.735      100.162       80.258        0.087        0.019       36.436        5.691        0.024      339.123       12.241      868.688
11/07/2014  21:06:00      -17.231      -21.770       -5.249       11.803        9.466        9.060      139.307       89.598       82.086        0.055        0.016       27.764        8.442        0.092      338.948       11.948      868.700
11/07/2014  21:07:00      -49.752      -12.817      -11.117       12.660        6.888        5.309      160.286       47.451       28.190        0.150        0.012       51.376        3.706        0.005      338.937       11.926      868.720
11/07/2014  21:08:00      -58.400      -13.439      -11.356        9.250        8.312        6.470       85.562       69.083       41.855        0.196        0.010       59.927        4.753        0.006      338.764       11.637      868.715
11/07/2014  21:09:00      -66.126      -12.623       -9.675       13.178       13.171        9.893      173.649      173.482       97.871        0.254        0.022       67.320        3.522        0.003      338.663       11.467      868.721
11/07/2014  21:10:00      -82.138       -8.499      -12.784       23.438       18.188       14.778      549.348      330.786      218.380        0.404        0.055       82.576       13.850        0.028      338.639       11.427      868.738
11/07/2014  21:11:00      -89.830        1.468      -16.826       12.218       12.430       11.097      149.290      154.507      123.143        0.439        0.021       89.842        7.371        0.007      338.733       11.585      868.745
11/07/2014  21:12:00      -41.907       -9.023       -8.470       24.617       13.082       11.377      605.983      171.142      129.436        0.141        0.045       42.868       13.270        0.096      338.767       11.642      868.759
11/07/2014  21:13:00        1.178      -10.748       -2.717       11.991       10.997        6.540      143.789      120.937       42.772        0.022        0.015       10.812        4.696        0.189      338.954       11.957      868.780
11/07/2014  21:14:00        4.016       -0.556       -7.756        9.100       13.864        7.982       82.801      192.204       63.708        0.021        0.017        4.054        8.848        4.762      339.197       12.366      868.776
11/07/2014  21:15:00       -3.806       11.043        1.144       16.672        7.883        8.014      277.960       62.149       64.221        0.027        0.020       11.680        4.690        0.161      339.313       12.559      868.774
11/07/2014  21:16:00       -8.907       21.366        3.964        9.752       11.797        6.068       95.094      139.160       36.825        0.041        0.014       23.148        2.609        0.013      339.432       12.761      868.765
11/07/2014  21:17:00      -14.876       23.901       -1.050       16.862       17.400        6.310      284.318      302.759       39.822        0.071        0.031       28.152        6.692        0.057      339.429       12.756      868.770
11/07/2014  21:18:00      -20.204       34.575      -11.483       14.837       20.031       10.949      220.130      401.255      119.878        0.124        0.037       40.046       10.205        0.065      339.380       12.675      868.762
11/07/2014  21:19:00       -9.179       62.969       -5.106       15.565       19.041        8.889      242.269      362.577       79.008        0.238        0.034       63.634        3.240        0.003      339.656       13.139      868.757
11/07/2014  21:20:00       -8.366       72.769       -7.247       16.055       13.050        7.830      257.772      170.303       61.315        0.295        0.024       73.248        5.896        0.006      339.751       13.299      868.763
11/07/2014  21:21:00       -5.339       48.876        0.326       12.894       22.486        9.571      166.265      505.604       91.601        0.159        0.038       49.167        9.246        0.035      339.677       13.173      868.757
11/07/2014  21:22:00      -15.540       -9.577       -4.153       22.896       19.750        8.617      524.216      390.057       74.248        0.067        0.049       18.254       10.090        0.306      339.026       12.078      868.752
11/07/2014  21:23:00      -79.695      -28.677      -13.216       18.329       12.855        8.180      335.943      165.255       66.913        0.396        0.028       84.697        4.617        0.003      338.727       11.574      868.771
11/07/2014  21:24:00      -79.702      -23.928      -19.413       12.319       16.484        8.949      151.754      271.730       80.088        0.390        0.025       83.217        6.063        0.005      338.647       11.442      868.776
11/07/2014  21:25:00     -115.415      -22.045      -21.668       14.622       12.098       11.217      213.807      146.353      125.819        0.738        0.024      117.502        9.357        0.006      338.562       11.299      868.776
11/07/2014  21:26:00     -103.597      -18.921      -14.794       27.947       19.524       13.796      781.053      381.202      190.321        0.633        0.068      105.311       14.410        0.019      338.691       11.515      868.788
11/07/2014  21:27:00      -79.000      -23.316      -17.109       22.391       19.209       14.818      501.343      368.970      219.578        0.408        0.054       82.369       13.976        0.029      338.665       11.470      868.786
11/07/2014  21:28:00      -81.832      -30.620      -12.716       20.973       11.736       12.722      439.883      137.725      161.860        0.427        0.037       87.373       11.809        0.018      338.669       11.477      868.787
11/07/2014  21:29:00     -100.990      -25.893      -15.218        8.500        8.934        7.390       72.255       79.822       54.607        0.565        0.010      104.257        3.451        0.001      338.754       11.621      868.798
11/07/2014  21:30:00      -93.646      -26.516       -8.748       12.771        9.905        9.554      163.100       98.108       91.285        0.495        0.018       97.328        7.030        0.005      338.839       11.762      868.819
11/07/2014  21:31:00      -73.307      -37.883       -9.997       12.422        8.216        6.448      154.301       67.501       41.580        0.359        0.013       82.517        4.978        0.004      338.911       11.883      868.824
11/07/2014  21:32:00      -78.859      -36.962       -6.806       13.118       12.543        7.611      172.086      157.330       57.929        0.401        0.019       87.092        3.961        0.002      338.876       11.825      868.821
11/07/2014  21:33:00      -85.761      -23.800       -9.930       12.734        8.383        7.258      162.152       70.269       52.677        0.415        0.014       89.002        4.228        0.002      338.770       11.647      868.826
11/07/2014  21:34:00      -65.729      -23.400       -7.829       10.933        8.824        7.266      119.520       77.871       52.794        0.259        0.013       69.771        4.804        0.005      338.745       11.606      868.841
11/07/2014  21:35:00      -58.840      -18.271      -10.796       10.369        4.891        5.207      107.514       23.917       27.113        0.204        0.008       61.612        4.336        0.005      338.801       11.700      868.861
11/07/2014  21:36:00      -58.232      -12.524       -8.284        6.535        8.084        5.526       42.711       65.353       30.540        0.188        0.007       59.563        2.332        0.002      339.007       12.044      868.883
11/07/2014  21:37:00      -68.979      -12.720      -12.386        6.978        7.109        4.810       48.689       50.533       23.133        0.260        0.006       70.142        3.310        0.002      338.998       12.032      868.890
11/07/2014  21:38:00      -63.152      -13.470      -11.000       11.711       10.373        6.771      137.143      107.600       45.847        0.229        0.015       64.573        4.208        0.004      338.910       11.881      868.879
11/07/2014  21:39:00      -57.541      -14.152      -14.119       12.571        8.881        5.397      158.041       78.875       29.127        0.199        0.013       59.255        4.145        0.005      338.852       11.786      868.877
11/07/2014  21:40:00      -53.265      -25.745       -8.976        6.888        5.991        4.956       47.450       35.887       24.566        0.184        0.005       59.160        2.606        0.002      338.818       11.727      868.865
11/07/2014  21:41:00      -41.209      -34.143       -7.954       11.780        8.284        6.242      138.769       68.616       38.962        0.159        0.012       53.515        1.368        0.001      338.787       11.678      868.856
11/07/2014  21:42:00      -34.318      -34.335        3.467       22.868        7.561       10.817      522.961       57.162      117.002        0.153        0.035       48.545       10.970        0.051      338.729       11.578      868.865
11/07/2014  21:43:00      -79.551      -34.711      -10.977        8.516        7.519        4.831       72.527       56.529       23.338        0.390        0.008       86.794        2.854        0.001      338.745       11.604      868.870
11/07/2014  21:44:00      -66.617      -24.921       -3.034       16.922       12.737       10.487      286.342      162.231      109.972        0.281        0.028       71.126        5.206        0.005      338.607       11.372      868.864
11/07/2014  21:45:00      -92.186      -45.578       -7.736       16.187       14.830        9.851      262.015      219.916       97.048        0.561        0.029      102.838        6.996        0.005      338.501       11.194      868.861
11/07/2014  21:46:00     -104.369      -43.432      -11.960       12.997       13.600        6.975      168.933      184.963       48.650        0.666        0.020      113.046        4.435        0.002      338.475       11.153      868.874
11/07/2014  21:47:00      -86.337      -48.449       -7.692       11.141       12.644       10.836      124.112      159.873      117.423        0.513        0.020       99.002        9.400        0.009      338.529       11.243      868.890
11/07/2014  21:48:00      -55.195      -50.115      -20.071       15.075       14.952       10.626      227.253      223.550      112.915        0.326        0.028       74.552        7.788        0.011      338.508       11.206      868.895
11/07/2014  21:49:00      -73.597      -43.109       -8.510       14.694       14.498       10.833      215.913      210.179      117.357        0.395        0.027       85.293        4.152        0.002      338.449       11.107      868.905
11/07/2014  21:50:00      -92.607      -32.822      -16.558       13.469       11.490        9.858      181.427      132.021       97.172        0.517        0.021       98.252        7.683        0.006      338.509       11.209      868.903
11/07/2014  21:51:00     -104.940      -41.555      -13.037        8.110        7.872        8.652       65.769       61.966       74.864        0.656        0.010      112.868        2.952        0.001      338.496       11.187      868.894
11/07/2014  21:52:00      -94.690      -12.459      -12.733       10.604        8.709        7.316      112.445       75.844       53.528        0.476        0.012       95.506        1.650        0.000      338.410       11.042      868.886
11/07/2014  21:53:00      -80.294      -13.333      -13.297       13.915        7.864        8.630      193.618       61.843       74.475        0.357        0.016       81.394        3.826        0.002      338.387       11.004      868.909
11/07/2014  21:54:00      -81.461      -23.695      -13.588        8.487        8.115        5.686       72.037       65.851       32.328        0.378        0.009       84.837        1.276        0.000      338.392       11.012      868.933
11/07/2014  21:55:00      -76.113      -20.840      -14.327        5.918        6.945        4.716       35.020       48.229       22.242        0.327        0.005       78.915        2.372        0.001      338.373       10.980      868.939
11/07/2014  21:56:00      -98.885      -19.618      -17.649       11.051        7.653        7.378      122.125       58.561       54.433        0.535        0.012      100.812        3.304        0.001      338.387       11.002      868.938
11/07/2014  21:57:00     -114.064      -31.835      -14.711       10.966       10.508        9.447      120.263      110.425       89.248        0.728        0.016      118.423        7.214        0.004      338.318       10.887      868.936
11/07/2014  21:58:00     -111.201      -39.037      -17.259       13.179       11.053        7.638      173.693      122.170       58.332        0.727        0.018      117.854        6.157        0.003      338.327       10.904      868.918
11/07/2014  21:59:00     -103.503      -23.079      -16.300       17.708       13.753       11.618      313.562      189.156      134.980        0.607        0.032      106.045       10.341        0.010      338.288       10.839      868.903
11/07/2014  22:00:00      -86.067      -22.312      -12.854       14.894       13.626        9.846      221.836      185.658       96.943        0.429        0.025       88.912        5.431        0.004      338.213       10.712      868.914
11/07/2014  22:01:00      -52.470       -6.041      -18.723       30.928       11.339       12.077      956.516      128.578      145.843        0.219        0.062       52.816        7.482        0.020      338.519       11.226      868.922
11/07/2014  22:02:00      -22.394      -32.071      -16.659       19.165       21.018       12.906      367.286      441.751      166.568        0.139        0.049       39.116        7.042        0.032      338.392       11.013      868.913
11/07/2014  22:03:00      -89.060        0.052      -14.478       18.494       13.207       11.095      342.024      174.422      123.104        0.439        0.032       89.060        8.425        0.009      338.369       10.973      868.912
11/07/2014  22:04:00      -68.620      -39.965      -10.782       21.403       17.244       10.920      458.103      297.372      119.247        0.365        0.044       79.410        8.639        0.012      338.271       10.810      868.903
11/07/2014  22:05:00      -69.601      -37.567      -16.257       20.141       18.245       14.509      405.676      332.864      210.505        0.373        0.047       79.093       12.403        0.025      338.223       10.729      868.897
11/07/2014  22:06:00      -44.355      -48.491       -3.406       28.308       26.543       19.028      801.333      704.542      362.067        0.310        0.093       65.717       21.779        0.110      338.200       10.689      868.908
11/07/2014  22:07:00      -53.921      -20.282       -2.002       36.539       27.460       19.699     1335.093      754.040      388.064        0.290        0.124       57.609       20.552        0.127      338.124       10.564      868.923
11/07/2014  22:08:00      -78.005      -24.765      -13.250       19.620       19.823       14.106      384.926      392.945      198.981        0.393        0.049       81.842        8.296        0.010      338.080       10.488      868.923
11/07/2014  22:09:00      -81.426      -26.185       -8.700       23.473       23.574       12.546      550.967      555.751      157.399        0.433        0.063       85.533       10.188        0.014      338.145       10.596      868.920
11/07/2014  22:10:00      -70.548      -23.095      -12.626       16.203       23.874       12.429      262.530      569.967      154.489        0.333        0.049       74.232        7.080        0.009      338.105       10.531      868.914
11/07/2014  22:11:00      -88.504      -20.533      -14.687       17.023       17.705       11.945      289.799      313.477      142.678        0.461        0.037       90.855        9.864        0.012      338.171       10.640      868.906
11/07/2014  22:12:00      -86.399      -26.650      -15.256       20.622       13.488       10.812      425.256      181.937      116.902        0.457        0.036       90.416        8.173        0.008      338.182       10.660      868.923
11/07/2014  22:13:00     -100.131      -26.610      -17.186       24.494       17.022       11.482      599.937      289.751      131.841        0.603        0.051      103.607       10.258        0.010      338.159       10.621      868.937
11/07/2014  22:14:00     -110.494      -44.908      -13.577       18.453       15.708       13.358      340.503      246.727      178.438        0.759        0.038      119.271        8.269        0.005      338.117       10.551      868.931
11/07/2014  22:15:00     -115.589      -23.636      -12.961       21.631       18.601       15.801      467.920      346.001      249.682        0.758        0.053      117.981       12.688        0.012      338.079       10.487      868.931
11/07/2014  22:16:00      -96.411      -24.790       -9.365       15.056       16.593        9.277      226.689      275.327       86.060        0.529        0.029       99.547        7.236        0.005      338.112       10.543      868.920
11/07/2014  22:17:00     -105.947      -17.735      -13.701       10.433       13.518        8.682      108.844      182.732       75.378        0.605        0.018      107.421        6.222        0.003      338.120       10.555      868.898
11/07/2014  22:18:00     -107.754      -30.284      -14.622       17.948       12.920       11.363      322.147      166.920      129.108        0.668        0.031      111.929       10.478        0.009      338.129       10.570      868.885
11/07/2014  22:19:00      -89.230      -46.000       -8.672       14.497       16.265       11.407      210.173      264.564      130.122        0.538        0.030      100.389        7.186        0.005      338.101       10.522      868.885
11/07/2014  22:20:00      -98.338      -38.786      -17.765       14.706       12.951        9.195      216.266      167.738       84.553        0.598        0.023      105.711        8.386        0.006      338.079       10.486      868.880
11/07/2014  22:21:00      -75.787      -51.706      -13.594       21.800       21.465       13.864      475.249      460.738      192.214        0.486        0.056       91.745        9.293        0.010      338.024       10.395      868.878
11/07/2014  22:22:00      -75.340      -30.133      -11.118       25.784       15.122       14.199      664.814      228.686      201.613        0.390        0.055       81.143       12.525        0.024      338.000       10.355      868.869
11/07/2014  22:23:00      -86.628      -34.750       -5.772       25.803       25.118       20.701      665.778      630.892      428.523        0.523        0.086       93.338       17.170        0.034      337.922       10.223      868.852
11/07/2014  22:24:00      -91.160      -35.544       -7.041       36.526       25.487       20.094     1334.151      649.607      403.776        0.600        0.119       97.844       15.439        0.025      337.870       10.135      868.846
11/07/2014  22:25:00      -86.473      -28.083      -15.588       30.484       26.647       18.480      929.281      710.063      341.498        0.524        0.099       90.919       14.223        0.024      337.827       10.065      868.855
11/07/2014  22:26:00      -62.494      -33.650       -7.998       26.565       24.975       14.616      705.676      623.749      213.621        0.332        0.077       70.977       12.312        0.030      337.835       10.077      868.868
11/07/2014  22:27:00      -64.722      -21.897       -4.509       16.427       21.262       14.003      269.858      452.054      196.085        0.280        0.046       68.326       11.074        0.026      337.852       10.104      868.882
11/07/2014  22:28:00      -41.886       -2.591      -13.219       14.545       18.548       12.716      211.544      344.044      161.703        0.133        0.036       41.966        5.353        0.016      338.059       10.452      868.900
11/07/2014  22:29:00      -48.047       -9.897       -9.638       19.808       23.869       10.683      392.372      569.737      114.137        0.179        0.054       49.056       11.620        0.056      338.186       10.664      868.905
11/07/2014  22:30:00      -45.022      -36.681      -13.144       13.813       14.192       13.924      190.810      201.422      193.872        0.207        0.029       58.073        5.801        0.010      338.188       10.669      868.904
11/07/2014  22:31:00      -50.432      -28.859      -13.994       13.074        9.201        7.567      170.935       84.652       57.263        0.194        0.016       58.106        4.178        0.005      338.075       10.482      868.913
11/07/2014  22:32:00      -66.329      -38.206      -16.506       20.433       16.721       15.507      417.524      279.590      240.476        0.353        0.047       76.546        7.928        0.011      337.944       10.261      868.906
11/07/2014  22:33:00      -84.222      -39.418      -15.227       30.888       28.927       14.526      954.046      836.785      210.998        0.544        0.100       92.990       11.456        0.015      337.977       10.316      868.892
11/07/2014  22:34:00      -66.155      -44.425      -15.287       30.648       19.421       19.403      939.296      377.191      376.480        0.414        0.085       79.687       14.931        0.035      337.912       10.206      868.883
11/07/2014  22:35:00      -72.160      -34.833      -18.585       15.751       16.169        9.618      248.080      261.426       92.510        0.368        0.030       80.128        7.461        0.009      337.833       10.073      868.890
11/07/2014  22:36:00      -73.215      -15.782      -13.082       31.845       20.730       17.225     1014.122      429.720      296.707        0.376        0.087       74.896        8.214        0.012      337.941       10.256      868.892
11/07/2014  22:37:00      -55.284      -56.933      -20.061       30.465       23.374       20.441      928.111      546.366      417.819        0.430        0.095       79.358       13.906        0.031      337.988       10.332      868.903
11/07/2014  22:38:00      -92.372      -34.306      -18.988       24.471       19.673       13.354      598.827      387.037      178.338        0.562        0.058       98.537       10.171        0.011      337.863       10.123      868.919
11/07/2014  22:39:00      -72.551      -14.056      -16.456       19.416       20.874       18.613      376.975      435.724      346.456        0.345        0.058       73.900       12.331        0.028      337.936       10.245      868.920
11/07/2014  22:40:00      -64.279      -20.972      -18.283       14.458       22.539       18.028      209.036      508.011      324.998        0.297        0.052       67.613       15.434        0.052      338.054       10.444      868.934
11/07/2014  22:41:00      -41.991      -26.647      -16.177       15.702       13.674       10.641      246.567      186.982      113.228        0.164        0.027       49.733        6.919        0.019      337.931       10.239      868.950
11/07/2014  22:42:00      -48.758      -26.793       -6.898       12.883       11.169       13.015      165.977      124.748      169.396        0.180        0.023       55.634        9.228        0.028      338.027       10.400      868.956
11/07/2014  22:43:00      -28.698      -18.747       -0.275       23.941       13.299       14.097      573.183      176.854      198.716        0.106        0.047       34.278       12.323        0.129      337.916       10.212      868.968
11/07/2014  22:44:00      -78.611      -29.818      -22.392       13.994       16.506       10.060      195.842      272.461      101.208        0.407        0.028       84.076        9.427        0.013      337.946       10.264      868.954
11/07/2014  22:45:00      -89.819      -27.845      -22.367       10.498       11.363        7.919      110.212      129.120       62.716        0.482        0.015       94.036        5.305        0.003      337.845       10.094      868.927
11/07/2014  22:46:00     -112.816      -44.766      -17.892       18.177        8.660       10.245      330.419       74.991      104.970        0.778        0.026      121.373        6.743        0.003      337.764        9.958      868.910
11/07/2014  22:47:00     -139.409      -37.430      -18.223       11.904       12.661        8.955      141.695      160.292       80.196        1.077        0.019      144.346        4.072        0.001      337.708        9.863      868.900
11/07/2014  22:48:00     -104.164      -38.849       -9.699       14.265       13.320       10.970      203.487      177.422      120.335        0.648        0.025      111.173        6.655        0.004      337.799       10.017      868.899
11/07/2014  22:49:00     -100.546      -39.735      -10.495       18.367       16.779       11.952      337.364      281.520      142.861        0.628        0.038      108.113       10.528        0.009      337.909       10.203      868.905
11/07/2014  22:50:00      -69.978      -46.445       -3.383       26.705       15.512       12.914      713.171      240.613      166.775        0.409        0.056       83.988        7.254        0.007      337.899       10.185      868.919
11/07/2014  22:51:00      -31.543      -42.094        7.577       26.205       26.361       17.735      686.725      694.911      314.537        0.226        0.085       52.601       15.133        0.083      337.876       10.146      868.931
11/07/2014  22:52:00      -60.460      -30.531       -0.431       43.541       34.578       21.682     1895.848     1195.654      470.090        0.407        0.178       67.731        8.796        0.017      337.937       10.249      868.933
11/07/2014  22:53:00     -112.422      -43.078       -9.488       29.610       26.201       25.346      876.779      686.513      642.431        0.839        0.110      120.393        8.572        0.005      337.807       10.030      868.931
11/07/2014  22:54:00      -77.652      -76.473       -4.334       42.202       30.273       24.917     1780.993      916.447      620.877        0.761        0.166      108.986       22.308        0.042      337.649        9.766      868.921
11/07/2014  22:55:00     -108.284      -69.577       -5.341       36.799       37.911       26.433     1354.149     1437.223      698.702        1.004        0.175      128.711       21.348        0.028      337.544        9.590      868.914
11/07/2014  22:56:00     -125.507      -69.215       -3.932       45.828       39.223       30.112     2100.249     1538.428      906.721        1.255        0.227      143.328       26.195        0.033      337.508        9.530      868.924
11/07/2014  22:57:00      -49.447      -52.174       10.566       37.157       31.915       20.279     1380.649     1018.543      411.255        0.404        0.141       71.882       17.683        0.061      337.528        9.563      868.950
11/07/2014  22:58:00     -117.919      -84.438       -6.747       42.055       37.187       20.623     1768.621     1382.893      425.304        1.233        0.179      145.034       15.647        0.012      337.567        9.628      868.961
11/07/2014  22:59:00     -117.511     -120.356       -7.321       51.842       38.113       29.441     2687.617     1452.626      866.776        1.668        0.250      168.210       25.994        0.024      337.510        9.531      868.964
11/07/2014  23:00:00     -159.511      -92.650       -4.425       37.583       36.047       29.888     1412.480     1299.385      893.294        1.883        0.180      184.466       23.613        0.016      337.476        9.476      868.956
11/07/2014  23:01:00     -119.455      -59.830       -2.197       38.626       34.432       25.669     1491.999     1185.554      658.874        1.059        0.167      133.600       24.408        0.033      337.484        9.489      868.930
11/07/2014  23:02:00     -110.015      -33.111       -5.779       25.143       22.996       16.535      632.174      528.829      273.420        0.733        0.072      114.890       13.848        0.015      337.510        9.534      868.920
11/07/2014  23:03:00     -116.663      -47.613       -6.262       27.994       26.625       13.833      783.686      708.878      191.360        0.880        0.084      126.005        4.719        0.001      337.490        9.499      868.936
11/07/2014  23:04:00     -113.049      -42.491      -10.682       27.217       22.404       16.007      740.758      501.943      256.214        0.810        0.075      120.771       15.541        0.017      337.506        9.526      868.941
11/07/2014  23:05:00     -121.010      -30.468       -5.416       30.057       25.337       19.574      903.418      641.942      383.155        0.876        0.096      124.787       19.708        0.025      337.514        9.538      868.931
11/07/2014  23:06:00     -115.572      -30.847       -4.915       19.635       19.271       14.048      385.552      371.389      197.352        0.764        0.048      119.618       10.286        0.007      337.454        9.438      868.933
11/07/2014  23:07:00     -108.241      -42.863      -11.798       18.344       19.646       12.694      336.496      385.962      161.142        0.729        0.044      116.418        7.879        0.005      337.474        9.473      868.917
11/07/2014  23:08:00     -101.340      -46.469      -12.020       17.275       26.012       14.705      298.428      676.614      216.245        0.688        0.060      111.486       11.676        0.011      337.478        9.479      868.917
11/07/2014  23:09:00     -108.570      -67.006      -11.354       19.080       19.075       15.062      364.049      363.853      226.851        0.868        0.048      127.582       11.109        0.008      337.499        9.513      868.912
11/07/2014  23:10:00     -104.841      -56.919      -15.512       21.427       22.287       16.081      459.131      496.712      258.599        0.784        0.061      119.296        7.515        0.004      337.438        9.410      868.916
11/07/2014  23:11:00     -121.351      -59.395      -16.343       17.636       19.264       15.570      311.039      371.086      242.415        0.972        0.046      135.107        8.988        0.004      337.383        9.319      868.920
11/07/2014  23:12:00     -109.054      -69.606      -12.263       27.704       21.061       16.442      767.529      443.570      270.344        0.918        0.074      129.375        9.658        0.006      337.384        9.321      868.911
11/07/2014  23:13:00      -72.736      -64.819       -6.641       30.566       30.108       20.058      934.300      906.472      402.320        0.589        0.112       97.427       16.473        0.029      337.370        9.298      868.900
11/07/2014  23:14:00      -72.973      -55.203       -2.180       31.608       24.350       17.167      999.091      592.924      294.704        0.513        0.094       91.501       11.678        0.016      337.374        9.303      868.904
11/07/2014  23:15:00      -87.495      -44.135      -12.973        8.170        9.666        7.407       66.755       93.430       54.858        0.499        0.011       97.997        5.538        0.003      337.303        9.186      868.917
11/07/2014  23:16:00     -106.709      -50.862      -11.774       18.334       11.915       10.378      336.150      141.956      107.699        0.735        0.029      118.210        5.850        0.002      337.324        9.219      868.918
11/07/2014  23:17:00      -86.972      -50.163       -4.504       18.450       18.152       12.220      340.417      329.482      149.320        0.546        0.041      100.401       11.405        0.013      337.305        9.190      868.925
11/07/2014  23:18:00      -77.893      -44.584        6.028       33.473       28.041       24.627     1120.474      786.291      606.465        0.530        0.126       89.750       22.820        0.065      337.274        9.137      868.943
11/07/2014  23:19:00      -45.413      -44.274        2.721       41.520       26.956       24.440     1723.878      726.633      597.336        0.354        0.152       63.423       19.119        0.091      337.297        9.175      868.951
11/07/2014  23:20:00     -116.830      -77.794       -3.988       30.275       28.906       22.754      916.558      835.529      517.743        1.099        0.113      140.361       16.856        0.014      337.387        9.326      868.937
11/07/2014  23:21:00     -120.692      -63.909        1.761       30.729       24.755       19.467      944.279      612.819      378.967        1.029        0.097      136.569       14.445        0.011      337.347        9.259      868.924
11/07/2014  23:22:00     -114.229      -60.107        0.477       31.585       22.628       18.138      997.612      512.025      328.976        0.925        0.092      129.078       15.720        0.015      337.339        9.247      868.923
11/07/2014  23:23:00     -101.750      -41.813      -11.241       16.469       18.704       11.454      271.228      349.828      131.183        0.649        0.038      110.006        6.377        0.003      337.336        9.240      868.923
11/07/2014  23:24:00     -104.720      -32.540      -10.829       18.435       16.969       12.670      339.855      287.954      160.532        0.647        0.039      109.659        5.680        0.003      337.369        9.296      868.923
11/07/2014  23:25:00     -129.106      -51.087      -11.784       24.506       14.730       13.529      600.549      216.986      183.028        1.021        0.050      138.846        9.638        0.005      337.327        9.225      868.928
11/07/2014  23:26:00     -117.726      -28.451       -6.111       27.820       19.323       16.429      773.939      373.385      269.897        0.806        0.071      121.115       15.941        0.017      337.251        9.100      868.934
11/07/2014  23:27:00     -107.031      -23.868      -12.993       21.213       15.052       14.873      449.984      226.553      221.218        0.655        0.045      109.660       12.641        0.013      337.232        9.069      868.926
11/07/2014  23:28:00      -80.691      -46.635      -11.509       14.438       15.204       11.449      208.446      231.163      131.078        0.469        0.029       93.198        9.573        0.011      337.284        9.154      868.923
11/07/2014  23:29:00      -89.358      -49.231      -12.969       20.489       18.808       13.340      419.804      353.740      177.945        0.576        0.048      102.022        7.538        0.005      337.259        9.113      868.933
11/07/2014  23:30:00      -65.311      -43.344       -1.858       31.683       20.934       21.655     1003.802      438.252      468.920        0.403        0.096       78.385       18.478        0.056      337.188        8.993      868.923
11/07/2014  23:31:00      -54.692      -47.641       -5.725       27.344       30.415       19.836      747.698      925.083      393.462        0.368        0.103       72.532       16.563        0.052      337.159        8.946      868.927
11/07/2014  23:32:00      -27.703      -37.939       -9.490       37.680       24.865       24.250     1419.801      618.246      588.086        0.246        0.131       46.977       26.522        0.319      337.201        9.016      868.933
11/07/2014  23:33:00       13.428      -18.804       18.610       21.814       18.323       16.005      475.857      335.724      256.149        0.097        0.053       23.106        9.174        0.158      337.193        9.005      868.938
11/07/2014  23:34:00        5.665       -7.249        0.162       17.268       15.670       14.786      298.191      245.535      218.634        0.042        0.038        9.200        8.613        0.877      337.164        8.954      868.935
11/07/2014  23:35:00        1.088      -12.005        4.697       24.677       18.623       16.271      608.968      346.820      264.740        0.069        0.061       12.054       14.255        1.399      337.149        8.929      868.940
11/07/2014  23:36:00      -85.934      -31.831       -9.610       18.805       16.107       10.768      353.645      259.444      115.947        0.461        0.036       91.640        7.416        0.007      337.234        9.072      868.954
11/07/2014  23:37:00     -113.038      -28.801      -15.230       16.154       15.632       12.179      260.958      244.360      148.331        0.725        0.033      116.650        3.619        0.001      337.270        9.132      868.963
11/07/2014  23:38:00     -110.285      -41.683       -8.356       14.321       17.288        9.821      205.101      298.877       96.444        0.729        0.030      117.899        8.418        0.005      337.296        9.174      868.964
11/07/2014  23:39:00     -113.260      -49.166      -12.420       16.063       19.015       12.795      258.036      361.564      163.716        0.809        0.039      123.471        7.694        0.004      337.322        9.218      868.962
11/07/2014  23:40:00     -105.878      -49.589       -9.190       14.895       16.151       11.983      221.872      260.862      143.602        0.719        0.031      116.915        8.327        0.005      337.300        9.182      868.951
11/07/2014  23:41:00     -104.265      -55.779      -12.053       12.608       15.412        8.620      158.968      237.545       74.306        0.730        0.024      118.248        5.372        0.002      337.301        9.181      868.948
11/07/2014  23:42:00      -88.333      -44.776      -12.624       19.106       15.300       14.875      365.055      234.100      221.259        0.539        0.041       99.034        6.010        0.004      337.357        9.275      868.953
11/07/2014  23:43:00      -96.721      -42.292      -10.668       20.830       14.685       10.401      433.903      215.661      108.172        0.601        0.038      105.563        7.873        0.006      337.246        9.091      868.971
11/07/2014  23:44:00      -87.336      -36.649       -7.217       11.838       11.825        9.234      140.141      139.830       85.263        0.469        0.018       94.714        6.778        0.005      337.148        8.927      868.975
11/07/2014  23:45:00      -67.827      -36.486      -14.046       12.060       11.148        8.073      145.448      124.272       65.167        0.323        0.017       77.018        5.722        0.006      337.129        8.894      868.977
11/07/2014  23:46:00     -100.091      -36.017      -14.011       14.774       12.936        8.427      218.264      167.336       71.011        0.598        0.023      106.374        5.149        0.002      337.081        8.814      868.982
11/07/2014  23:47:00     -104.691      -39.899      -12.408       17.671       15.453       12.167      312.281      238.781      148.038        0.670        0.035      112.036       10.331        0.009      337.199        9.013      868.994
11/07/2014  23:48:00      -88.670      -29.194       -9.055       12.046       11.152        7.361      145.096      124.366       54.180        0.456        0.016       93.352        4.446        0.002      337.105        8.855      869.003
11/07/2014  23:49:00      -91.255      -27.725      -13.702        6.660        8.035        6.457       44.355       64.560       41.694        0.472        0.008       95.373        1.707        0.000      337.148        8.926      868.997
11/07/2014  23:50:00      -90.069      -28.045      -14.285        8.272       12.935       10.870       68.420      167.324      118.150        0.473        0.018       94.334        5.996        0.004      337.068        8.792      868.993
11/07/2014  23:51:00      -85.723      -38.669      -15.282       10.651        7.620        8.261      113.436       58.060       68.243        0.466        0.012       94.041        3.784        0.002      337.044        8.752      868.988
11/07/2014  23:52:00      -95.679      -43.388      -13.214       10.244        6.090        5.935      104.940       37.089       35.227        0.569        0.009      105.057        3.589        0.001      337.047        8.755      868.984
11/07/2014  23:53:00      -97.142      -37.869      -11.861       12.227       10.236       10.567      149.510      104.779      111.664        0.569        0.018      104.263        7.978        0.006      337.097        8.839      868.981
11/07/2014  23:54:00      -85.080      -22.318      -10.286       13.880       12.119       10.385      192.641      146.881      107.840        0.414        0.022       87.958        7.957        0.008      337.123        8.884      868.979
11/07/2014  23:55:00      -91.305      -21.315      -14.377        9.649        9.404        8.245       93.098       88.440       67.978        0.462        0.012       93.760        5.777        0.004      337.154        8.937      868.986
11/07/2014  23:56:00     -102.909      -18.719      -14.767       15.472       13.031       10.256      239.386      169.797      105.192        0.584        0.026      104.598        9.686        0.009      337.219        9.046      869.003
11/07/2014  23:57:00      -85.193      -27.263       -9.114       10.870       12.635       10.452      118.157      159.640      109.242        0.424        0.019       89.450        8.587        0.009      337.157        8.941      869.003
11/07/2014  23:58:00      -72.478      -28.274      -13.012       14.033       15.910       10.283      196.938      253.123      105.734        0.339        0.028       77.798        2.643        0.001      337.109        8.861      869.003
11/07/2014  23:59:00      -66.079      -29.742      -11.202       11.750       11.989        9.582      138.068      143.726       91.811        0.287        0.019       72.464        4.620        0.004      337.126        8.891      869.019
